.

MPMG - Transparência

Contracheque - Verbas indenizatórias e outras remunerações temporárias - Tabela III (Resolução nº 200/2019) - Pós Resolução CNMP 200/2019

Período: 2020 - Outubro

Ordem Matrícula Nome Cargo Lotação Verbas Indenizatórias *1 Outras Remunerações Temporárias *2 Data de Referência
Auxílio Alimentação Auxílio Creche Auxílio Saúde Auxílio Transporte Estagiário Indenizações Indenizações e Diligênias Adicionais de Periculosidade e Insalubridade Gratificações Outras Remunerações
1 498900 ABDON MARCIO BARBOSA DA SILVA OFICIAL DO MP ABRE CAMPO - COMARCA; ABRE CAMPO-PJ-01PJ 1.100,00 0,00 450,00 0,00 0,00 0,00 0,00 0,00 0,00 31/10/2020
2 293600 ABELARDO GUIMARAES CASTRO PROMOT.ENTRANC.ESPECIAL BELO HORIZONTE - COMARCA; BH-02PJ FAMILIA-GAB 035PJ 1.100,00 0,00 2.601,04 0,00 47.164,75 0,00 0,00 0,00 514,69 31/10/2020
3 99200 ADALBERTO DE PAULA CHRISTO LEITE PROMOT.ENTRANC.ESPECIAL SÃO JOÃO DEL REI - COMARCA; SAO JOAO DEL REI-PJ-02PJ 1.100,00 0,00 2.345,20 0,00 22.459,40 0,00 0,00 0,00 514,69 31/10/2020
4 177800 ADALBERTO MENEZES FARIA SAMORA OFICIAL DO MP BELO HORIZONTE - COMARCA; DIR ESTRUTURA E PROCESSOS ORGANIZACIONAIS 1.100,00 0,00 450,00 0,00 0,00 0,00 0,00 0,00 0,00 31/10/2020
5 306400 ADALBERTO MOREIRA GONCALVES ANALISTA DO MP BELO HORIZONTE - COMARCA; BH-24PJ JUIZO REG BARREIRO-SECRETARIA 1.100,00 0,00 450,00 0,00 0,00 0,00 0,00 0,00 0,00 31/10/2020
6 1150100 ADAO ABADE DE BARROS JUNIOR ESTAGIARIO OLIVEIRA; OLIVEIRA-PJ-01PJ 0,00 0,00 0,00 117,00 0,00 0,00 0,00 0,00 0,00 31/10/2020
7 100400 ADELAIDE CRISTINA DE CARVALHO MACHADO PROCURADOR DE JUSTICA BELO HORIZONTE - COMARCA; GABINETE DE PROCURADOR DE JUSTIÇA - SALA 708 1.100,00 0,00 980,72 0,00 17.731,11 0,00 0,00 0,00 541,78 31/10/2020
8 96500 ADELIA LAGE DE OLIVEIRA PROCURADOR DE JUSTICA BELO HORIZONTE - COMARCA; GABINETE DE PROCURADOR DE JUSTIÇA - SALA 403 1.100,00 0,00 1.279,20 0,00 23.641,48 0,00 0,00 0,00 541,78 31/10/2020
9 1121100 ADELIA NATALI CHURATA URBANO ESTAGIARIO BETIM; BETIM-PJ-04PJ 0,00 0,00 0,00 108,00 0,00 0,00 0,00 0,00 0,00 31/10/2020
10 49200 ADEMAR PEREIRA PROMOTOR 2A ENTRANCIA MACHADO - COMARCA; MACHADO-PJ-01PJ 1.100,00 0,00 2.984,80 0,00 21.336,43 0,00 0,00 0,00 488,96 31/10/2020
11 179300 ADENISE AUXILIADORA SOUZA SAD OFICIAL DO MP BARBACENA - COMARCA; BARBACENA-PJ-06PJ 1.100,00 0,00 450,00 0,00 0,00 0,00 0,00 0,00 0,00 31/10/2020
12 272200 ADILSON BATISTA ORNELAS OFICIAL DO MP LAVRAS - COMARCA; LAVRAS-PJ-SECRETARIA 1.100,00 0,00 450,00 0,00 0,00 0,00 0,00 0,00 0,00 31/10/2020
13 143000 ADILSON DE OLIVEIRA NASCIMENTO PROCURADOR DE JUSTICA BELO HORIZONTE - COMARCA; GABINETE DE PROCURADOR DE JUSTIÇA - SALA 614 1.100,00 0,00 2.728,96 0,00 14.184,89 0,00 0,00 0,00 541,78 31/10/2020
14 380100 ADILSON GONCALVES DE MELO JUNIOR ANALISTA DO MP ARAXÁ - COMARCA; ARAXA-PJ-05PJ 1.100,00 769,39 450,00 0,00 0,00 0,00 0,00 0,00 0,00 31/10/2020
15 148800 ADILSON JANUARIO OFICIAL DO MP BELO HORIZONTE - COMARCA; BH-22PJ PES COM DEF E IDOSOS-SECRETARIA 1.100,00 0,00 450,00 0,00 0,00 0,00 0,00 0,00 0,00 31/10/2020
16 322601 ADMILSON SILVEIRA ANALISTA DO MP SAO JOAO DO PARAISO COMARCA; SAO JOAO DO PARAISO-PJ-UNPJ 1.100,00 0,00 450,00 0,00 0,00 0,00 0,00 0,00 0,00 31/10/2020
17 1067600 ADNEIA CARVALHO NUNES ESTAGIARIO JANUARIA; JANUARIA-PJ-01PJ 0,00 0,00 0,00 180,00 0,00 0,00 0,00 0,00 0,00 31/10/2020
18 333700 ADRIANA ABRITTA TEIXEIRA OFICIAL DO MP BELO HORIZONTE - COMARCA; DIRET DE PESSOAL DO MINISTERIO PUBLICO - DPMP 1.100,00 0,00 450,00 0,00 0,00 0,00 0,00 0,00 0,00 31/10/2020
19 468500 ADRIANA APARECIDA FIRMINO ANALISTA DO MP CARATINGA - COMARCA; CARATINGA-PJ-04PJ 1.100,00 769,39 450,00 0,00 0,00 0,00 0,00 0,00 892,44 31/10/2020
20 326100 ADRIANA AUGUSTA AMARAL BELO OFICIAL DO MP BARBACENA - COMARCA; BARBACENA-PJ-08PJ 1.100,00 0,00 450,00 0,00 0,00 0,00 0,00 0,00 0,00 31/10/2020
21 363000 ADRIANA CARVALHO PEREIRA E SILVA COSTA PROMOTOR 2A ENTRANCIA ALÉM PARAÍBA - COMARCA; ALEM PARAIBA-PJ-02PJ 1.100,00 0,00 2.494,44 0,00 12.801,86 0,00 0,00 0,00 488,96 31/10/2020
22 605700 ADRIANA COSTA LIRA ASSESSOR/OFICIAL BELO HORIZONTE - COMARCA; COORD ESTADUAL DE DEFESA DA EDUCACAO 1.100,00 0,00 450,00 0,00 0,00 0,00 0,00 0,00 -20,55 31/10/2020
23 541100 ADRIANA CRISTINA DE OLIVEIRA OFICIAL DO MP GUAPÉ - COMARCA; GUAPE-PJ-UNPJ 1.100,00 769,39 450,00 0,00 0,00 0,00 0,00 0,00 0,00 31/10/2020
24 254800 ADRIANA DAS GRACAS FERNANDES ANALISTA DO MP UBERABA - COMARCA; UBERABA-PJ-07PJ 1.100,00 0,00 450,00 0,00 0,00 0,00 0,00 0,00 0,00 31/10/2020
25 217400 ADRIANA DE CARVALHO CATAO BRAGA ASSESSOR BELO HORIZONTE - COMARCA; DIV FISCAL ADM CONT TERCEIRIZACAO 1.100,00 0,00 450,00 0,00 0,00 0,00 0,00 0,00 0,00 31/10/2020
26 434600 ADRIANA FERREIRA DA SILVA ANALISTA DO MP BELO HORIZONTE - COMARCA; BH-14PJ DEFESA CONSUMIDOR-GAB 112PJ 1.100,00 0,00 450,00 0,00 0,00 0,00 0,00 0,00 0,00 31/10/2020
27 499800 ADRIANA FERREIRA TIAGO OFICIAL DO MP SALINAS - COMARCA; SALINAS-PJ-02PJ 1.100,00 0,00 450,00 0,00 0,00 0,00 0,00 0,00 212,96 31/10/2020
28 543400 ADRIANA GUIMARAES NUNES DE PAULA ANALISTA DO MP PATROCÍNIO - COMARCA; PATROCINIO-PJ-01PJ 1.100,00 0,00 450,00 0,00 0,00 0,00 0,00 0,00 0,00 31/10/2020
29 471500 ADRIANA HORTA DE CARVALHO RODRIGUES DE SOUSA ANALISTA DO MP BELO HORIZONTE - COMARCA; GRUPO ESP PROM JUST DEF PROB ADM PAT PUB 1.100,00 0,00 450,00 0,00 0,00 0,00 0,00 0,00 0,00 31/10/2020
30 314300 ADRIANA JULIA DE SOUZA PROMOT.ENTRANC.ESPECIAL BELO HORIZONTE - COMARCA; BH-26 CRIME CONT CRIAN ADOL-GAB 169PJ 1.100,00 0,00 2.558,40 0,00 13.475,64 0,00 0,00 0,00 514,69 31/10/2020
31 1148500 ADRIANA LACERDA SOARES ESTAGIARIO RAUL SOARES; RAUL SOARES-PJ-UNPJ 0,00 0,00 0,00 135,00 0,00 0,00 0,00 0,00 0,00 31/10/2020
32 1042600 ADRIANA LELLIS DOS SANTOS RESENDE ESTAGIARIO BELO HORIZONTE; CAO-FUNDACOES 0,00 0,00 0,00 45,00 0,00 0,00 0,00 0,00 0,00 31/10/2020
33 86400 ADRIANA MOREIRA CALDEIRA BRANT OFICIAL DO MP BELO HORIZONTE - COMARCA; BH-21PJ TUTELA FUNDACOES-SECRETARIA 1.100,00 0,00 450,00 0,00 0,00 0,00 0,00 0,00 0,00 31/10/2020
34 480700 ADRIANA MOREIRA DE AVELLAR CEZILIO OFICIAL DO MP BELO HORIZONTE - COMARCA; BH-18PJ VIOLENCIA DOMESTICA-SECRETARIA 1.100,00 0,00 450,00 0,00 0,00 0,00 0,00 0,00 0,00 31/10/2020
35 326000 ADRIANA PEREIRA CARNEIRO RESENDE OFICIAL DO MP BELO HORIZONTE - COMARCA; BH-25PJ DEFESA DA EDUCACAO-SECRETARIA 1.100,00 0,00 450,00 0,00 0,00 0,00 0,00 0,00 0,00 31/10/2020
36 502200 ADRIANA PETRUCCI DAVINA OFICIAL DO MP PATROCÍNIO - COMARCA; PATROCINIO-PJ-01PJ 1.100,00 769,39 450,00 0,00 0,00 0,00 0,00 0,00 0,00 31/10/2020
37 685200 ADRIANA PRATES DOS SANTOS PROMOTOR SUBSTITUTO BELO HORIZONTE - COMARCA; CENTRO DE ESTUDOS E APERFEICOAMENTO FUNCIONAL 1.100,00 0,00 982,10 0,00 0,00 0,00 0,00 0,00 0,00 31/10/2020
38 201900 ADRIANA REIS PIMENTA OFICIAL DO MP TEÓFILO OTONI - COMARCA; TEOFILO OTONI-PJ-03PJ 1.100,00 0,00 450,00 0,00 0,00 0,00 0,00 0,00 0,00 31/10/2020
39 278700 ADRIANA RODRIGUES PINTO COELHO AMARAL ANALISTA DO MP BELO HORIZONTE - COMARCA; CGMP-ASSESSORIA JURIDICA 1.100,00 0,00 450,00 0,00 0,00 0,00 0,00 0,00 0,00 31/10/2020
40 468000 ADRIANA SANTOS DE SANTANA MOREIRA ANALISTA DO MP ARAÇUAÍ - COMARCA; ARACUAI-PJ-02PJ 1.100,00 0,00 450,00 0,00 0,00 0,00 0,00 0,00 0,00 31/10/2020
41 290900 ADRIANA TORRES BECK PROMOT.ENTRANC.ESPECIAL BELO HORIZONTE - COMARCA; BH-23PJ DEF DIR CRIAN ADOL 1.100,00 0,00 3.070,08 0,00 0,00 0,00 0,00 0,00 0,00 31/10/2020
42 194700 ADRIANA TSUKIDE OFICIAL DO MP UBERABA - COMARCA; COORD REG BACIAS PARANAIBA BAIXO RIO GRANDE 1.100,00 0,00 450,00 0,00 0,00 0,00 0,00 0,00 0,00 31/10/2020
43 291500 ADRIANA VITAL DO VALLE PROMOT.ENTRANC.ESPECIAL SÃO JOÃO DEL REI - COMARCA; SAO JOAO DEL REI-PJ-06PJ 1.100,00 0,00 2.217,28 0,00 33.689,10 0,00 0,00 0,00 514,69 31/10/2020
44 1088700 ADRIANE SILVA ESTAGIARIO BETIM; BETIM-PJ-05PJ 0,00 0,00 0,00 63,00 0,00 0,00 0,00 0,00 0,00 31/10/2020
45 212900 ADRIANO ARANTES BOZOLA PROMOT.ENTRANC.ESPECIAL UBERLÂNDIA - COMARCA; UBERLANDIA-PJ-21PJ 1.100,00 0,00 2.703,18 0,00 22.459,40 0,00 0,00 0,00 514,69 31/10/2020
46 174200 ADRIANO BOTELHO ESTRELA PROMOT.ENTRANC.ESPECIAL BELO HORIZONTE - COMARCA; BH-12PJ JUIZO CRIMINAL-GAB 095PJ 1.100,00 0,00 1.918,80 0,00 13.475,64 0,00 0,00 0,00 514,69 31/10/2020
47 465500 ADRIANO CASSIANO MATOS ANALISTA DO MP ARAXÁ - COMARCA; ARAXA-PJ-02PJ 1.100,00 0,00 450,00 0,00 0,00 0,00 0,00 0,00 0,00 31/10/2020
48 500500 ADRIANO DE ALMEIDA SILVA OFICIAL DO MP UBERABA - COMARCA; UBERABA-PJ-12PJ 1.100,00 769,39 450,00 0,00 2.285,91 0,00 0,00 0,00 638,75 31/10/2020
49 187200 ADRIANO DE FREITAS MARON OFICIAL DO MP PONTE NOVA - COMARCA; PONTE NOVA-PJ-03PJ 1.100,00 0,00 450,00 0,00 0,00 0,00 0,00 0,00 0,00 31/10/2020
50 344000 ADRIANO DUTRA GOMES DE FARIA PROMOT.ENTRANC.ESPECIAL VESPASIANO - COMARCA; VESPASIANO-PJ-04PJ 1.100,00 0,00 3.368,91 0,00 22.459,40 0,00 0,00 0,00 514,69 31/10/2020
51 477900 ADRIANO FERREIRA DE ALMEIDA OFICIAL DO MP TAIOBEIRAS - COMARCA; TAIOBEIRAS-PJ-UNPJ 1.100,00 0,00 450,00 0,00 0,00 322,04 0,00 0,00 0,00 31/10/2020
52 658300 ADRIANO NEPOMUCENO DE CARVALHO TENENTE CORONEL BELO HORIZONTE - COMARCA; GAECO - SECRETARIA 1.100,00 0,00 0,00 0,00 0,00 0,00 0,00 0,00 0,00 31/10/2020
53 269101 ADRIANO PEREIRA SILVA ANALISTA DO MP UBERABA - COMARCA; UBERABA-PJ-02PJ 1.100,00 769,39 450,00 0,00 0,00 0,00 0,00 0,00 0,00 31/10/2020
54 414200 ADRIANO RODRIGUES FERNANDES ANALISTA DO MP CARANDAÍ - COMARCA; CARANDAI-PJ-UNPJ 1.100,00 0,00 450,00 0,00 0,00 0,00 0,00 0,00 0,00 31/10/2020
55 1042000 ADRIANO SOARES LOES ESTAGIARIO UBERABA; UBERABA-PJ-01PJ 0,00 0,00 0,00 162,00 0,00 0,00 0,00 0,00 0,00 31/10/2020
56 536700 ADRIELLE COSTA MARIA MOURAO FIGUEIREDO OFICIAL DO MP SERRO - COMARCA; SERRO-PJ-SECRETARIA 1.100,00 769,39 450,00 0,00 0,00 0,00 0,00 0,00 0,00 31/10/2020
57 514300 ADRIENE DAMASCENO BRAGA ANALISTA DO MP ALFENAS - COMARCA; ALFENAS-PJ-03PJ 1.100,00 769,39 450,00 0,00 0,00 0,00 0,00 0,00 572,80 31/10/2020
58 254600 ADRIENE DOMINGUES COSTA ANALISTA DO MP BELO HORIZONTE - COMARCA; SUPERINTENDENCIA GESTÃO DE PESSOAS
59 252001 ADRIENE GOMES BARRETO ANALISTA DO MP BELO HORIZONTE - COMARCA; BH-19PJ SAUDE-SECRETARIA 047PJ 1.100,00 0,00 450,00 0,00 0,00 0,00 0,00 0,00 0,00 31/10/2020
60 84100 ADROALDO JUNQUEIRA AYRES NETO PROMOT.ENTRANC.ESPECIAL UBERABA - COMARCA; UBERABA-PJ-12PJ 1.100,00 0,00 3.006,12 0,00 0,00 0,00 0,00 0,00 0,00 31/10/2020
61 1167400 ADSON GUSTAVO DE OLIVEIRA ESTAGIARIO CONTAGEM; CONTAGEM-PJ-09PJ 0,00 0,00 0,00 180,00 0,00 0,00 0,00 0,00 0,00 31/10/2020
62 162700 AECIO RABELO PROMOTOR 2A ENTRANCIA LAVRAS - COMARCA; LAVRAS-PJ-04PJ 1.100,00 0,00 2.387,84 0,00 21.336,43 0,00 0,00 0,00 488,96 31/10/2020
63 645000 AFONSO CELSO GUIMARAES JUNIOR OFICIAL DO MP PIRAPORA - COMARCA; PIRAPORA-PJ-01PJ 1.100,00 0,00 450,00 0,00 0,00 0,00 0,00 0,00 0,00 31/10/2020
64 97600 AFONSO HENRIQUE DE MIRANDA TEIXEIRA PROCURADOR DE JUSTICA BELO HORIZONTE - COMARCA; CAO-CONFLITOS AGRARIOS 1.100,00 0,00 3.261,96 0,00 23.641,48 0,00 0,00 0,00 541,78 31/10/2020
65 610000 AGENOR ANDRADE LEAO PROMOT.ENTRANC.ESPECIAL TEÓFILO OTONI - COMARCA; TEOFILO OTONI-PJ-05PJ 1.100,00 0,00 1.599,00 0,00 22.459,40 0,00 0,00 0,00 514,69 31/10/2020
66 302500 AGENOR JOSE DA SILVA JUNIOR ANALISTA DO MP JUIZ DE FORA - COMARCA; JUIZ DE FORA-PJ-14PJ 1.100,00 0,00 450,00 0,00 0,00 0,00 0,00 0,00 0,00 31/10/2020
67 344100 AGNALDO LUCAS COTRIM PROMOT.ENTRANC.ESPECIAL POUSO ALEGRE - COMARCA; POUSO ALEGRE-PJ-02PJ 1.100,00 0,00 2.259,92 0,00 13.475,64 0,00 0,00 0,00 514,69 31/10/2020
68 67400 AIDA FERNANDES LISBOA MARINHO PROCURADOR DE JUSTICA BELO HORIZONTE - COMARCA; GABINETE DE PROCURADOR DE JUSTIÇA - SALA 604 1.100,00 0,00 2.856,88 0,00 23.641,48 0,00 0,00 0,00 541,78 31/10/2020
69 1160200 AIESKA TALITA QUEIROZ MOTA ESTAGIARIO PIRAPORA; PIRAPORA-PJ-01PJ 0,00 0,00 0,00 189,00 0,00 0,00 0,00 0,00 0,00 31/10/2020
70 357500 AILSON WAGNER DE ALENCAR SILVA OFICIAL DO MP BELO HORIZONTE - COMARCA; BH-12PJ JUIZO CRIMINAL-SECRETARIA 1.100,00 0,00 450,00 0,00 0,00 0,00 0,00 0,00 0,00 31/10/2020
71 366400 AILTON ALEXSSANDRO ALVES OFICIAL DO MP PARÁ DE MINAS - COMARCA; PARA DE MINAS-PJ-05PJ 1.100,00 0,00 450,00 0,00 0,00 0,00 0,00 0,00 0,00 31/10/2020
72 318900 AILTON DE CASTRO RIBEIRO JUNIOR OFICIAL DO MP ITAJUBA - COMARCA; ITAJUBA-PJ-01PJ 1.100,00 769,39 450,00 0,00 0,00 0,00 0,00 0,00 0,00 31/10/2020
73 533100 AIMARA DE BRITTO DIAS LEITE PROMOTOR SUBSTITUTO LAGOA SANTA - COMARCA; LAGOA SANTA-PJ-01PJ 1.100,00 0,00 1.492,40 0,00 6.080,88 0,00 0,00 0,00 464,51 31/10/2020
74 439100 AIRTON BATISTA COSTA NETO NEPOMUCENO PROMOTOR 2A ENTRANCIA ITUIUTABA - COMARCA; ITUIUTABA-PJ-04PJ 1.100,00 0,00 2.285,40 0,00 22.403,25 0,00 0,00 0,00 488,96 31/10/2020
75 341600 ALAM BAENA BERTOLLA DOS SANTOS PROMOTOR 2A ENTRANCIA ARAGUARI - COMARCA; ARAGUARI-PJ-05PJ 1.100,00 0,00 2.558,40 0,00 12.801,86 0,00 0,00 0,00 488,96 31/10/2020
76 175700 ALAN CARRIJO RAMOS PROMOTOR 1A ENTRANCIA PRATÁPOLIS - COMARCA; PRATAPOLIS-PJ-UNPJ 1.100,00 0,00 3.040,44 0,00 20.269,61 0,00 0,00 0,00 464,51 31/10/2020
77 1099500 ALAN GOMES BARBOSA JUNIOR ESTAGIARIO JOAO PINHEIRO; JOAO PINHEIRO-PJ-02PJ
78 464400 ALAN MONTEIRO GASPAR ANALISTA DO MP SETE LAGOAS - COMARCA; SETE LAGOAS-PJ-08PJ 1.100,00 0,00 450,00 0,00 0,00 0,00 0,00 0,00 663,00 31/10/2020
79 670200 ALANA ARAUJO AGUIAR ASSESSOR BELO HORIZONTE - COMARCA; ASSESS EXECUTIVA DO CONSELHO SUPERIOR DO MP 1.100,00 0,00 450,00 0,00 0,00 0,00 0,00 0,00 0,00 31/10/2020
80 492000 ALANA DE CASTRO FREITAS OFICIAL DO MP ITUMIRIM - COMARCA; ITUMIRIM-PJ-SECRETARIA 1.100,00 0,00 450,00 0,00 0,00 0,00 0,00 0,00 0,00 31/10/2020
81 306700 ALANA MARCIA DE OLIVEIRA OFICIAL DO MP BELO HORIZONTE - COMARCA; DIRETORIA DE ADMINISTRACAO FINANCEIRA 1.100,00 0,00 450,00 0,00 0,00 0,00 0,00 0,00 0,00 31/10/2020
82 324500 ALANMAR COUTINHO COSTA OFICIAL DO MP LEOPOLDINA - COMARCA; LEOPOLDINA-PJ-02PJ 1.100,00 0,00 450,00 0,00 0,00 0,00 0,00 0,00 0,00 31/10/2020
83 1124700 ALANNA CARDOSO LINHARES RIBEIRO AMORIM ESTAGIARIO 0,00 0,00 0,00 18,00 0,00 0,00 0,00 0,00 0,00 31/10/2020
84 170800 ALBERTO BOGLIOLO SIRIHAL PROMOT.ENTRANC.ESPECIAL BELO HORIZONTE - COMARCA; BH-05PJ JUIZO SUCESSÕES-GAB CARGO 045PJ 1.100,00 0,00 2.278,04 0,00 22.459,40 0,00 0,00 0,00 514,69 31/10/2020
85 1160400 ALBERTO DOS ANJOS GODEFROID ESTAGIARIO OURO PRETO; OURO PRETO-PJ-01PJ 0,00 0,00 0,00 27,00 0,00 0,00 0,00 0,00 0,00 31/10/2020
86 407300 ALBERTO LUIZ SOARES DE OLIVEIRA ANALISTA DO MP BELO HORIZONTE - COMARCA; DIRETORIA DE PROJETOS DE EDIFICACOES 1.100,00 0,00 450,00 0,00 14.644,82 0,00 0,00 0,00 536,98 31/10/2020
87 118200 ALBERTO PEREIRA DA COSTA OFICIAL DO MP DORES DO INDAIÁ - COMARCA; DORES DO INDAIA-PJ-UNPJ 1.100,00 0,00 450,00 0,00 0,00 0,00 0,00 0,00 0,00 31/10/2020
88 1084700 ALBERTO RISI NETO ESTAGIARIO RIBEIRAO DAS NEVES; RIBEIRAO DAS NEVES-PJ-12PJ
89 72000 ALBINO VITORIO BERNARDO PROCURADOR DE JUSTICA BELO HORIZONTE - COMARCA; GABINETE DE PROCURADOR DE JUSTIÇA - SALA 710 1.100,00 0,00 2.153,32 0,00 23.641,48 0,00 0,00 0,00 541,78 31/10/2020
90 660700 ALCIDEZIO JOSE DE OLIVEIRA BISPO JUNIOR PROMOT.ENTRANC.ESPECIAL CARATINGA - COMARCA; CARATINGA-PJ-07PJ 1.100,00 0,00 1.876,16 0,00 13.756,38 0,00 0,00 0,00 652,72 31/10/2020
91 282400 ALCILENE MARISE DE ARAUJO ANALISTA DO MP BELO HORIZONTE - COMARCA; BH-23PJ INF-FISC MED SOC FEC 1.100,00 0,00 450,00 0,00 0,00 0,00 0,00 0,00 0,00 31/10/2020
92 112600 ALCIONE DA MOTA JARDIM OFICIAL DO MP BELO HORIZONTE - COMARCA; CAO-CRIANCAS E ADOLESCENTES-SECRETARIA 1.100,00 0,00 450,00 0,00 0,00 0,00 0,00 0,00 0,00 31/10/2020
93 396400 ALCIONE DE FREITAS E SILVA ANALISTA DO MP BELO HORIZONTE - COMARCA; ASSESS JUR DO CONS SUPERIOR DO MINISTERIO PUB 1.100,00 0,00 450,00 0,00 0,00 0,00 0,00 0,00 0,00 31/10/2020
94 657400 ALCIONE MARIA FERREIRA ASSESSOR BELO HORIZONTE - COMARCA; PROC JUST RECURSOS ESP E EXTRAORD CRIMINAIS 1.100,00 0,00 450,00 0,00 0,00 0,00 0,00 0,00 0,00 31/10/2020
95 161600 ALCIONE NERY SOUZA ASSESSOR BELO HORIZONTE - COMARCA; BH-18PJ DIREITOS HUMANOS-SECRETARIA 1.100,00 0,00 450,00 0,00 0,00 0,00 0,00 0,00 0,00 31/10/2020
96 92000 ALCIR ARANTES PROMOT.ENTRANC.ESPECIAL UBERABA - COMARCA; UBERABA-PJ-03PJ 1.100,00 0,00 2.558,40 0,00 22.459,40 0,00 0,00 0,00 514,69 31/10/2020
97 376000 ALDA GOMES LANA OFICIAL DO MP BELO HORIZONTE - COMARCA; BH-18PJ VIOLENCIA DOMESTICA-SECRETARIA 1.100,00 0,00 450,00 0,00 0,00 0,00 0,00 0,00 0,00 31/10/2020
98 148000 ALDA MARTINS SIMOES OFICIAL DO MP BELO HORIZONTE - COMARCA; BH-23PJ CIVEL- FISC ENT AB POL 1.100,00 0,00 450,00 0,00 0,00 0,00 0,00 0,00 0,00 31/10/2020
99 89200 ALDECIR RESENDE BOLLESI DE PLA E SANT'ANNA PROMOT.ENTRANC.ESPECIAL CONTAGEM - COMARCA; CONTAGEM-PJ-08PJ 1.100,00 0,00 2.153,32 0,00 0,00 0,00 0,00 0,00 0,00 31/10/2020
100 457700 ALDERICO DE CARVALHO JUNIOR PROMOTOR 2A ENTRANCIA NOVA SERRANA - COMARCA; NOVA SERRANA-PJ-03PJ 1.100,00 0,00 2.409,16 0,00 23.470,07 0,00 0,00 0,00 0,00 31/10/2020
101 318400 ALDO CREPALDI JUNIOR OFICIAL DO MP BELO HORIZONTE - COMARCA; DIVISAO DE MATERIAIS 1.100,00 0,00 450,00 0,00 0,00 0,00 0,00 0,00 0,00 31/10/2020
102 604500 ALENIZE APARECIDA RODRIGUES HENRIQUE OFICIAL DO MP RIO NOVO - COMARCA; RIO NOVO-PJ-UNPJ 1.100,00 0,00 450,00 0,00 0,00 0,00 0,00 0,00 0,00 31/10/2020
103 1057900 ALESSA ARAUJO FONSECA ESTAGIARIO BOTELHOS; BOTELHOS-PJ-UNPJ 0,00 0,00 0,00 189,00 0,00 0,00 0,00 0,00 0,00 31/10/2020
104 197900 ALESSA DE SOUSA E SILVA OFICIAL DO MP OLIVEIRA - COMARCA; OLIVEIRA-PJ-02PJ 1.100,00 0,00 450,00 0,00 0,00 102,00 0,00 0,00 0,00 31/10/2020
105 428500 ALESSANDRA ALVES DINIZ OFICIAL DO MP BELO HORIZONTE - COMARCA; CENTRAL DE APOIO TECNICO-SECRETARIA 1.100,00 0,00 450,00 0,00 2.756,98 0,00 0,00 0,00 252,72 31/10/2020
106 286801 ALESSANDRA BOTELHO JUNQUEIRA DE MENEZES ANALISTA DO MP PASSOS - COMARCA; PASSOS-PJ-05PJ 1.100,00 1.538,78 450,00 0,00 0,00 0,00 0,00 0,00 0,00 31/10/2020
107 1069900 ALESSANDRA CAROLINE PELEGRINO ESTAGIARIO BRASOPOLIS; BRASOPOLIS-PJ-UNPJ 0,00 0,00 0,00 162,00 0,00 0,00 0,00 0,00 0,00 31/10/2020
108 307000 ALESSANDRA CRISTINA SANTOS MENDES ANALISTA DO MP BELO HORIZONTE - COMARCA; BH-18PJ VIOLENCIA DOMESTICA-SECRETARIA 1.100,00 0,00 450,00 0,00 0,00 0,00 0,00 0,00 0,00 31/10/2020
109 989400 ALESSANDRA DE CARVALHO PAULA ESTAGIARIO POCOS DE CALDAS; POCOS DE CALDAS-PJ-07PJ 0,00 0,00 0,00 180,00 0,00 0,00 0,00 0,00 0,00 31/10/2020
110 264400 ALESSANDRA DE SOUZA SANTOS ANALISTA DO MP BELO HORIZONTE - COMARCA; OUVIDORIA DO MPMG 1.100,00 0,00 450,00 0,00 0,00 0,00 0,00 0,00 0,00 31/10/2020
111 441500 ALESSANDRA DRUMMOND DE FIGUEIREDO ROSSI ANALISTA DO MP BELO HORIZONTE - COMARCA; DIRETORIA DE PROJETOS DE EDIFICACOES 1.100,00 0,00 450,00 0,00 0,00 0,00 0,00 0,00 0,00 31/10/2020
112 524000 ALESSANDRA LUCIOLI DE BARROS GUERRA ANALISTA DO MP BELO HORIZONTE - COMARCA; BH-19PJ SAUDE--SECRETARIA 1.100,00 0,00 450,00 0,00 0,00 0,00 0,00 0,00 0,00 31/10/2020
113 479900 ALESSANDRA MARA ANDRADE DE FARIA OFICIAL DO MP UBERABA - COMARCA; UBERABA-PJ-09PJ 1.100,00 0,00 450,00 0,00 0,00 0,00 0,00 0,00 0,00 31/10/2020
114 226700 ALESSANDRA MARA VASCONCELOS REZENDE OFICIAL DO MP CONSELHEIRO LAFAIETE - COMARCA; CONSELHEIRO LAFAIETE-PJ-07PJ 1.100,00 0,00 450,00 0,00 0,00 0,00 0,00 0,00 0,00 31/10/2020
115 112100 ALESSANDRA MARCIA FERREIRA OFICIAL DO MP BELO HORIZONTE - COMARCA; BELO HORIZONTE- SECRETARIA DAS PROMOTORIAS 1.100,00 0,00 450,00 0,00 0,00 0,00 0,00 0,00 0,00 31/10/2020
116 196500 ALESSANDRA MARIA RIBEIRO LUCIANO OFICIAL DO MP RIO PARANAÍBA - COMARCA; RIO PARANAIBA-PJ-UNPJ 1.100,00 0,00 450,00 0,00 0,00 0,00 0,00 0,00 0,00 31/10/2020
117 91400 ALESSANDRA MENDES VASCONCELOS DE SOUZA OFICIAL DO MP BELO HORIZONTE - COMARCA; BH-23PJ INF-FISC MED SOC AB 1.100,00 0,00 450,00 0,00 0,00 0,00 0,00 0,00 0,00 31/10/2020
118 290500 ALESSANDRA PINTO CASSIANO PROMOTOR 2A ENTRANCIA BOA ESPERANÇA - COMARCA; BOA ESPERANCA-PJ-02PJ 1.100,00 0,00 1.279,20 0,00 42.672,86 0,00 0,00 0,00 488,96 31/10/2020
119 651700 ALESSANDRA PROFIRIO SOUZA OFICIAL DO MP NOVA ERA - COMARCA; NOVA ERA-PJ-UNPJ 1.100,00 0,00 450,00 0,00 0,00 0,00 0,00 0,00 0,00 31/10/2020
120 384900 ALESSANDRA RODRIGUES ANALISTA DO MP VISCONDE DO RIO BRANCO - COMARCA; VISCONDE DO RIO BRANCO-PJ-03PJ 1.100,00 1.538,78 450,00 0,00 0,00 0,00 0,00 0,00 0,00 31/10/2020
121 390000 ALESSANDRA SPADANO MASSARA VASCONCELOS OFICIAL DO MP BETIM - COMARCA; BETIM-PJ-10PJ 1.100,00 0,00 450,00 0,00 0,00 0,00 0,00 0,00 0,00 31/10/2020
122 426500 ALESSANDRO CAMPOS DE PAIVA ANALISTA DO MP BELO HORIZONTE - COMARCA; DIR CRIACAO E MIDIAS 1.100,00 0,00 450,00 0,00 0,00 0,00 0,00 0,00 0,00 31/10/2020
123 623400 ALESSANDRO DE OLIVEIRA REZENDE ANALISTA DO MP BELO HORIZONTE - COMARCA; DIRET DE INFORMACAO E CONHECIMENTO-DINC/CEAF 1.100,00 0,00 450,00 0,00 0,00 0,00 0,00 0,00 0,00 31/10/2020
124 174100 ALESSANDRO GARCIA SILVA PROMOT.ENTRANC.ESPECIAL DIVINÓPOLIS - COMARCA; DIVINOPOLIS-PJ-12PJ 1.100,00 0,00 2.387,84 0,00 47.164,75 0,00 0,00 0,00 514,69 31/10/2020
125 308201 ALESSANDRO RAMOS MACHADO PROMOTOR 2A ENTRANCIA ALFENAS - COMARCA; ALFENAS-PJ-04PJ 1.100,00 0,00 2.558,40 0,00 12.801,86 0,00 0,00 0,00 488,96 31/10/2020
126 665700 ALESSANDRO ROGERIO DIAS DE OLIVEIRA PROMOTOR 2A ENTRANCIA JANUÁRIA - COMARCA; JANUARIA-PJ-02PJ 1.100,00 0,00 1.300,52 0,00 0,00 0,00 0,00 0,00 0,00 31/10/2020
127 420600 ALESSANDRO SILVA OFICIAL DO MP VISCONDE DO RIO BRANCO - COMARCA; VISCONDE DO RIO BRANCO-PJ-02PJ 1.100,00 0,00 450,00 0,00 0,00 0,00 0,00 0,00 0,00 31/10/2020
128 171100 ALESSIA ALVES DE ALVARENGA SANTA BARBARA PROMOT.ENTRANC.ESPECIAL CONSELHEIRO LAFAIETE - COMARCA; CONSELHEIRO LAFAIETE-PJ-06PJ 1.100,00 0,00 3.368,91 0,00 22.459,40 0,00 0,00 0,00 514,69 31/10/2020
129 57800 ALESSIO GUIMARAES PROCURADOR DE JUSTICA BELO HORIZONTE - COMARCA; GABINETE DE PROCURADOR DE JUSTIÇA - SALA 508 1.100,00 0,00 2.451,80 0,00 14.184,89 0,00 0,00 0,00 541,78 31/10/2020
130 375301 ALETHEIA PATRICIA ASSIS MORAIS MOREIRA ANALISTA DO MP ITABIRA - COMARCA; ITABIRA-PJ-02PJ 1.100,00 1.538,78 450,00 0,00 0,00 0,00 0,00 0,00 0,00 31/10/2020
131 949200 ALEX ALVES DA SILVA ESTAGIARIO ABRE CAMPO; ABRE CAMPO-PJ-01PJ 0,00 0,00 0,00 54,00 0,00 0,00 0,00 0,00 0,00 31/10/2020
132 382300 ALEX CARVALHO LIMA ANALISTA DO MP UBERLÂNDIA - COMARCA; UBERLANDIA-PJ-14PJ 1.100,00 0,00 450,00 0,00 0,00 0,00 0,00 0,00 0,00 31/10/2020
133 195201 ALEX DE CASTRO PEREIRA ANALISTA DO MP UBERABA - COMARCA; UBERABA-PJ-09PJ 1.100,00 0,00 450,00 0,00 0,00 0,00 0,00 0,00 0,00 31/10/2020
134 358900 ALEX DE PAULA LANZA ASSESSOR BELO HORIZONTE - COMARCA; DIR CONTEUDO JORNALISTICO 1.100,00 769,39 450,00 0,00 0,00 0,00 0,00 0,00 0,00 31/10/2020
135 171400 ALEX FERNANDES SANTIAGO PROMOT.ENTRANC.ESPECIAL JUIZ DE FORA - COMARCA; JUIZ DE FORA-PJ-08PJ 1.100,00 0,00 1.641,64 0,00 13.475,64 0,00 0,00 0,00 514,69 31/10/2020
136 685300 ALEX RAFAEL BITTENCOURT PROMOTOR SUBSTITUTO BELO HORIZONTE - COMARCA; CENTRO DE ESTUDOS E APERFEICOAMENTO FUNCIONAL 1.100,00 0,00 1.227,62 0,00 0,00 0,00 0,00 0,00 0,00 31/10/2020
137 178400 ALEX RODRIGO SALDANHA GUIMARAES OFICIAL DO MP BELO HORIZONTE - COMARCA; DIRETORIA DE SISTEMAS DE INFORMACAO 1.100,00 0,00 450,00 0,00 0,00 0,00 0,00 0,00 0,00 31/10/2020
138 314100 ALEX SOARES NACIF PROMOT.ENTRANC.ESPECIAL CONTAGEM - COMARCA; CONTAGEM-PJ-15PJ 1.100,00 0,00 895,44 0,00 0,00 0,00 0,00 0,00 0,00 31/10/2020
139 413500 ALEX VILELA OLIVEIRA ANALISTA DO MP GOVERNADOR VALADARES - COMARCA; COORD REG PJ DEF EDU DIR CRIANCA ADOL RIODOCE 1.100,00 0,00 450,00 0,00 0,00 0,00 0,00 0,00 0,00 31/10/2020
140 264300 ALEXANDRA FATIMA SARAIVA SOARES ANALISTA DO MP BELO HORIZONTE - COMARCA; CENTRAL DE APOIO TECN-SETOR DE MEIO AMBIENTE 1.100,00 0,00 450,00 0,00 0,00 0,00 0,00 0,00 0,00 31/10/2020
141 488000 ALEXANDRA LARA PAIS DE CARVALHO ANALISTA DO MP SERRO - COMARCA; SERRO-PJ-UNPJ 1.100,00 0,00 450,00 0,00 0,00 0,00 0,00 0,00 0,00 31/10/2020
142 256300 ALEXANDRA SANTOS GOMES OFICIAL DO MP BELO HORIZONTE - COMARCA; DIRETORIA GESTAO COMPRAS LICITACOES 1.100,00 0,00 450,00 0,00 0,00 0,00 0,00 0,00 0,00 31/10/2020
143 236300 ALEXANDRE ALVES DE OLIVEIRA PROMOT.ENTRANC.ESPECIAL BELO HORIZONTE - COMARCA; BH-12PJ JUIZO CRIMINAL-GAB 108PJ 1.100,00 0,00 980,72 0,00 22.459,40 0,00 0,00 0,00 514,69 31/10/2020
144 403300 ALEXANDRE AUGUSTO RODRIGUES ANALISTA DO MP ÁGUAS FORMOSAS - COMARCA; AGUAS FORMOSAS-PJ-UNPJ 1.100,00 769,39 450,00 0,00 0,00 0,00 0,00 0,00 0,00 31/10/2020
145 640900 ALEXANDRE BARBOSA MASCARENHAS ANALISTA DO MP BETIM - COMARCA; BETIM-PJ-02PJ 1.100,00 0,00 450,00 0,00 0,00 0,00 0,00 0,00 0,00 31/10/2020
146 311700 ALEXANDRE BARCELOS RESENDE OFICIAL DO MP BELO HORIZONTE - COMARCA; BH-19PJ SAUDE-SECRETARIA 047PJ 1.100,00 769,39 450,00 0,00 0,00 0,00 0,00 0,00 0,00 31/10/2020
147 293700 ALEXANDRE BRASILEIRO DE QUEIROZ PROMOT.ENTRANC.ESPECIAL BELO HORIZONTE - COMARCA; BH-12PJ JUIZO CRIMINAL-GAB 092PJ 1.100,00 0,00 2.643,68 0,00 22.459,40 0,00 0,00 0,00 514,69 31/10/2020
148 285600 ALEXANDRE CAMPOS DE OLIVEIRA OFICIAL DO MP UBERABA - COMARCA; COORD REG BACIAS PARANAIBA BAIXO RIO GRANDE 1.100,00 0,00 450,00 0,00 0,00 0,00 0,00 0,00 0,00 31/10/2020
149 509200 ALEXANDRE CAPUANO DE REZENDE ANALISTA DO MP BELO HORIZONTE - COMARCA; GABINETE DE PROCURADOR DE JUSTIÇA - SALA 715 1.100,00 0,00 450,00 0,00 0,00 0,00 0,00 0,00 0,00 31/10/2020
150 229400 ALEXANDRE CARLOS BOTREL DIRETOR/OFICIAL BELO HORIZONTE - COMARCA; SUPERINTENDENCIA DOS ORGAOS COLEGIADOS 1.100,00 0,00 450,00 0,00 0,00 0,00 0,00 0,00 0,00 31/10/2020
151 411900 ALEXANDRE CARVALHO SANTOS RIBEIRO ANALISTA DO MP OLIVEIRA - COMARCA; OLIVEIRA-PJ-02PJ 1.100,00 1.538,78 450,00 0,00 0,00 0,00 0,00 0,00 0,00 31/10/2020
152 641600 ALEXANDRE DA SILVA ASSUNCAO OFICIAL DO MP BELO HORIZONTE - COMARCA; SERVICO MEDICO-DEPTO PERIC MEDICA SAUDE OCUP 1.100,00 0,00 450,00 0,00 0,00 0,00 0,00 0,00 0,00 31/10/2020
153 201200 ALEXANDRE DE ALENCAR CORDEIRO OFICIAL DO MP ÁGUAS FORMOSAS - COMARCA; AGUAS FORMOSAS-PJ-UNPJ 1.100,00 0,00 450,00 0,00 0,00 0,00 0,00 0,00 0,00 31/10/2020
154 288200 ALEXANDRE DE VASCONCELOS COSTA KER ANALISTA DO MP BELO HORIZONTE - COMARCA; BH-03PJ EMPRESARIAL-SECRETARIA 1.100,00 0,00 450,00 0,00 0,00 0,00 0,00 0,00 2.042,16 31/10/2020
155 445000 ALEXANDRE DIOGENES OLIVEIRA ANALISTA DO MP SALINAS - COMARCA; SALINAS-PJ-02PJ 1.100,00 769,39 450,00 0,00 0,00 0,00 0,00 0,00 359,08 31/10/2020
156 1032000 ALEXANDRE EVARISTO CUNHA BARBOSA ESTAGIARIO CAPELINHA; CAPELINHA-PJ-01PJ 0,00 0,00 0,00 126,00 0,00 0,00 0,00 0,00 0,00 31/10/2020
157 665800 ALEXANDRE FIGUEIREDO MORATO PROMOTOR 2A ENTRANCIA GUANHÃES - COMARCA; GUANHAES-PJ-01PJ 1.100,00 0,00 703,56 0,00 12.801,86 0,00 0,00 0,00 488,96 31/10/2020
158 463400 ALEXANDRE LEAL WINKELSTROTER ANALISTA DO MP TEÓFILO OTONI - COMARCA; TEOFILO OTONI-PJ-04PJ 1.100,00 0,00 450,00 0,00 0,00 0,00 0,00 0,00 0,00 31/10/2020
159 96600 ALEXANDRE LIBERO BARONI PROMOT.ENTRANC.ESPECIAL SETE LAGOAS - COMARCA; SETE LAGOAS-PJ-04PJ 1.100,00 0,00 2.771,60 0,00 22.459,40 0,00 0,00 0,00 514,69 31/10/2020
160 1189100 ALEXANDRE LOPES PEREIRA ESTAGIARIO CANAPOLIS; CANAPOLIS-PJ-UNPJ 0,00 0,00 0,00 18,00 0,00 0,00 0,00 0,00 0,00 31/10/2020
161 615700 ALEXANDRE LUIZ DE CASTRO MACIEL ANALISTA DO MP IBIRITÉ - COMARCA; IBIRITE-PJ-02PJ 1.100,00 0,00 450,00 0,00 0,00 0,00 0,00 0,00 0,00 31/10/2020
162 356900 ALEXANDRE MOISES MENDONCA E ARAUJO OFICIAL DO MP UBERABA - COMARCA; UBERABA-PJ-13PJ 1.100,00 0,00 450,00 0,00 0,00 0,00 0,00 0,00 0,00 31/10/2020
163 232100 ALEXANDRE MOTTA BENEVIDES PROMOT.ENTRANC.ESPECIAL BELO HORIZONTE - COMARCA; BH-12PJ JUIZO CRIMINAL-GAB 094PJ 1.100,00 0,00 2.217,28 0,00 13.475,64 0,00 0,00 0,00 514,69 31/10/2020
164 633300 ALEXANDRE NONATO MARTINS OFICIAL DO MP IGARAPÉ - COMARCA; IGARAPE-PJ-02PJ 1.100,00 0,00 450,00 0,00 0,00 0,00 0,00 0,00 0,00 31/10/2020
165 469900 ALEXANDRE PEREIRA GUEDES ANALISTA DO MP CATAGUASES - COMARCA; CATAGUASES-PJ-03PJ 1.100,00 0,00 450,00 0,00 0,00 0,00 0,00 0,00 0,00 31/10/2020
166 208700 ALEXANDRE RESENDE FRAGA ANALISTA DO MP BELO HORIZONTE - COMARCA; BH-19PJ SAUDE-SECRETARIA 130PJ 1.100,00 0,00 450,00 0,00 0,00 0,00 0,00 0,00 0,00 31/10/2020
167 156900 ALEXANDRE REZENDE GRILLO PROMOTOR 2A ENTRANCIA SÃO GONÇALO DO SAPUCAÍ - COMARCA; SAO GONCALO DO SAPUCAI-PJ-02PJ 1.100,00 0,00 2.686,32 0,00 42.672,86 0,00 0,00 0,00 488,96 31/10/2020
168 216401 ALEXANDRE RIBEIRO DE LIMA MAIORINO ANALISTA DO MP UBERABA - COMARCA; UBERABA-PJ-03PJ 1.100,00 0,00 450,00 0,00 0,00 0,00 0,00 0,00 0,00 31/10/2020
169 475100 ALEXANDRE TEOTONIO COSTA ANALISTA DO MP ARAGUARI - COMARCA; ARAGUARI-PJ-01PJ 1.100,00 0,00 450,00 0,00 0,00 0,00 0,00 0,00 0,00 31/10/2020
170 339000 ALEXANDRE VITOR CARDOSO OFICIAL DO MP BELO HORIZONTE - COMARCA; PROMOT ESTADUAL DE DEF PATRI CULT E TUR DE MG 1.100,00 0,00 450,00 0,00 0,00 0,00 0,00 0,00 0,00 31/10/2020
171 1088900 ALEXANDRE VITOR FONSECA ALVES ESTAGIARIO BELO HORIZONTE; BH-19PJ SAUDE-RECEPCAO 0,00 0,00 0,00 36,00 0,00 0,00 0,00 0,00 0,00 31/10/2020
172 678900 ALEXIA DUARTE TORRES ASSESSOR PROCURADOR JUSTICA BELO HORIZONTE - COMARCA; GABINETE DE PROCURADOR DE JUSTIÇA - SALA 502 1.100,00 0,00 450,00 0,00 0,00 0,00 0,00 0,00 0,00 31/10/2020
173 623100 ALEXSANDER BATISTA AGUIAR ANALISTA DO MP BELO HORIZONTE - COMARCA; DIRETORIA DE SUPORTE E MANUTENCAO 1.100,00 769,39 450,00 0,00 0,00 0,00 0,00 0,00 0,00 31/10/2020
174 1170300 ALEXSANDER MERCURY CASSEMIRO ALVES ESTAGIARIO BELO HORIZONTE; BH-09PJ AUDITORIA MILITAR-GAB 074PJ 0,00 0,00 0,00 63,00 0,00 0,00 0,00 0,00 0,00 31/10/2020
175 513300 ALFSON MIRANDA BRAGA ANALISTA DO MP BELO HORIZONTE - COMARCA; BH-12PJ JUIZO CRIMINAL-GAB 092PJ 1.100,00 0,00 450,00 0,00 0,00 0,00 0,00 0,00 0,00 31/10/2020
176 157000 ALI MAHMOUD FAYEZ AYOUB PROMOTOR 2A ENTRANCIA GUAXUPÉ - COMARCA; GUAXUPE-PJ-02PJ 1.100,00 0,00 2.686,32 0,00 42.672,86 0,00 0,00 0,00 488,96 31/10/2020
177 1178100 ALICE ARAUJO CAMPOS ESTAGIARIO PARACATU; PARACATU-PJ-04PJ 0,00 0,00 0,00 180,00 0,00 0,00 0,00 0,00 0,00 31/10/2020
178 485300 ALICE DE MELLO VILELA PROMOT.ENTRANC.ESPECIAL CONTAGEM - COMARCA; CONTAGEM-PJ-06PJ 1.100,00 0,00 852,80 0,00 5.614,85 0,00 0,00 0,00 514,69 31/10/2020
179 618400 ALICE MAGALHAES MACEDO DE CARVALHO ANALISTA DO MP IPATINGA - COMARCA; IPATINGA-PJ-10PJ 1.100,00 769,39 450,00 0,00 0,00 0,00 0,00 0,00 0,00 31/10/2020
180 882300 ALICE MARIA RIBEIRO DINIZ ESTAGIARIO BELO HORIZONTE; BH-13PJ JUIZO DE TOXICOS-GAB 149PJ 0,00 0,00 0,00 162,00 0,00 0,00 0,00 0,00 0,00 31/10/2020
181 1128600 ALICE OLIVEIRA BOTTARO ESTAGIARIO BELO HORIZONTE; PROMOT ESTADUAL DE DEF PATRI CULT E TUR DE MG
182 471000 ALICE TITONELI MOREIRA ANALISTA DO MP MIRADOURO - COMARCA; MIRADOURO-PJ-UNPJ 1.100,00 769,39 450,00 0,00 0,00 0,00 0,00 0,00 0,00 31/10/2020
183 1164000 ALINE APARECIDA CUSTODIO ESTAGIARIO SAO SEBASTIAO DO PARAISO; SAO SEBASTIAO DO PARAISO-PJ-01PJ 0,00 0,00 0,00 72,00 0,00 0,00 0,00 0,00 0,00 31/10/2020
184 1138500 ALINE ARAUJO GONCALVES DE SOUZA ESTAGIARIO BELO HORIZONTE; BH-25PJ DEFESA DA EDUCACAO-SECRETARIA 0,00 0,00 0,00 9,00 0,00 0,00 0,00 0,00 0,00 31/10/2020
185 622400 ALINE BALBINO PORTUGAL LOPES ANALISTA DO MP TRÊS PONTAS - COMARCA; TRES PONTAS-PJ-03PJ 1.100,00 769,39 450,00 0,00 0,00 0,00 0,00 0,00 0,00 31/10/2020
186 373000 ALINE BOTELHO RESENDE OFICIAL DO MP JUIZ DE FORA - COMARCA; JUIZ DE FORA-PJ-22PJ 1.100,00 0,00 450,00 0,00 0,00 0,00 0,00 0,00 0,00 31/10/2020
187 1036800 ALINE CRISTIANE MENDONCA GONCALVES ESTAGIARIO BELO HORIZONTE; PROC. JUSTICA DIR. DIFUSOS E COLETIVOS
188 929900 ALINE CRISTINA DE OLIVEIRA AMARAL BARBOSA ESTAGIARIO BELO HORIZONTE; CONSELHO SUPERIOR DO MINISTERIO PUBLICO 0,00 0,00 0,00 27,00 0,00 0,00 0,00 0,00 0,00 31/10/2020
189 407700 ALINE CRISTINA RODRIGUES PEREIRA COORDENADOR/ANALISTA BELO HORIZONTE - COMARCA; DIRETORIA DE PROJETOS DE EDIFICACOES 1.100,00 769,39 450,00 0,00 0,00 0,00 0,00 0,00 0,00 31/10/2020
190 193100 ALINE CRISTINA SENA OLIVEIRA OFICIAL DO MP UBERLÂNDIA - COMARCA; UBERLANDIA-PJ-03PJ 1.100,00 769,39 450,00 0,00 0,00 0,00 0,00 0,00 0,00 31/10/2020
191 554200 ALINE CRISTINA SILVA SOUZA OFICIAL DO MP TIROS - COMARCA; TIROS-PJ-UNPJ 1.100,00 0,00 450,00 0,00 0,00 0,00 0,00 0,00 0,00 31/10/2020
192 505500 ALINE DA CUNHA MARREIROS OLIVEIRA ANALISTA DO MP CARANGOLA - COMARCA; CARANGOLA-PJ-03PJ 1.100,00 769,39 450,00 0,00 0,00 0,00 0,00 0,00 0,00 31/10/2020
193 433500 ALINE DE MELO QUEIROZ ASSESSOR/OFICIAL BELO HORIZONTE - COMARCA; ASSESSORIA TECNICA DO PROCON-MG 1.100,00 769,39 450,00 0,00 0,00 0,00 0,00 0,00 -32,93 31/10/2020
194 935200 ALINE DE PAULA BRAGA ESTAGIARIO TRES PONTAS; TRES PONTAS-PJ-03PJ 0,00 0,00 0,00 18,00 0,00 0,00 0,00 0,00 0,00 31/10/2020
195 542700 ALINE DE SOUSA ALBINO ANALISTA DO MP CONTAGEM - COMARCA; CONTAGEM-PJ-03PJ 1.100,00 0,00 450,00 0,00 0,00 0,00 0,00 0,00 0,00 31/10/2020
196 330000 ALINE DIORIO MAYRINK OFICIAL DO MP BELO HORIZONTE - COMARCA; BH-18PJ DIREITOS HUMANOS-SECRETARIA 1.100,00 0,00 450,00 0,00 0,00 0,00 0,00 0,00 0,00 31/10/2020
197 499000 ALINE FERREIRA LOPES ANALISTA DO MP TEÓFILO OTONI - COMARCA; COORD. DE DEF. DO PAT. PUBLICO-JEQUIT./MUCURI 1.100,00 0,00 450,00 0,00 0,00 0,00 0,00 0,00 0,00 31/10/2020
198 925700 ALINE FREITAS FERREIRA ESTAGIARIO GOVERNADOR VALADARES; COORD REG DO MA DA BACIA DO RIO DOCE 0,00 0,00 0,00 99,00 0,00 0,00 0,00 0,00 0,00 31/10/2020
199 405300 ALINE LAIA CARDOZO DIRETOR/ANALISTA BELO HORIZONTE - COMARCA; SUPERINTENDENCIA LOGISTICA SERVICOS 1.100,00 0,00 450,00 0,00 0,00 0,00 0,00 0,00 -54,14 31/10/2020
200 974900 ALINE LUIZA DE OLIVEIRA LYRIO ESTAGIARIO BELO HORIZONTE; PROC. JUSTICA CRIMINAL 0,00 0,00 0,00 0,00 602,50 0,00 0,00 0,00 0,00 31/10/2020
201 278200 ALINE MARCIA FARIA BARBOSA FERNANDES OFICIAL DO MP BARBACENA - COMARCA; BARBACENA-PJ-SECRETARIA 1.100,00 0,00 450,00 0,00 0,00 0,00 0,00 0,00 0,00 31/10/2020
202 1091400 ALINE MARIA MARTINS SILVA ESTAGIARIO FORMIGA; FORMIGA-PJ-01PJ 0,00 0,00 0,00 162,00 0,00 0,00 0,00 0,00 0,00 31/10/2020
203 389000 ALINE NERI NOBRE ANALISTA DO MP MONTES CLAROS - COMARCA; COORD REG PJ DEF EDUC DIR CRIANCA ADOL NORTE 1.100,00 0,00 450,00 0,00 0,00 0,00 0,00 0,00 0,00 31/10/2020
204 1138600 ALINE OLIVEIRA DE FATIMA ESTAGIARIO PARACATU; GAECO REGIONAL DE PARACATU 0,00 0,00 0,00 180,00 0,00 0,00 0,00 0,00 0,00 31/10/2020
205 294600 ALINE PATRICIA SILVA VIEIRA OFICIAL DO MP UBERLÂNDIA - COMARCA; UBERLANDIA-PJ-03PJ 1.100,00 0,00 450,00 0,00 0,00 0,00 1.445,27 0,00 0,00 31/10/2020
206 420000 ALINE RODRIGUES CAMOROPIN ANALISTA DO MP SABARÁ - COMARCA; SABARA-PJ-02PJ 1.100,00 0,00 450,00 0,00 0,00 0,00 0,00 0,00 0,00 31/10/2020
207 408300 ALINE SILVA ARAUJO DE PAULA ANALISTA DO MP SÃO SEBASTIÃO DO PARAÍSO - COMARCA; SAO SEBASTIAO DO PARAISO-PJ-02PJ 1.100,00 769,39 450,00 0,00 0,00 0,00 0,00 0,00 0,00 31/10/2020
208 665900 ALINE SILVA BARROS PROMOTOR 2A ENTRANCIA SÃO FRANCISCO - COMARCA; SAO FRANCISCO-PJ-02PJ 1.100,00 0,00 703,56 0,00 13.068,57 0,00 0,00 0,00 620,09 31/10/2020
209 1182600 ALINE SILVA MONTOVANI ESTAGIARIO VARGINHA; VARGINHA-PJ-07PJ 0,00 0,00 0,00 90,00 0,00 0,00 0,00 0,00 0,00 31/10/2020
210 1138200 ALINE STEFANE DE OLIVEIRA ASSUNCAO ESTAGIARIO BELO HORIZONTE; BH-23PJ INFRACIONAL 0,00 0,00 0,00 72,00 0,00 0,00 0,00 0,00 0,00 31/10/2020
211 425400 ALINE TRINDADE DE FREITAS CAMPOS OFICIAL DO MP BELO HORIZONTE - COMARCA; BH-14PJ DEFESA CONSUMIDOR-SECRETARIA 1.100,00 0,00 450,00 0,00 0,00 0,00 0,00 0,00 0,00 31/10/2020
212 1111700 ALINI PEREIRA DE ALMEIDA ESTAGIARIO VICOSA; VICOSA-PJ-04PJ 0,00 0,00 0,00 180,00 0,00 0,00 0,00 0,00 0,00 31/10/2020
213 1077600 ALINY SANTOS ARRUDA ESTAGIARIO BELO HORIZONTE; BH-13PJ JUIZO DE TOXICOS-GAB 149PJ 0,00 0,00 0,00 162,00 0,00 0,00 0,00 0,00 0,00 31/10/2020
214 517200 ALISSOM PEREIRA DA SILVA ANALISTA DO MP BORDA DA MATA - COMARCA; BORDA DA MATA-PJ-UNPJ 1.100,00 0,00 450,00 0,00 0,00 0,00 0,00 0,00 0,00 31/10/2020
215 442400 ALISSON LABRE ANALISTA DO MP VARGINHA - COMARCA; VARGINHA-PJ-03PJ 1.100,00 769,39 450,00 0,00 0,00 0,00 0,00 0,00 635,29 31/10/2020
216 962100 ALISSON PATROCINIO DE OLIVEIRA ESTAGIARIO VARZEA DA PALMA; VARZEA DA PALMA-PJ-02PJ
217 992500 ALISSON VINICIUS IDELFONSO GOUVEA ESTAGIARIO NOVA LIMA; NOVA LIMA-PJ-04PJ 0,00 0,00 0,00 0,00 905,00 0,00 0,00 0,00 0,00 31/10/2020
218 643800 ALLAN PAUL FONSECA DE CASTRO ASSESSOR/OFICIAL CONTAGEM - COMARCA; CONTAGEM-PJ-SECRETARIA 1.100,00 1.000,21 450,00 0,00 0,00 0,00 0,00 0,00 0,00 31/10/2020
219 612900 ALLAN VINICIUS VIEIRA ARAUJO COORDENADOR/OFICIAL BELO HORIZONTE - COMARCA; DIVISAO TRANSPORTES 1.100,00 0,00 450,00 0,00 0,00 0,00 0,00 0,00 0,00 31/10/2020
220 1081200 ALLANA RODRIGUES DA CRUZ ESTAGIARIO PEDRA AZUL; PEDRA AZUL-PJ-01PJ 0,00 0,00 0,00 63,00 0,00 0,00 0,00 0,00 0,00 31/10/2020
221 349000 ALLEC RODRIGUES VIEIRA OFICIAL DO MP BELO HORIZONTE - COMARCA; EXTINTA-COORD EST DEF DIR FAM PES DEFIC IDOSO 1.100,00 0,00 450,00 0,00 0,00 0,00 0,00 0,00 0,00 31/10/2020
222 532400 ALLENDER BARRETO LIMA DA SILVA PROMOTOR 1A ENTRANCIA ABAETÉ - COMARCA; ABAETE-PJ-UNPJ 1.100,00 0,00 746,20 0,00 0,00 0,00 0,00 0,00 0,00 31/10/2020
223 297300 ALLYSON SALIBA MONTEIRO LAIZO ANALISTA DO MP CONSELHEIRO LAFAIETE - COMARCA; CONSELHEIRO LAFAIETE-PJ-03PJ 1.100,00 1.538,78 450,00 0,00 0,00 0,00 0,00 0,00 0,00 31/10/2020
224 68900 ALMIR ALVES MOREIRA PROCURADOR DE JUSTICA BELO HORIZONTE - COMARCA; GABINETE DE PROCURADOR DE JUSTIÇA - SALA 1012 1.100,00 0,00 2.451,80 0,00 23.641,48 0,00 0,00 0,00 541,78 31/10/2020
225 226601 ALMIR GERALDO GUIMARAES PROMOTOR 2A ENTRANCIA MATEUS LEME - COMARCA; MATEUS LEME-PJ-02PJ 1.100,00 0,00 2.132,00 0,00 12.801,86 0,00 0,00 0,00 488,96 31/10/2020
226 303700 ALMIR LOPES LOURES ANALISTA DO MP BELO HORIZONTE - COMARCA; CENTRAL DE APOIO TECN-SETOR DE MEIO AMBIENTE 1.100,00 0,00 450,00 0,00 0,00 0,00 0,00 0,00 0,00 31/10/2020
227 440700 ALOISIO CUNHA SOARES JUNIOR PROMOTOR 2A ENTRANCIA PATROCÍNIO - COMARCA; PATROCINIO-PJ-04PJ 1.100,00 0,00 1.876,16 0,00 29.871,01 0,00 0,00 0,00 488,96 31/10/2020
228 90600 ALOISIO RABELO DE REZENDE PROMOT.ENTRANC.ESPECIAL VARGINHA - COMARCA; VARGINHA-PJ-01PJ 1.100,00 0,00 2.665,00 0,00 13.475,64 0,00 0,00 0,00 514,69 31/10/2020
229 515900 ALTAIR NEVES JUNIOR OFICIAL DO MP BELO HORIZONTE - COMARCA; BH-01PJ FAZENDA PUBLICA-SECRETARIA 1.100,00 0,00 450,00 0,00 0,00 0,00 0,00 0,00 0,00 31/10/2020
230 290800 ALUISIA BERALDO RIBEIRO PROMOT.ENTRANC.ESPECIAL UBERLÂNDIA - COMARCA; UBERLANDIA-PJ-14PJ 1.100,00 0,00 1.321,84 0,00 13.475,64 0,00 0,00 0,00 514,69 31/10/2020
231 233300 ALVARINDO BATISTA ANALISTA DO MP BELO HORIZONTE - COMARCA; NUCLEO APOIO TECNICO ESP COMUNICACAO 1.100,00 769,39 450,00 0,00 0,00 0,00 0,00 0,00 0,00 31/10/2020
232 952300 ALVARO EPIFANIO GOMES JUNIOR ESTAGIARIO ITABIRA; ITABIRA-PJ-04PJ 0,00 0,00 0,00 153,00 0,00 0,00 0,00 0,00 0,00 31/10/2020
233 1171700 ALVIM JUNIO DE LIMA ESTAGIARIO BARBACENA; BARBACENA-PJ-02PJ 0,00 0,00 0,00 90,00 0,00 0,00 0,00 0,00 0,00 31/10/2020
234 1165500 ALYCE RAMALHO PRIMO ESTAGIARIO BELO HORIZONTE; PROC. JUSTICA DE HABEAS CORPUS
235 344400 ALYSSON CARDOZO CEMBRANEL PROMOT.ENTRANC.ESPECIAL BELO HORIZONTE - COMARCA; BH-PJ AUXILIAR-GAB 153PJ 1.100,00 0,00 1.556,36 0,00 13.756,38 0,00 0,00 0,00 652,72 31/10/2020
236 274100 ALYSSON CARVALHO VIDAL DE LACERDA OFICIAL DO MP MANHUAÇU - COMARCA; MANHUACU-PJ-01PJ 1.100,00 0,00 450,00 0,00 0,00 0,00 0,00 0,00 0,00 31/10/2020
237 680200 ALYSSON ROCHA OLIVEIRA ASSESSOR PROMOTOR JUSTICA CONSELHEIRO PENA - COMARCA; CONSELHEIRO PENA-PJ-01PJ 1.100,00 0,00 450,00 0,00 0,00 0,00 0,00 0,00 0,00 31/10/2020
238 1176600 AMANDA ANDREA IDENAGA CASTANHEIRA ESTAGIARIO FRUTAL; FRUTAL-PJ-05PJ 0,00 0,00 0,00 54,00 0,00 0,00 0,00 0,00 0,00 31/10/2020
239 621000 AMANDA BASTOS ALVES ANALISTA DO MP BELO HORIZONTE - COMARCA; ASSESS TECNICO-JUR JUNTO AS PROC. DE JUST 1.100,00 0,00 450,00 0,00 0,00 0,00 0,00 0,00 0,00 31/10/2020
240 1041500 AMANDA CALDEIRA DE OLIVEIRA ESTAGIARIO BELO HORIZONTE; SUPERINTENDÊNCIA DE ENGENHARIA E ARQUITETURA 0,00 0,00 0,00 54,00 0,00 0,00 0,00 0,00 0,00 31/10/2020
241 521700 AMANDA CRISTINA AGUIAR MACHADO OFICIAL DO MP CONGONHAS - COMARCA; CONGONHAS-PJ-01PJ 1.100,00 0,00 450,00 0,00 0,00 0,00 0,00 0,00 0,00 31/10/2020
242 1039800 AMANDA CRISTINA ALVES SANTOS ESTAGIARIO JOAO MONLEVADE; JOAO MONLEVADE-PJ-01PJ 0,00 0,00 0,00 135,00 0,00 0,00 0,00 0,00 0,00 31/10/2020
243 1162200 AMANDA CRISTINA DE CASTRO VIANA ESTAGIARIO BELO HORIZONTE; DIV FISCAL ADM CONT TERCEIRIZACAO
244 1086900 AMANDA CRISTINA FERREIRA DE SOUSA ESTAGIARIO VESPASIANO; VESPASIANO-PJ-06PJ 0,00 0,00 0,00 63,00 0,00 0,00 0,00 0,00 0,00 31/10/2020
245 613400 AMANDA DE ASSIS IUNES SANTOS ANALISTA DO MP CONGONHAS - COMARCA; CONGONHAS-PJ-01PJ 1.100,00 0,00 450,00 0,00 0,00 0,00 0,00 0,00 0,00 31/10/2020
246 520800 AMANDA DE SOUZA MACHADO ANALISTA DO MP BAEPENDI - COMARCA; BAEPENDI-PJ-UNPJ 1.100,00 0,00 450,00 0,00 0,00 0,00 0,00 0,00 0,00 31/10/2020
247 663900 AMANDA DENISE GONCALVES DA SILVA ASSESSOR BELO HORIZONTE - COMARCA; DIRET DE FORMACAO, APERFEIC. E POS-GRADUACAO 1.100,00 0,00 450,00 0,00 0,00 0,00 0,00 0,00 0,00 31/10/2020
248 1095700 AMANDA DOS SANTOS FERREIRA ESTAGIARIO MONTES CLAROS; MONTES CLAROS-PJ-14PJ 0,00 0,00 0,00 189,00 0,00 0,00 0,00 0,00 0,00 31/10/2020
249 928600 AMANDA DUTRA DE REZENDE ANTUNES ESTAGIARIO BELO HORIZONTE; BH-01PJ FAZENDA PUBLICA-GAB 008PJ
250 1086600 AMANDA EMERICK DA SILVA ESTAGIARIO MANHUMIRIM; MANHUMIRIM-PJ-01PJ 0,00 0,00 0,00 45,00 0,00 0,00 0,00 0,00 0,00 31/10/2020
251 1183300 AMANDA GABRIELA GONCALVES DE MIRANDA ESTAGIARIO BELO HORIZONTE; BH-02PJ FAMILIA 0,00 0,00 0,00 81,00 0,00 0,00 0,00 0,00 0,00 31/10/2020
252 1153000 AMANDA GIL DE SOUZA ESTAGIARIO MONTES CLAROS; MONTES CLAROS-PJ-09PJ 0,00 0,00 0,00 189,00 0,00 0,00 0,00 0,00 0,00 31/10/2020
253 1027600 AMANDA GOMES BARBOSA ESTAGIARIO VARGINHA; VARGINHA-PJ-06PJ 0,00 0,00 0,00 162,00 0,00 0,00 0,00 0,00 0,00 31/10/2020
254 1059400 AMANDA GONTIJO DE LACERDA ESTAGIARIO PATOS DE MINAS; PATOS DE MINAS-PJ-06PJ 0,00 0,00 0,00 54,00 0,00 0,00 0,00 0,00 0,00 31/10/2020
255 677000 AMANDA LETICIA MESSIAS PEGO ASSESSOR PROMOTOR JUSTICA SÃO JOÃO DA PONTE - COMARCA; SAO JOAO DA PONTE-PJ-SECRETARIA 1.100,00 0,00 450,00 0,00 0,00 0,00 0,00 0,00 0,00 31/10/2020
256 1166600 AMANDA LUIZA NUNES SOARES ESTAGIARIO BELO HORIZONTE; BH-18PJ VIOLENCIA DOMESTICA-GAB 053PJ 0,00 0,00 0,00 108,00 0,00 0,00 0,00 0,00 0,00 31/10/2020
257 1014500 AMANDA MACHADO SOUZA ESTAGIARIO PASSOS; PASSOS-PJ-06PJ 0,00 0,00 0,00 153,00 0,00 0,00 0,00 0,00 0,00 31/10/2020
258 1014600 AMANDA MAGALHAES DE CARVALHO E SILVA ESTAGIARIO BELO HORIZONTE; PROC. JUSTICA CIVEL
259 937900 AMANDA MARIA THOMAZ DE LIMA ESTAGIARIO SETE LAGOAS; SETE LAGOAS-PJ-10PJ 0,00 0,00 0,00 189,00 0,00 0,00 0,00 0,00 0,00 31/10/2020
260 666000 AMANDA MERLINI DUTRA OSIPE PROMOTOR SUBSTITUTO CATAGUASES - COMARCA; CATAGUASES-PJ-01PJ 1.100,00 0,00 1.407,12 0,00 12.161,76 0,00 0,00 0,00 464,51 31/10/2020
261 1157400 AMANDA MIQUELINO RIBEIRO ESTAGIARIO UBERABA; UBERABA-PJ-13PJ 0,00 0,00 0,00 63,00 0,00 0,00 0,00 0,00 0,00 31/10/2020
262 1076900 AMANDA PEREIRA MACEDO ESTAGIARIO UBERLANDIA; UBERLANDIA-PJ-07PJ 0,00 0,00 0,00 90,00 0,00 0,00 0,00 0,00 0,00 31/10/2020
263 1093100 AMANDA REGINA DE ALMEIDA E SILVA ESTAGIARIO JUIZ DE FORA; JUIZ DE FORA-PJ-02PJ
264 964800 AMANDA REIS DA SILVA ESTAGIARIO BELO HORIZONTE; BH-19PJ SAUDE-SECRETARIA 129PJ 0,00 0,00 0,00 54,00 0,00 0,00 0,00 0,00 0,00 31/10/2020
265 1071000 AMANDA SALIS LOTT ESTAGIARIO BELO HORIZONTE; BH-15PJ M AMB PAT HIST CULT-GAB 115PJ 0,00 0,00 0,00 54,00 0,00 0,00 0,00 0,00 0,00 31/10/2020
266 1100000 AMANDA SANTOS DIAS ESTAGIARIO ERVALIA; ERVALIA-PJ-UNPJ 0,00 0,00 0,00 180,00 0,00 0,00 0,00 0,00 0,00 31/10/2020
267 932700 AMANDA SILVA MAMEDE ESTAGIARIO UBERLANDIA; UBERLANDIA-PJ-10PJ 0,00 0,00 0,00 90,00 0,00 0,00 0,00 0,00 0,00 31/10/2020
268 951000 AMANDA TEIXEIRA IZIDORIO ESTAGIARIO RIO CASCA; RIO CASCA-PJ-UNPJ 0,00 0,00 0,00 144,00 0,00 0,00 0,00 0,00 0,00 31/10/2020
269 543100 AMANDA VIEIRA FREITAS BRESSANE ANALISTA DO MP VARGINHA - COMARCA; COORD REG DEF ORDEM ECON TRIB VARGINHA 1.100,00 0,00 450,00 0,00 0,00 0,00 0,00 0,00 0,00 31/10/2020
270 1024900 AMANDA XAVIER DA COSTA ESTAGIARIO JEQUERI; JEQUERI-PJ-UNPJ 0,00 0,00 0,00 171,00 0,00 0,00 0,00 0,00 0,00 31/10/2020
271 656701 AMARILDO ODILON REZENDE DE AGUIAR INVESTIGADOR DE POLICIA 2 BELO HORIZONTE - COMARCA; CAO-ORDEM ECONOMICA E TRIBUTARIA 1.100,00 0,00 0,00 0,00 0,00 0,00 0,00 0,00 0,00 31/10/2020
272 434400 AMARILIS ASSIS SIMAO CURCIO ANALISTA DO MP MANHUAÇU - COMARCA; MANHUACU-PJ-SECRETARIA 1.100,00 0,00 450,00 0,00 0,00 0,00 0,00 0,00 0,00 31/10/2020
273 74200 AMAURI ARTIMOS DA MATTA PROMOT.ENTRANC.ESPECIAL BELO HORIZONTE - COMARCA; PROCON-MG 1.100,00 0,00 2.345,20 0,00 13.475,64 0,00 0,00 0,00 514,69 31/10/2020
274 652000 AMAURI SILVA ALVES OFICIAL DO MP BELO HORIZONTE - COMARCA; BH-23PJ INFRACIONAL-SEC EXP 1.100,00 0,00 450,00 0,00 0,00 0,00 0,00 0,00 246,46 31/10/2020
275 273700 AMBROLINA CARNEIRO DE VASCONCELOS OFICIAL DO MP FRUTAL - COMARCA; FRUTAL-PJ-01PJ 1.100,00 0,00 450,00 0,00 0,00 0,00 0,00 0,00 0,00 31/10/2020
276 58000 AMELIA GUARIZE DE CASTRO OFICIAL DO MP JUIZ DE FORA - COMARCA; JUIZ DE FORA-PJ-SECRETARIA 1.100,00 0,00 450,00 0,00 0,00 0,00 0,00 0,00 0,00 31/10/2020
277 324301 AMERICA SUELI FERREIRA DA SILVA ANALISTA DO MP MONTE CARMELO - COMARCA; MONTE CARMELO-PJ-02PJ 1.100,00 769,39 450,00 0,00 0,00 0,00 0,00 0,00 0,00 31/10/2020
278 273300 AMUJACY DE BRITO ASSIZ OFICIAL DO MP BELO HORIZONTE - COMARCA; BH-12PJ JUIZO CRIMINAL-SECRETARIA 1.100,00 0,00 450,00 0,00 0,00 0,00 0,00 0,00 0,00 31/10/2020
279 482200 ANA ALICE LOPES ACHTSCHIN ANALISTA DO MP BELO HORIZONTE - COMARCA; PROC JUST RECURSOS ESP E EXTRAORD CRIMINAIS 1.100,00 0,00 450,00 0,00 0,00 0,00 0,00 0,00 0,00 31/10/2020
280 490400 ANA AMELIA PAULINO GARCIA OFICIAL DO MP CONTAGEM - COMARCA; CONTAGEM-PJ-SECRETARIA 1.100,00 0,00 450,00 0,00 0,00 0,00 0,00 0,00 0,00 31/10/2020
281 690400 ANA ANGELICA MOREIRA DA CUNHA ASSESSOR PROMOTOR JUSTICA TIMÓTEO - COMARCA; TIMOTEO-PJ-02PJ 1.250,00 0,00 900,00 0,00 0,00 0,00 0,00 0,00 718,77 31/10/2020
282 671300 ANA BARBARA CANEDO OLIVEIRA PROMOTOR SUBSTITUTO PARACATU - COMARCA; PARACATU-PJ-02PJ 1.100,00 0,00 703,56 0,00 0,00 0,00 0,00 0,00 0,00 31/10/2020
283 1128400 ANA BEATRIZ DE MELO FERNANDES ESTAGIARIO MESQUITA; MESQUITA-PJ-UNPJ 0,00 0,00 0,00 144,00 0,00 0,00 0,00 0,00 0,00 31/10/2020
284 1126700 ANA BEATRIZ DE SOUZA ARCANJO BASTOS ESTAGIARIO JOAO MONLEVADE; JOAO MONLEVADE-PJ-02PJ 0,00 0,00 0,00 189,00 0,00 0,00 0,00 0,00 0,00 31/10/2020
285 1161500 ANA BEATRIZ DIAS DE AZEVEDO ESTAGIARIO POUSO ALEGRE; POUSO ALEGRE-PJ-06PJ 0,00 0,00 0,00 36,00 0,00 0,00 0,00 0,00 0,00 31/10/2020
286 1018500 ANA BEATRIZ NAVES REIS ESTAGIARIO TRES CORACOES; TRES CORACOES-PJ-05PJ 0,00 0,00 0,00 72,00 0,00 0,00 0,00 0,00 0,00 31/10/2020
287 959600 ANA CARLA RODRIGUES DE SOUZA ESTAGIARIO AIURUOCA; AIURUOCA-PJ-UNPJ
288 1147800 ANA CAROLINA AFONSO OMENA ESTAGIARIO ITUIUTABA; ITUIUTABA-PJ-02PJ 0,00 0,00 0,00 180,00 0,00 0,00 0,00 0,00 0,00 31/10/2020
289 279100 ANA CAROLINA ARAUJO PEREIRA ANALISTA DO MP BELO HORIZONTE - COMARCA; DIRETORIA DE PROJETOS DE EDIFICACOES 1.100,00 0,00 450,00 0,00 0,00 0,00 0,00 0,00 0,00 31/10/2020
290 954400 ANA CAROLINA BATISTA PEREIRA ESTAGIARIO PATOS DE MINAS; PATOS DE MINAS-PJ-01PJ 0,00 0,00 0,00 189,00 0,00 0,00 0,00 0,00 0,00 31/10/2020
291 653300 ANA CAROLINA CYRNE DINIZ ASSESSOR BELO HORIZONTE - COMARCA; CENTRAL DE APOIO TECNICO-SETOR CONTABIL 1.100,00 0,00 450,00 0,00 0,00 0,00 0,00 0,00 0,00 31/10/2020
292 1165800 ANA CAROLINA DA COSTA ESTAGIARIO SAO JOAO EVANGELISTA; SAO JOAO EVANGELISTA-PJ-UNPJ 0,00 0,00 0,00 144,00 0,00 0,00 0,00 0,00 0,00 31/10/2020
293 1076100 ANA CAROLINA DALDEGAN COUTINHO ESTAGIARIO BELO HORIZONTE; GABINETE DE PROCURADOR DE JUSTIÇA - SALA 804 0,00 0,00 0,00 45,00 0,00 0,00 0,00 0,00 0,00 31/10/2020
294 359400 ANA CAROLINA DE ABREU FARIA ASSESSOR BELO HORIZONTE - COMARCA; SUPERINTENDÊNCIA DE ENGENHARIA E ARQUITETURA 1.100,00 0,00 450,00 0,00 0,00 0,00 0,00 0,00 0,00 31/10/2020
295 408500 ANA CAROLINA DE CASTRO CARVALHO ANALISTA DO MP BARBACENA - COMARCA; BARBACENA - SECRETARIA DAS PJS CRIMINAIS 1.100,00 0,00 450,00 0,00 0,00 0,00 0,00 0,00 1.067,20 31/10/2020
296 1032200 ANA CAROLINA DE MEDEIROS CHAVES FERZEM TAVARES ESTAGIARIO BELO HORIZONTE; OUVIDORIA DO MPMG
297 688000 ANA CAROLINA DE OLIVEIRA PINTO ASSESSOR PROCURADOR JUSTICA BELO HORIZONTE - COMARCA; GABINETE DE PROCURADOR DE JUSTIÇA - SALA 1014 1.500,00 0,00 900,00 0,00 0,00 0,00 0,00 0,00 2.395,91 31/10/2020
298 598900 ANA CAROLINA DUARTE DA SILVA INVESTIGADOR DE POLICIA 2 BELO HORIZONTE - COMARCA; PROC JUST ESP ACOES COMP ORIG CRIMINAL-SEC 1.100,00 0,00 0,00 0,00 0,00 0,00 0,00 0,00 0,00 31/10/2020
299 420200 ANA CAROLINA FERNANDES SILVA ANALISTA DO MP BELO HORIZONTE - COMARCA; GABINETE DE PROCURADOR DE JUSTIÇA - SALA 704 1.100,00 0,00 450,00 0,00 0,00 0,00 0,00 0,00 0,00 31/10/2020
300 522100 ANA CAROLINA FERNANDINO VIDAL PEREIRA SANTOS OFICIAL DO MP BELO HORIZONTE - COMARCA; SECRETARIA DO PROCON-MG 1.100,00 0,00 450,00 0,00 0,00 0,00 0,00 0,00 0,00 31/10/2020
301 244700 ANA CAROLINA GARCIA COSTA PROMOT.ENTRANC.ESPECIAL BELO HORIZONTE - COMARCA; BH-23PJ INFRACIONAL-GAB 147PJ 1.100,00 0,00 3.368,91 0,00 17.967,52 0,00 0,00 0,00 514,69 31/10/2020
302 502400 ANA CAROLINA GONCALVES FERNANDES ANALISTA DO MP IPATINGA - COMARCA; IPATINGA-PJ-01PJ 1.100,00 769,39 450,00 0,00 0,00 0,00 0,00 0,00 0,00 31/10/2020
303 529900 ANA CAROLINA GONCALVES PECANHA CHEQUER ANALISTA DO MP MANHUAÇU - COMARCA; MANHUACU-PJ-04PJ 1.100,00 1.872,18 450,00 0,00 0,00 0,00 0,00 0,00 0,00 31/10/2020
304 1106000 ANA CAROLINA LEITE CHAVES ESTAGIARIO BELO HORIZONTE; BH-18PJ DIREITOS HUMANOS-SECRETARIA
305 957300 ANA CAROLINA MARTINS DA SILVA ESTAGIARIO UBERLANDIA; UBERLANDIA-PJ-18PJ 0,00 0,00 0,00 81,00 0,00 0,00 0,00 0,00 0,00 31/10/2020
306 1137800 ANA CAROLINA MIRANDA DE MEIRELES MOUTINHO ESTAGIARIO SETE LAGOAS; SETE LAGOAS-PJ-05PJ 0,00 0,00 0,00 180,00 0,00 0,00 0,00 0,00 0,00 31/10/2020
307 431900 ANA CAROLINA MOTTA GUATIMOSIM ANALISTA DO MP BELO HORIZONTE - COMARCA; ASSESSORIA JURIDICO-ADMINISTRATIVA 1.100,00 769,39 450,00 0,00 0,00 0,00 0,00 0,00 0,00 31/10/2020
308 969900 ANA CAROLINA SILVA CAMPOS ESTAGIARIO 0,00 0,00 0,00 90,00 0,00 0,00 0,00 0,00 0,00 31/10/2020
309 1043500 ANA CAROLINA SILVEIRA PASSOS ESTAGIARIO DIAMANTINA; COORD REG BACIAS RIOS JEQUITINHONHA E MUCURI 0,00 0,00 0,00 99,00 0,00 0,00 0,00 0,00 0,00 31/10/2020
310 1111200 ANA CAROLINA SOARES CUNHA ESTAGIARIO SETE LAGOAS; SETE LAGOAS-PJ-09PJ 0,00 0,00 0,00 189,00 0,00 0,00 0,00 0,00 0,00 31/10/2020
311 490600 ANA CAROLINA XAVIER GODOY ANALISTA DO MP BELO HORIZONTE - COMARCA; ASSESS TECNICO-JUR JUNTO AS PROC. DE JUST 1.100,00 1.538,78 450,00 0,00 0,00 0,00 0,00 0,00 0,00 31/10/2020
312 313700 ANA CAROLINA ZAMBOM PINTO COELHO PROMOTOR 2A ENTRANCIA SABARÁ - COMARCA; SABARA-PJ-01PJ 1.100,00 0,00 1.279,20 0,00 12.801,86 0,00 0,00 0,00 488,96 31/10/2020
313 1188000 ANA CAROLINE DA CRUZ SILVA ESTAGIARIO CURVELO; CURVELO-PJ-04PJ 0,00 0,00 0,00 18,00 0,00 0,00 0,00 0,00 0,00 31/10/2020
314 1120600 ANA CAROLINE DE CASSIA COSTA ESTAGIARIO JOAO MONLEVADE; JOAO MONLEVADE-PJ-03PJ 0,00 0,00 0,00 180,00 0,00 0,00 0,00 0,00 0,00 31/10/2020
315 1142100 ANA CAROLINE FERRAZ CHAIB ESTAGIARIO CONCEICAO DO RIO VERDE; CONCEICAO DO RIO VERDE-PJ-UNPJ 0,00 0,00 0,00 189,00 0,00 0,00 0,00 0,00 0,00 31/10/2020
316 1074500 ANA CAROLINE MONTEIRO DE BARROS ESTAGIARIO IPATINGA; IPATINGA-PJ-10PJ 0,00 0,00 0,00 189,00 0,00 0,00 0,00 0,00 0,00 31/10/2020
317 600300 ANA CAROLINE PEREIRA DINIZ ANALISTA DO MP BELO HORIZONTE - COMARCA; PROC JUST ESP ACOES COMP ORIG CRIMINAL-SEC 1.100,00 769,39 450,00 0,00 0,00 0,00 0,00 0,00 0,00 31/10/2020
318 615800 ANA CAROLINE PEREIRA OLIVEIRA OFICIAL DO MP ALFENAS - COMARCA; ALFENAS-PJ-06PJ 1.100,00 0,00 450,00 0,00 0,00 0,00 0,00 0,00 0,00 31/10/2020
319 229202 ANA CECILIA JUNQUEIRA GOUVEA PROMOT.ENTRANC.ESPECIAL RIBEIRÃO DAS NEVES - COMARCA; RIBEIRAO DAS NEVES-PJ-08PJ 1.100,00 0,00 2.025,40 0,00 13.475,64 0,00 0,00 0,00 514,69 31/10/2020
320 980200 ANA CECILIA MACHADO FELIPE ESTAGIARIO GOVERNADOR VALADARES; GOVERNADOR VALADARES-PJ-02PJ 0,00 0,00 0,00 117,00 0,00 0,00 0,00 0,00 0,00 31/10/2020
321 324800 ANA CECILIA MENDES DA SILVA OFICIAL DO MP OURO FINO - COMARCA; OURO FINO-PJ-01PJ 1.100,00 0,00 450,00 0,00 0,00 0,00 0,00 0,00 0,00 31/10/2020
322 1162800 ANA CLARA BARBI LIMA ESTAGIARIO BELO HORIZONTE; PROC. JUSTICA CRIMINAL 0,00 0,00 0,00 144,00 0,00 0,00 0,00 0,00 0,00 31/10/2020
323 1178000 ANA CLARA CORDEIRO DUARTE NUNES ESTAGIARIO NOVA LIMA; NOVA LIMA-PJ-04PJ 0,00 0,00 0,00 126,00 0,00 0,00 0,00 0,00 0,00 31/10/2020
324 1092000 ANA CLARA DE SOUZA ESTAGIARIO BELO HORIZONTE; PROC. JUSTICA CIVEL
325 1154400 ANA CLARA DE SOUZA II ESTAGIARIO ARAXA; ARAXA-PJ-03PJ 0,00 0,00 0,00 90,00 0,00 0,00 0,00 0,00 0,00 31/10/2020
326 1045800 ANA CLARA GRECO VILLANI MARQUES ESTAGIARIO BELO HORIZONTE; PROC. JUSTICA CRIMINAL 0,00 0,00 0,00 45,00 0,00 0,00 0,00 0,00 0,00 31/10/2020
327 921200 ANA CLARA NAPOLIS DIAS ESTAGIARIO BELO HORIZONTE; CAO-MEIO AMBIENTE 0,00 0,00 0,00 0,00 1.285,33 0,00 0,00 0,00 0,00 31/10/2020
328 1165900 ANA CLARA PORTO REIS ESTAGIARIO PATROCINIO; PATROCINIO-PJ-01PJ 0,00 0,00 0,00 189,00 0,00 0,00 0,00 0,00 0,00 31/10/2020
329 1062800 ANA CLARA SANTOS ALMEIDA ESTAGIARIO SABINOPOLIS; SABINOPOLIS-PJ-UNPJ 0,00 0,00 0,00 135,00 0,00 0,00 0,00 0,00 0,00 31/10/2020
330 441300 ANA CLAUDIA ALKIMIM MIRANDA BOMTEMPO ANALISTA DO MP MONTES CLAROS - COMARCA; MONTES CLAROS-PJ-11PJ 1.100,00 0,00 450,00 0,00 0,00 0,00 0,00 0,00 0,00 31/10/2020
331 1068500 ANA CLAUDIA ALVES MACHADO ESTAGIARIO ITAUNA; ITAUNA-PJ-01PJ 0,00 0,00 0,00 72,00 0,00 0,00 0,00 0,00 0,00 31/10/2020
332 1156600 ANA CLAUDIA ALVIM SANTOS BERTOLI ESTAGIARIO JANAUBA; JANAUBA-PJ-01PJ 0,00 0,00 0,00 153,00 0,00 0,00 0,00 0,00 0,00 31/10/2020
333 642500 ANA CLAUDIA DA COSTA NAVES OFICIAL DO MP MONTE CARMELO - COMARCA; MONTE CARMELO-PJ-02PJ 1.100,00 769,39 450,00 0,00 0,00 0,00 0,00 0,00 0,00 31/10/2020
334 1149600 ANA CLAUDIA DE ALMEIDA FERREIRA ESTAGIARIO POCO FUNDO; POCO FUNDO-PJ-UNPJ 0,00 0,00 0,00 189,00 0,00 0,00 0,00 0,00 0,00 31/10/2020
335 1028100 ANA CLAUDIA FERNANDES MENDES ESTAGIARIO BRUMADINHO; BRUMADINHO-PJ-02PJ 0,00 0,00 0,00 180,00 0,00 0,00 0,00 0,00 0,00 31/10/2020
336 1166700 ANA CLAUDIA FERREIRA DA SILVA ESTAGIARIO BELO HORIZONTE; BH-16PJ HABITACAO E URBANISMO 0,00 0,00 0,00 90,00 0,00 0,00 0,00 0,00 0,00 31/10/2020
337 1110600 ANA CLAUDIA JUSTINO SILVA ESTAGIARIO IBIRITE; IBIRITE-PJ-02PJ
338 341500 ANA CLAUDIA LOPES PROMOT.ENTRANC.ESPECIAL BELO HORIZONTE - COMARCA; BH-07PJ 01 TRIBUNAL DO JURI-GAB 077PJ 1.100,00 0,00 895,44 0,00 13.475,64 0,00 0,00 0,00 514,69 31/10/2020
339 604900 ANA CLAUDIA OLIVEIRA DE MIRANDA OFICIAL DO MP PONTE NOVA - COMARCA; PONTE NOVA-PJ-04PJ 1.100,00 0,00 450,00 0,00 0,00 0,00 0,00 0,00 0,00 31/10/2020
340 1131000 ANA CLAUDIA OLIVEIRA PEREIRA ESTAGIARIO BELO HORIZONTE; PROMOT ESTADUAL DE DEF PATRI CULT E TUR DE MG 0,00 0,00 0,00 18,00 0,00 0,00 0,00 0,00 0,00 31/10/2020
341 1085500 ANA CLERIA DE OLIVEIRA SOUZA ESTAGIARIO GOVERNADOR VALADARES; GOVERNADOR VALADARES-PJ-13PJ 0,00 0,00 0,00 189,00 0,00 0,00 0,00 0,00 0,00 31/10/2020
342 379300 ANA CRISTINA ALVES FLAVIO ANALISTA DO MP SÃO GOTARDO - COMARCA; SAO GOTARDO-PJ-01PJ 1.100,00 769,39 450,00 0,00 0,00 0,00 0,00 0,00 0,00 31/10/2020
343 461200 ANA CRISTINA ALVES PASCHOAL ANALISTA DO MP SANTA LUZIA - COMARCA; SANTA LUZIA-PJ-03PJ 1.100,00 0,00 450,00 0,00 0,00 0,00 0,00 0,00 0,00 31/10/2020
344 514100 ANA CRISTINA ARAUJO ASSUNCAO ANALISTA DO MP BELO HORIZONTE - COMARCA; ASSESS JUR DO CONS SUPERIOR DO MINISTERIO PUB 1.100,00 769,39 450,00 0,00 0,00 0,00 0,00 0,00 0,00 31/10/2020
345 113400 ANA CRISTINA BRAGA ALBUQUERQUE ASSESSOR/ANALISTA BELO HORIZONTE - COMARCA; ASSESS ESP ADM E FINANCEIRA DO PGJ ADJ ADM 1.100,00 0,00 450,00 0,00 0,00 0,00 0,00 0,00 0,00 31/10/2020
346 233800 ANA CRISTINA BRAGA SOARES OFICIAL DO MP CONTAGEM - COMARCA; CONTAGEM-PJ-SECRETARIA 1.100,00 0,00 450,00 0,00 0,00 0,00 0,00 0,00 0,00 31/10/2020
347 186400 ANA CRISTINA DE AZEVEDO LOPES OFICIAL DO MP UBÁ - COMARCA; UBA-PJ-01PJ 1.100,00 0,00 450,00 0,00 0,00 0,00 0,00 0,00 0,00 31/10/2020
348 465100 ANA CRISTINA DE OLIVEIRA GUIMARAES ANALISTA DO MP ITAJUBA - COMARCA; ITAJUBA-PJ-05PJ 1.100,00 1.538,78 450,00 0,00 0,00 0,00 0,00 0,00 0,00 31/10/2020
349 1121200 ANA CRISTINA HENRIQUES ALVES ESTAGIARIO IGARAPE; IGARAPE-PJ-04PJ 0,00 0,00 0,00 108,00 0,00 0,00 0,00 0,00 0,00 31/10/2020
350 500600 ANA CRISTINA LATADO SUDARIO ANALISTA DO MP UBERLÂNDIA - COMARCA; UBERLANDIA-PJ-09PJ 1.100,00 0,00 450,00 0,00 0,00 0,00 0,00 0,00 0,00 31/10/2020
351 331400 ANA CRISTINA RIBEIRO ALVES OFICIAL DO MP BAMBUÍ - COMARCA; BAMBUI-PJ-UNPJ 1.100,00 0,00 450,00 0,00 0,00 0,00 0,00 0,00 633,45 31/10/2020
352 1021500 ANA CRISTINA SILVEIRA BATISTA ESTAGIARIO CONTAGEM; CONTAGEM-PJ-23PJ 0,00 0,00 0,00 18,00 0,00 0,00 0,00 0,00 0,00 31/10/2020
353 249300 ANA ELOINA MARTINS OFICIAL DO MP BETIM - COMARCA; BETIM-PJ-02PJ 1.100,00 0,00 450,00 0,00 0,00 0,00 0,00 0,00 0,00 31/10/2020
354 611500 ANA FLAVIA AFONSO DRUMOND AMORIM PROMOTOR 2A ENTRANCIA PIRAPORA - COMARCA; PIRAPORA-PJ-02PJ 1.100,00 0,00 0,00 0,00 0,00 0,00 0,00 0,00 0,00 31/10/2020
355 257400 ANA FLAVIA CAMBRAIA ANALISTA DO MP BELO HORIZONTE - COMARCA; BH-19PJ SAUDE-SECRETARIA 150PJ 1.100,00 0,00 450,00 0,00 0,00 0,00 0,00 0,00 0,00 31/10/2020
356 1066000 ANA FLAVIA CARDOSO DE ABREU ESTAGIARIO BELO HORIZONTE; CENTRAL DE APOIO TECNICO-SETOR CONTABIL
357 248201 ANA FLAVIA DE MORAIS SOUZA ANALISTA DO MP DIVINÓPOLIS - COMARCA; DIVINOPOLIS-PJ-01PJ 1.100,00 769,39 450,00 0,00 0,00 0,00 0,00 0,00 0,00 31/10/2020
358 887100 ANA FLAVIA DE PAULA SADDI TAVORA ESTAGIARIO UBERLANDIA; UBERLANDIA-PJ-01PJ 0,00 0,00 0,00 126,00 0,00 0,00 0,00 0,00 0,00 31/10/2020
359 621100 ANA FLAVIA DINIZ TEODORO OFICIAL DO MP SANTA LUZIA - COMARCA; SANTA LUZIA-PJ-06PJ 1.100,00 0,00 450,00 0,00 0,00 0,00 0,00 0,00 0,00 31/10/2020
360 1137900 ANA FLAVIA FIGUEIREDO SALOMAO ESTAGIARIO TEOFILO OTONI; TEOFILO OTONI-PJ-08PJ 0,00 0,00 0,00 189,00 0,00 0,00 0,00 0,00 0,00 31/10/2020
361 238600 ANA FLAVIA FRANCO OFICIAL DO MP BELO HORIZONTE - COMARCA; DIRETORIA DE PESSOAL ADMINISTRATIVO - DPAD 1.100,00 0,00 450,00 0,00 0,00 0,00 0,00 0,00 0,00 31/10/2020
362 1123700 ANA FLAVIA GRACIELE GUIMARAES PAIVA ESTAGIARIO SANTA LUZIA; SANTA LUZIA-PJ-01PJ 0,00 0,00 0,00 54,00 0,00 0,00 0,00 0,00 0,00 31/10/2020
363 690000 ANA FLAVIA LURIAN DE PAIVA ASSESSOR PROCURADOR JUSTICA BELO HORIZONTE - COMARCA; GABINETE DE PROCURADOR DE JUSTIÇA - SALA 609 1.500,00 0,00 900,00 0,00 0,00 0,00 0,00 0,00 2.395,91 31/10/2020
364 1032100 ANA FLAVIA PEREIRA ESTAGIARIO BELO HORIZONTE; PROC JUST RECURSOS ESP E EXTRAORD CRIMINAIS 0,00 0,00 0,00 18,00 0,00 0,00 0,00 0,00 0,00 31/10/2020
365 402900 ANA FLAVIA PORTES DE CARVALHO ANALISTA DO MP BELO HORIZONTE - COMARCA; DIRET DE PLANOS PROJETOS E PROGRAMAS INST 1.100,00 0,00 450,00 0,00 0,00 0,00 0,00 0,00 0,00 31/10/2020
366 1023800 ANA FLAVIA RIBEIRO PEREIRA ESTAGIARIO CURVELO; CURVELO-PJ-02PJ 0,00 0,00 0,00 99,00 0,00 0,00 0,00 0,00 0,00 31/10/2020
367 1070200 ANA FLAVIA VALLADAO FERREIRA ESTAGIARIO BELO HORIZONTE; PROCURADORIA DE JUSTIÇA DE DIREITOS DIFUSOS E 0,00 0,00 0,00 144,00 0,00 0,00 0,00 0,00 0,00 31/10/2020
368 526300 ANA GABRIELA BRITO MELO ROCHA PROMOTOR 2A ENTRANCIA TRÊS PONTAS - COMARCA; TRES PONTAS-PJ-03PJ 1.100,00 0,00 1.492,40 0,00 12.801,86 0,00 0,00 0,00 488,96 31/10/2020
369 927500 ANA JESSICA SILVA ESTAGIARIO UBERABA; UBERABA-PJ-15PJ 0,00 0,00 0,00 99,00 0,00 0,00 0,00 0,00 0,00 31/10/2020
370 1172400 ANA JULIA DE VILHENA ESTAGIARIO IBIRACI; IBIRACI-PJ-UNPJ 0,00 0,00 0,00 171,00 0,00 0,00 0,00 0,00 0,00 31/10/2020
371 1135300 ANA JULIA DIXINI CARVALHO ESTAGIARIO TRES PONTAS; TRES PONTAS-PJ-03PJ 0,00 0,00 0,00 180,00 0,00 0,00 0,00 0,00 0,00 31/10/2020
372 382700 ANA KARENINA SALDANHA GONTIJO ANALISTA DO MP BELO HORIZONTE - COMARCA; ASSESS TECNICO-JUR JUNTO AS PROC. DE JUST 1.100,00 769,39 450,00 0,00 0,00 0,00 0,00 0,00 0,00 31/10/2020
373 620500 ANA KARINE DE ANDRADE OLIVEIRA ANALISTA DO MP RIBEIRÃO DAS NEVES - COMARCA; SEC PJ EXECUCAO PENAL RIBEIRAO NEVES 1.100,00 0,00 450,00 0,00 0,00 0,00 0,00 0,00 0,00 31/10/2020
374 1088800 ANA KAROLINE DOS SANTOS ESTAGIARIO JANAUBA; JANAUBA-PJ-03PJ 0,00 0,00 0,00 189,00 0,00 0,00 0,00 0,00 0,00 31/10/2020
375 952400 ANA LARA PEREIRA DAMACENO ESTAGIARIO 0,00 0,00 0,00 144,00 0,00 0,00 0,00 0,00 0,00 31/10/2020
376 1103900 ANA LAURA DE FARIA LIMA ESTAGIARIO PARA DE MINAS; PARA DE MINAS-PJ-04PJ 0,00 0,00 0,00 189,00 0,00 0,00 0,00 0,00 0,00 31/10/2020
377 970300 ANA LAURA DRUMOND ESTAGIARIO BELO HORIZONTE; PROC. JUSTICA DIR. DIFUSOS E COLETIVOS
378 1055000 ANA LAURA FREITAS MARTINS ESTAGIARIO SETE LAGOAS; SETE LAGOAS-PJ-01PJ 0,00 0,00 0,00 72,00 0,00 0,00 0,00 0,00 0,00 31/10/2020
379 994400 ANA LAURA NEVES CERQUEIRA ESTAGIARIO BELO HORIZONTE; BH-12PJ JUIZO CRIMINAL-GAB 108PJ 0,00 0,00 0,00 189,00 0,00 0,00 0,00 0,00 30,17 31/10/2020
380 1174700 ANA LAURA PEREIRA DIAS ESTAGIARIO DIAMANTINA; DIAMANTINA-PJ-01PJ 0,00 0,00 0,00 117,00 0,00 0,00 0,00 0,00 0,00 31/10/2020
381 57400 ANA LEIA SALOMAO E RIBEIRO PROMOT.ENTRANC.ESPECIAL JUIZ DE FORA - COMARCA; JUIZ DE FORA-PJ-02PJ 1.100,00 0,00 1.279,20 0,00 13.475,64 0,00 0,00 0,00 514,69 31/10/2020
382 224300 ANA LETICIA MARTINS DE SOUZA PROMOT.ENTRANC.ESPECIAL CONTAGEM - COMARCA; CONTAGEM-PJ-13PJ 1.100,00 0,00 0,00 0,00 0,00 0,00 0,00 0,00 0,00 31/10/2020
383 1034000 ANA LIVIA DE FREITAS SILVA ESTAGIARIO PARAOPEBA; PARAOPEBA-PJ-UNPJ 0,00 0,00 0,00 189,00 0,00 0,00 0,00 0,00 0,00 31/10/2020
384 1174300 ANA LIVIA GOMES VIEIRA ESTAGIARIO BELO HORIZONTE; BH-23PJ CIVEL 0,00 0,00 0,00 54,00 0,00 0,00 0,00 0,00 0,00 31/10/2020
385 462200 ANA LUCIA ANDRADE TOMICH OTTONI ANALISTA DO MP TEÓFILO OTONI - COMARCA; TEOFILO OTONI-PJ-07PJ 1.100,00 0,00 450,00 0,00 0,00 0,00 0,00 0,00 0,00 31/10/2020
386 504100 ANA LUCIA CATAO DE CARVALHO OFICIAL DO MP BELO HORIZONTE - COMARCA; BH-09PJ AUDITORIA MILITAR-SECRETARIA 1.100,00 769,39 450,00 0,00 0,00 0,00 0,00 0,00 0,00 31/10/2020
387 274700 ANA LUCIA DE ALENCAR BRAGATO OFICIAL DO MP UBERABA - COMARCA; UBERABA-PJ-07PJ 1.100,00 0,00 450,00 0,00 0,00 0,00 0,00 0,00 0,00 31/10/2020
388 509400 ANA LUCIA DORNELAS MALLOSTO ANALISTA DO MP JUIZ DE FORA - COMARCA; JUIZ DE FORA-PJ-25PJ 1.100,00 0,00 450,00 0,00 0,00 0,00 0,00 0,00 0,00 31/10/2020
389 114600 ANA LUCIA JUNQUEIRA MUZZI CAVALIERI PROMOT.ENTRANC.ESPECIAL JUIZ DE FORA - COMARCA; JUIZ DE FORA-PJ-12PJ 1.100,00 0,00 2.686,32 0,00 8.983,76 0,00 0,00 0,00 0,00 31/10/2020
390 302600 ANA LUCIA LOPES SANTOS OFICIAL DO MP BELO HORIZONTE - COMARCA; DIVISÃO DE FISCALIZAÇÃO DAS RELAÇÕES DE CONSU 1.100,00 0,00 450,00 0,00 0,00 0,00 1.445,27 0,00 0,00 31/10/2020
391 666200 ANA LUCIA SAYURI WATANABE PROMOTOR SUBSTITUTO SANTA RITA DO SAPUCAÍ - COMARCA; SANTA RITA DO SAPUCAI-PJ-01PJ 1.100,00 0,00 1.407,12 0,00 12.161,76 0,00 0,00 0,00 464,51 31/10/2020
392 1030200 ANA LUISA ARAUJO MORAIS ESTAGIARIO CAMPO BELO; CAMPO BELO-PJ-03PJ 0,00 0,00 0,00 162,00 0,00 0,00 0,00 0,00 0,00 31/10/2020
393 1103200 ANA LUISA DE LANA COELHO ESTAGIARIO BELO HORIZONTE; GABINETE DE PROCURADOR DE JUSTIÇA - SALA 715
394 921300 ANA LUISA GOMES ASSIS ESTAGIARIO VARZEA DA PALMA; VARZEA DA PALMA-PJ-02PJ
395 493400 ANA LUISA NOGUEIRA MOREIRA ANALISTA DO MP BELO HORIZONTE - COMARCA; BH-19PJ SAUDE-SECRETARIA 130PJ 1.100,00 0,00 450,00 0,00 4.430,63 0,00 0,00 0,00 406,14 31/10/2020
396 389300 ANA LUISA REUTER LIMA ANALISTA DO MP BELO HORIZONTE - COMARCA; DIRETORIA DE SISTEMAS DE INFORMACAO 1.100,00 0,00 450,00 0,00 0,00 0,00 0,00 0,00 0,00 31/10/2020
397 1112300 ANA LUISA RODRIGUES DUARTE ESTAGIARIO BELO HORIZONTE; EXTINTA-COORD EST DEF DIR FAM PES DEFIC IDOSO 0,00 0,00 0,00 18,00 0,00 0,00 0,00 0,00 0,00 31/10/2020
398 1141900 ANA LUISA SOUSA GUIMARAES ESTAGIARIO UBERABA; UBERABA-PJ-10PJ 0,00 0,00 0,00 72,00 0,00 0,00 0,00 0,00 0,00 31/10/2020
399 1089000 ANA LUIZA ALESSI FERREIRA DE CARVALHO ESTAGIARIO BELO HORIZONTE; PROC. JUSTICA CRIMINAL 0,00 0,00 0,00 135,00 0,00 0,00 0,00 0,00 0,00 31/10/2020
400 947900 ANA LUIZA BRANDAO DE AGUIAR VILACA ESTAGIARIO DIVINOPOLIS; COORD REG DO MA DA BACIA DO ALTO SAO FRANC 0,00 0,00 0,00 117,00 0,00 0,00 0,00 0,00 0,00 31/10/2020
401 441100 ANA LUIZA DA COSTA E CRUZ PROMOTOR SUBSTITUTO BETIM - COMARCA; BETIM-PJ-08PJ 1.100,00 0,00 1.975,44 0,00 12.161,76 0,00 0,00 0,00 464,51 31/10/2020
402 161000 ANA LUIZA DE ABREU MOREIRA PROMOT.ENTRANC.ESPECIAL BELO HORIZONTE - COMARCA; BH-03PJ EMPRESARIAL-GAB 037PJ 1.100,00 0,00 0,00 0,00 13.475,64 0,00 0,00 0,00 514,69 31/10/2020
403 1108900 ANA LUIZA DE OLIVEIRA REIS ESTAGIARIO SABARA; SABARA-PJ-03PJ 0,00 0,00 0,00 171,00 0,00 0,00 0,00 0,00 0,00 31/10/2020
404 480600 ANA LUIZA FERNANDES FRAGA E GRECO OFICIAL DO MP BELO HORIZONTE - COMARCA; BH-23PJ CIVEL-SEC EXP CIVEIS 1.100,00 0,00 450,00 0,00 0,00 0,00 0,00 0,00 0,00 31/10/2020
405 1133300 ANA LUIZA FERREIRA VAZ ESTAGIARIO DIVINOPOLIS; DIVINOPOLIS-PJ-12PJ 0,00 0,00 0,00 27,00 0,00 0,00 0,00 0,00 0,00 31/10/2020
406 1154800 ANA LUIZA GIORNI NOCCHI ESTAGIARIO BELO HORIZONTE; PROC. JUSTICA CIVEL 0,00 0,00 0,00 18,00 0,00 0,00 0,00 0,00 0,00 31/10/2020
407 914300 ANA LUIZA GOMES PEREIRA ESTAGIARIO BELO HORIZONTE; SECRETARIA EXECUTIVA DA OUVIDORIA 0,00 0,00 0,00 36,00 0,00 0,00 0,00 0,00 0,00 31/10/2020
408 685400 ANA LUIZA HENRIQUES BERGER MACHADO PROMOTOR SUBSTITUTO BELO HORIZONTE - COMARCA; CENTRO DE ESTUDOS E APERFEICOAMENTO FUNCIONAL 1.100,00 0,00 1.157,47 0,00 0,00 0,00 0,00 0,00 0,00 31/10/2020
409 924200 ANA LUIZA LARES DO MONTE ESTAGIARIO TEOFILO OTONI; TEOFILO OTONI-PJ-02PJ 0,00 0,00 0,00 189,00 0,00 0,00 0,00 0,00 0,00 31/10/2020
410 996700 ANA LUIZA MELO MACIEL ESTAGIARIO BELO HORIZONTE; BH-07PJ 01 TRIBUNAL DO JURI-GAB 059PJ 0,00 0,00 0,00 9,00 0,00 0,00 0,00 0,00 0,00 31/10/2020
411 1000700 ANA LUIZA MOREIRA ABREU ESTAGIARIO BELO HORIZONTE; BH-12PJ JUIZO CRIMINAL-GAB 087PJ 0,00 0,00 0,00 144,00 0,00 0,00 0,00 0,00 0,00 31/10/2020
412 1145200 ANA LUIZA SILVA FIDELIS ESTAGIARIO VISCONDE DO RIO BRANCO; VISCONDE DO RIO BRANCO-PJ-02PJ 0,00 0,00 0,00 90,00 0,00 0,00 0,00 0,00 0,00 31/10/2020
413 1055200 ANA LUIZA SILVA PEREIRA CRUZ ESTAGIARIO 0,00 0,00 0,00 171,00 0,00 0,00 0,00 0,00 0,00 31/10/2020
414 1021000 ANA LUIZA SILVA SANTIAGO ESTAGIARIO BELO HORIZONTE; CAO-CRIMINAL-GABINETES 0,00 0,00 0,00 63,00 0,00 0,00 0,00 0,00 0,00 31/10/2020
415 1171500 ANA LUIZA TEIXEIRA CUNHA ESTAGIARIO FRUTAL; FRUTAL-PJ-05PJ 0,00 0,00 0,00 180,00 0,00 0,00 0,00 0,00 0,00 31/10/2020
416 481400 ANA MARCIA CANDIDA FERREIRA OFICIAL DO MP BRUMADINHO - COMARCA; BRUMADINHO-PJ-02PJ 1.100,00 0,00 450,00 0,00 0,00 0,00 0,00 0,00 371,46 31/10/2020
417 114700 ANA MARIA CAMILO DA HORA E ROCHA PROMOT.ENTRANC.ESPECIAL MONTES CLAROS - COMARCA; MONTES CLAROS-PJ-05PJ 1.100,00 0,00 2.771,60 0,00 13.475,64 0,00 0,00 0,00 514,69 31/10/2020
418 643100 ANA MARIA LOPES MIRANDA ANALISTA DO MP BELO HORIZONTE - COMARCA; CAO-FUNDACOES 1.100,00 0,00 450,00 0,00 0,00 0,00 0,00 0,00 0,00 31/10/2020
419 556400 ANA MARIA OLIVEIRA SOUZA OFICIAL DO MP ITAPECERICA - COMARCA; ITAPECERICA-PJ-UNPJ 1.100,00 0,00 450,00 0,00 0,00 0,00 0,00 0,00 345,37 31/10/2020
420 409600 ANA OLIVIA FARIA ROSENBURG ANALISTA DO MP BELO HORIZONTE - COMARCA; DIRETORIA DO COLEGIO E DA CAMARA DE PJ 1.100,00 0,00 450,00 0,00 0,00 0,00 0,00 0,00 0,00 31/10/2020
421 461500 ANA PAULA ALVES CARVALHO ANALISTA DO MP UBERLÂNDIA - COMARCA; UBERLANDIA-PJ-25PJ 1.100,00 769,39 450,00 0,00 0,00 0,00 0,00 0,00 0,00 31/10/2020
422 523200 ANA PAULA ALVES DA SILVA OFICIAL DO MP GOVERNADOR VALADARES - COMARCA; GOVERNADOR VALADARES-PJ-10PJ 1.100,00 3.076,47 450,00 0,00 0,00 0,00 0,00 0,00 0,00 31/10/2020
423 381200 ANA PAULA BARROS PEREIRA RIGHI ANALISTA DO MP BELO HORIZONTE - COMARCA; PROC JUST RECURSOS ESP E EXTRAORD CRIMINAIS 1.100,00 769,39 450,00 0,00 0,00 0,00 0,00 0,00 0,00 31/10/2020
424 1081000 ANA PAULA BORGES MOREIRA ESTAGIARIO POUSO ALEGRE; POUSO ALEGRE-PJ-05PJ 0,00 0,00 0,00 99,00 0,00 0,00 0,00 0,00 0,00 31/10/2020
425 942700 ANA PAULA BORGES SANTOS ESTAGIARIO ITAUNA; ITAUNA-PJ-03PJ 0,00 0,00 0,00 144,00 0,00 0,00 0,00 0,00 0,00 31/10/2020
426 227200 ANA PAULA DA SILVA CAMPOLINA ANALISTA DO MP BELO HORIZONTE - COMARCA; DIRETORIA DE ORCAMENTO-DIOR/SPC 1.100,00 0,00 450,00 0,00 0,00 0,00 0,00 0,00 0,00 31/10/2020
427 1114000 ANA PAULA DE OLIVEIRA SANTOS ESTAGIARIO ARAGUARI; ARAGUARI-PJ-07PJ 0,00 0,00 0,00 99,00 0,00 0,00 0,00 0,00 0,00 31/10/2020
428 84200 ANA PAULA DE SOUZA ROCHA OFICIAL DO MP BELO HORIZONTE - COMARCA; DIRETORIA DE CONTABILIDADE 1.100,00 0,00 450,00 0,00 0,00 0,00 0,00 0,00 0,00 31/10/2020
429 278500 ANA PAULA DIAS CAPANEMA OFICIAL DO MP BELO HORIZONTE - COMARCA; DIRETORIA DE SEGURANCA 1.100,00 0,00 450,00 0,00 0,00 0,00 0,00 0,00 0,00 31/10/2020
430 1158900 ANA PAULA FONSECA ANDRADE ESTAGIARIO BELO HORIZONTE; CENTRAL DE APOIO TECNICO-SETOR DE ENGENHARIA
431 327300 ANA PAULA GARCIA MAXIMO OFICIAL DO MP UNAÍ - COMARCA; UNAI-PJ-01PJ 1.100,00 0,00 450,00 0,00 0,00 0,00 0,00 0,00 0,00 31/10/2020
432 1027400 ANA PAULA GOMES MIRANDA ESTAGIARIO BELO HORIZONTE; BH-12PJ JUIZO CRIMINAL-GAB 092PJ 0,00 0,00 0,00 180,00 0,00 0,00 0,00 0,00 0,00 31/10/2020
433 270000 ANA PAULA GOULART CRUZ DE MAGALHAES ANALISTA DO MP BELO HORIZONTE - COMARCA; PROC JUST ESP ACOES COMP ORIG CRIMINAL-ASSESS 1.100,00 0,00 450,00 0,00 0,00 0,00 0,00 0,00 0,00 31/10/2020
434 262100 ANA PAULA KOMATSUZAKI ABIJAUDI ANALISTA DO MP BELO HORIZONTE - COMARCA; BH-17PJ PATRIMONIO PUBLICO-SECRETARIA 1.100,00 0,00 450,00 0,00 0,00 0,00 0,00 0,00 0,00 31/10/2020
435 1079700 ANA PAULA LEITE MOREIRA ESTAGIARIO MANHUACU; MANHUACU-PJ-04PJ 0,00 0,00 0,00 189,00 0,00 0,00 0,00 0,00 0,00 31/10/2020
436 671400 ANA PAULA LIMA DA SILVA PROMOTOR SUBSTITUTO CARATINGA - COMARCA; CARATINGA-PJ-05PJ 1.100,00 0,00 703,56 0,00 0,00 0,00 0,00 0,00 0,00 31/10/2020
437 222600 ANA PAULA LOURENCO DE PAULA PROMOTOR 2A ENTRANCIA ITUIUTABA - COMARCA; ITUIUTABA-PJ-03PJ 1.100,00 0,00 2.643,68 0,00 12.801,86 0,00 0,00 0,00 488,96 31/10/2020
438 106200 ANA PAULA MENDES RODRIGUES PROCURADOR DE JUSTICA BELO HORIZONTE - COMARCA; PROC JUSTICA DIR DIFUSOS E COLETIVOS-GAB007 1.100,00 0,00 980,72 0,00 0,00 0,00 0,00 0,00 0,00 31/10/2020
439 1065000 ANA PAULA MINARINI DA SILVA ESTAGIARIO CATAGUASES; CATAGUASES-PJ-01PJ
440 278900 ANA PAULA MOREIRA GURGEL ANALISTA DO MP BELO HORIZONTE - COMARCA; DIRETORIA-GERAL 1.100,00 0,00 450,00 0,00 0,00 0,00 0,00 0,00 0,00 31/10/2020
441 1082100 ANA PAULA NOBRE PEREIRA ESTAGIARIO 0,00 0,00 0,00 189,00 0,00 0,00 0,00 0,00 0,00 31/10/2020
442 940200 ANA PAULA PACHECO DA SILVA ARAUJO ESTAGIARIO BELO HORIZONTE; BH-12PJ JUIZO CRIMINAL-GAB 102PJ 0,00 0,00 0,00 117,00 0,00 0,00 0,00 0,00 0,00 31/10/2020
443 1185200 ANA PAULA QUINTELA PENA LOPES ESTAGIARIO CARATINGA; CARATINGA-PJ-07PJ 0,00 0,00 0,00 54,00 0,00 0,00 0,00 0,00 0,00 31/10/2020
444 484400 ANA PAULA RESENDE DORNELLAS DE AZEVEDO PROMOTOR SUBSTITUTO LAGOA SANTA - COMARCA; LAGOA SANTA-PJ-01PJ 1.100,00 0,00 2.844,00 0,00 12.161,76 0,00 0,00 0,00 464,51 31/10/2020
445 425701 ANA PAULA ROCHA ANALISTA DO MP BELO HORIZONTE - COMARCA; ASSESSORIA DE COMUNICACAO INTEGRADA 1.100,00 769,39 450,00 0,00 0,00 0,00 0,00 0,00 0,00 31/10/2020
446 395601 ANA PAULA SALGE OLIVEIRA ANALISTA DO MP UBERABA - COMARCA; COORD REG PP TRIANGULO MINEIRO UBERABA 1.100,00 0,00 450,00 0,00 0,00 0,00 0,00 0,00 0,00 31/10/2020
447 1150000 ANA PAULA SANTIAGO TEIXEIRA SANTOS ESTAGIARIO GUANHAES; GUANHAES-PJ-02PJ 0,00 0,00 0,00 81,00 0,00 0,00 0,00 0,00 0,00 31/10/2020
448 473200 ANA PAULA SCOTTON BRASIL ANALISTA DO MP JUIZ DE FORA - COMARCA; JUIZ DE FORA-PJ-07PJ 1.100,00 769,39 450,00 0,00 0,00 0,00 0,00 0,00 0,00 31/10/2020
449 633600 ANA PAULA SILVA FERNANDES OFICIAL DO MP CATAGUASES - COMARCA; CATAGUASES-PJ-04PJ 1.100,00 0,00 450,00 0,00 0,00 0,00 0,00 0,00 0,00 31/10/2020
450 470900 ANA PAULA VALADARES ANALISTA DO MP PITANGUI - COMARCA; PITANGUI-PJ-01PJ 1.100,00 0,00 450,00 0,00 0,00 0,00 0,00 0,00 0,00 31/10/2020
451 447000 ANA PAULA VALENTIM DE ARAUJO ANALISTA DO MP BELO HORIZONTE - COMARCA; PROC JUST ESP ACOES COMP ORIG CRIMINAL-ASSESS 1.100,00 0,00 450,00 0,00 0,00 0,00 0,00 0,00 0,00 31/10/2020
452 604200 ANA PAULA VIANA E SILVA OFICIAL DO MP BELO HORIZONTE - COMARCA; BH-17PJ PATRIMONIO PUBLICO-SECRETARIA 1.100,00 769,39 450,00 0,00 0,00 0,00 0,00 0,00 0,00 31/10/2020
453 505400 ANA PAULA VIEIRA SOUTO OFICIAL DO MP ALMENARA - COMARCA; ALMENARA-PJ-01PJ 1.100,00 0,00 450,00 0,00 0,00 0,00 0,00 0,00 0,00 31/10/2020
454 280200 ANA RACHEL BRANDAO LADEIRA ROLAND DIRETOR/ANALISTA BELO HORIZONTE - COMARCA; SUPRIN DE FORMACAO E APERFEICOAMENTO-SFA/CEAF 1.100,00 0,00 450,00 0,00 0,00 0,00 0,00 0,00 0,00 31/10/2020
455 922900 ANA RACHEL DOS REIS E SENA COSTA ESTAGIARIO BELO HORIZONTE; PROC. JUSTICA CIVEL
456 1047800 ANA RAFAELA SANTOS FARIA ESTAGIARIO BELO HORIZONTE; PROC. JUSTICA CRIMINAL
457 601200 ANA REGINA RIBEIRO COORDENADOR/ANALISTA BELO HORIZONTE - COMARCA; DIV FISCAL ADM CONT TERCEIRIZACAO 1.100,00 0,00 450,00 0,00 4.680,39 0,00 0,00 0,00 308,48 31/10/2020
458 1182200 ANA RITA DE CASSIA ABREU ESTAGIARIO BELO HORIZONTE; CENTRAL DE RECEPÇÃO DE FLAGRANTES
459 1053100 ANA RITA FERREIRA PIMENTA DOS SANTOS ESTAGIARIO BOCAIUVA; BOCAIUVA-PJ-03PJ 0,00 0,00 0,00 117,00 0,00 0,00 0,00 0,00 0,00 31/10/2020
460 384700 ANA RODRIGUES PEREIRA MARRA ANALISTA DO MP COROMANDEL - COMARCA; COROMANDEL-PJ-01PJ 1.100,00 769,39 450,00 0,00 0,00 0,00 0,00 0,00 0,00 31/10/2020
461 232700 ANA SILVIA SEMBLANO NAKAMURA ASSESSOR/OFICIAL BELO HORIZONTE - COMARCA; CENT DE APOIO TEC-SETOR DEF,IDOSO E INFANC 1.100,00 0,00 450,00 0,00 0,00 0,00 0,00 0,00 0,00 31/10/2020
462 1123000 ANA TELMA APARECIDA COSTA ESTAGIARIO 0,00 0,00 0,00 81,00 0,00 0,00 0,00 0,00 0,00 31/10/2020
463 530300 ANA TEREZA RIBEIRO SALLES GIACOMINI PROMOTOR SUBSTITUTO BRUMADINHO - COMARCA; BRUMADINHO-PJ-01PJ 1.100,00 0,00 2.345,20 0,00 0,00 0,00 0,00 0,00 0,00 31/10/2020
464 1147700 ANA VICTORIA DOS PASSOS CAETANO ESTAGIARIO GOVERNADOR VALADARES; GOVERNADOR VALADARES-PJ-16PJ 0,00 0,00 0,00 189,00 0,00 0,00 0,00 0,00 0,00 31/10/2020
465 963500 ANA VIRGINIA DA CRUZ PRAIS ESTAGIARIO MONTES CLAROS; MONTES CLAROS-PJ-03PJ 0,00 0,00 0,00 54,00 0,00 0,00 0,00 0,00 0,00 31/10/2020
466 602100 ANACLETO FRANCISCO MARCIER PIMENTA OFICIAL DO MP SÃO JOÃO DEL REI - COMARCA; SAO JOAO DEL REI-PJ-03PJ 1.100,00 1.538,78 450,00 0,00 0,00 0,00 0,00 0,00 0,00 31/10/2020
467 310400 ANADEJE DO CARMO DINIZ ARAUJO OFICIAL DO MP BELO HORIZONTE - COMARCA; DIRETORIA DE PESSOAL ADMINISTRATIVO - DPAD 1.100,00 0,00 450,00 0,00 0,00 0,00 0,00 0,00 0,00 31/10/2020
468 337000 ANAILDES MARIA MENDES OFICIAL DO MP JANAÚBA - COMARCA; JANAUBA-PJ-02PJ 1.100,00 769,39 450,00 0,00 0,00 0,00 0,00 0,00 0,00 31/10/2020
469 1055300 ANANDA COUTO DE OLIVEIRA ESTAGIARIO BELO HORIZONTE; BH-15PJ M AMB PAT HIST CULT-GAB 114PJ 0,00 0,00 0,00 45,00 150,83 0,00 0,00 0,00 0,00 31/10/2020
470 1170500 ANANDA EVELYN AURELIO DE SOUZA ESTAGIARIO CONTAGEM; CONTAGEM-PJ-24PJ 0,00 0,00 0,00 72,00 0,00 0,00 0,00 0,00 0,00 31/10/2020
471 192900 ANATALIA CERQUEIRA LIMA PERES OFICIAL DO MP UBERABA - COMARCA; COORD REG SAUDE MACROR SANIT TRIANGULO SUL 1.100,00 0,00 450,00 0,00 0,00 0,00 0,00 0,00 0,00 31/10/2020
472 377400 ANDEIRSON DA MATTA BARBOSA ANALISTA DO MP POUSO ALEGRE - COMARCA; POUSO ALEGRE-PJ-01PJ 1.100,00 0,00 450,00 0,00 0,00 0,00 0,00 0,00 0,00 31/10/2020
473 317400 ANDERSON DA SILVA BICALHO OFICIAL DO MP CONTAGEM - COMARCA; CONTAGEM-PJ-SECRETARIA 1.100,00 0,00 450,00 0,00 0,00 0,00 0,00 0,00 0,00 31/10/2020
474 506900 ANDERSON DE SOUZA DAMIANI ANALISTA DO MP BELO HORIZONTE - COMARCA; DIRETORIA DE PAGAMENTO DE PESSOAL-DPAG 1.100,00 769,39 450,00 0,00 0,00 0,00 0,00 0,00 0,00 31/10/2020
475 410000 ANDERSON DE SOUZA NETO ASSESSOR BELO HORIZONTE - COMARCA; DIRETORIA DE ADMINISTRACAO FINANCEIRA 1.100,00 0,00 450,00 0,00 0,00 0,00 0,00 0,00 0,00 31/10/2020
476 181900 ANDERSON FLAVIO DE OLIVEIRA OFICIAL DO MP ITAGUARA - COMARCA; ITAGUARA-PJ-SECRETARIA 1.100,00 0,00 450,00 0,00 0,00 0,00 0,00 0,00 0,00 31/10/2020
477 333200 ANDERSON JOSE DE FREITAS OFICIAL DO MP IPATINGA - COMARCA; IPATINGA-PJ-04PJ 1.100,00 0,00 450,00 0,00 0,00 0,00 1.445,27 0,00 0,00 31/10/2020
478 462100 ANDERSON LUIZ GUIMARAES CARDOSO ANALISTA DO MP BARBACENA - COMARCA; BARBACENA-PJ-02PJ 1.100,00 0,00 450,00 0,00 0,00 0,00 0,00 0,00 0,00 31/10/2020
479 429700 ANDERSON MELO DE SOUZA ASSESSOR/OFICIAL BELO HORIZONTE - COMARCA; DIRET DE ESTAGIOS E CONVENIOS ACADEMICOS 1.100,00 0,00 450,00 0,00 0,00 0,00 0,00 0,00 0,00 31/10/2020
480 545600 ANDERSON MENDES PROCOPIO FERREIRA ANALISTA DO MP BELO HORIZONTE - COMARCA; BH-12PJ JUIZO CRIMINAL-GAB 089PJ 1.100,00 0,00 450,00 0,00 0,00 0,00 0,00 0,00 0,00 31/10/2020
481 519900 ANDERSON MOREIRA DOEHLER ANALISTA DO MP TEÓFILO OTONI - COMARCA; COORD REG SAUDE MACRORREGIAO SANIT NORDESTE 1.100,00 0,00 450,00 0,00 0,00 0,00 0,00 0,00 0,00 31/10/2020
482 103000 ANDERSON TADEU DE DEUS ASSESSOR BELO HORIZONTE - COMARCA; BH-26 CRIME CONT CRIAN ADOL-SECRETARIA 1.100,00 0,00 450,00 0,00 0,00 0,00 0,00 0,00 0,00 31/10/2020
483 652500 ANDERSON TADEU LOPES INVESTIGADOR DE POLICIA 2 CONTAGEM - COMARCA; COORD REG DEF ORDEM ECON TRIB CONTAGEM 1.100,00 0,00 0,00 0,00 0,00 0,00 0,00 0,00 0,00 31/10/2020
484 309200 ANDITYAS SOARES DE MOURA COSTA MATOS ANALISTA DO MP BELO HORIZONTE - COMARCA; GABINETE DE PROCURADOR DE JUSTIÇA - SALA 304 1.100,00 0,00 450,00 0,00 0,00 0,00 0,00 0,00 0,00 31/10/2020
485 1080700 ANDRE ARAUJO GABRIEL REIS ESTAGIARIO BARBACENA; BARBACENA-PJ-05PJ 0,00 0,00 0,00 171,00 0,00 0,00 0,00 0,00 0,00 31/10/2020
486 519200 ANDRE BORJA LANA ANALISTA DO MP BELO HORIZONTE - COMARCA; DIR CONTEUDO JORNALISTICO 1.100,00 0,00 450,00 0,00 0,00 0,00 0,00 0,00 0,00 31/10/2020
487 486000 ANDRE CARDOSO CAVALCANTI PROMOTOR 2A ENTRANCIA ITAJUBA - COMARCA; ITAJUBA-PJ-02PJ 1.100,00 0,00 2.547,03 0,00 12.801,86 0,00 0,00 0,00 488,96 31/10/2020
488 224900 ANDRE CHIO MAXIMO PROMOT.ENTRANC.ESPECIAL VESPASIANO - COMARCA; VESPASIANO-PJ-02PJ 1.100,00 0,00 2.601,04 0,00 11.229,70 0,00 0,00 0,00 514,69 31/10/2020
489 102400 ANDRE DE OLIVEIRA ANDRADE PROMOT.ENTRANC.ESPECIAL BELO HORIZONTE - COMARCA; BH-02PJ FAMILIA-GAB 030PJ 1.100,00 0,00 2.856,88 0,00 31.443,16 0,00 0,00 0,00 514,69 31/10/2020
490 656000 ANDRE DE OLIVEIRA SOUSA INVESTIGADOR DE POLICIA 2 BELO HORIZONTE - COMARCA; GAECO - SETOR POLICIAL CIVIL 1.100,00 0,00 0,00 0,00 0,00 0,00 0,00 0,00 0,00 31/10/2020
491 974800 ANDRE DELL ORTO BERCAN ESTAGIARIO RESPLENDOR; RESPLENDOR-PJ-UNPJ 0,00 0,00 0,00 135,00 0,00 0,00 0,00 0,00 0,00 31/10/2020
492 79200 ANDRE ESTEVAO UBALDINO PEREIRA PROCURADOR DE JUSTICA BELO HORIZONTE - COMARCA; GABINETE DE PROCURADOR DE JUSTIÇA - SALA 502 1.100,00 0,00 3.539,12 0,00 47.282,96 0,00 0,00 0,00 541,78 31/10/2020
493 1103000 ANDRE FELIPE ROSA DA SILVA ESTAGIARIO BARBACENA; BARBACENA-PJ-SECRETARIA 0,00 0,00 0,00 18,00 0,00 0,00 0,00 0,00 0,00 31/10/2020
494 637200 ANDRE FERNANDES DA CUNHA OFICIAL DO MP MORADA NOVA DE MINAS - COMARCA; MORADA NOVA DE MINAS-PJ-UNPJ 1.100,00 0,00 450,00 0,00 0,00 0,00 0,00 0,00 0,00 31/10/2020
495 162800 ANDRE FERNANDO COLUCCO PROMOTOR 2A ENTRANCIA CASSIA - COMARCA; CASSIA-PJ-02PJ 1.100,00 0,00 2.728,96 0,00 21.336,43 0,00 0,00 0,00 488,96 31/10/2020
496 1131900 ANDRE FERREIRA ESTAGIARIO POCOS DE CALDAS; POCOS DE CALDAS-PJ-04PJ
497 1181700 ANDRE GARCIA SANCHES MUNIZ ESTAGIARIO BELO HORIZONTE; BH-20PJ ORD ECON TRIBUTARIA 0,00 0,00 0,00 54,00 0,00 0,00 0,00 0,00 0,00 31/10/2020
498 651500 ANDRE GONCALVES MARANHAO OFICIAL DO MP JACINTO - COMARCA; JACINTO-PJ-SECRETARIA 1.100,00 0,00 450,00 0,00 0,00 0,00 0,00 0,00 0,00 31/10/2020
499 439200 ANDRE LEITE DE ALMEIDA PROMOT.ENTRANC.ESPECIAL VESPASIANO - COMARCA; VESPASIANO-PJ-03PJ 1.100,00 0,00 1.321,84 0,00 0,00 0,00 0,00 0,00 0,00 31/10/2020
500 166900 ANDRE LUIS ALVES DE MELO PROMOTOR 2A ENTRANCIA ARAGUARI - COMARCA; ARAGUARI-PJ-01PJ 1.100,00 0,00 3.155,36 0,00 0,00 0,00 0,00 0,00 0,00 31/10/2020
501 1154900 ANDRE LUIS CUNITA LOURENCO ESTAGIARIO FRUTAL; FRUTAL-PJ-04PJ 0,00 0,00 0,00 189,00 0,00 0,00 0,00 0,00 0,00 31/10/2020
502 85000 ANDRE LUIS GARCIA DE PINHO PROMOT.ENTRANC.ESPECIAL DISPONIBILIDADE COMPULSORIA-COMARCA; DISPONIBILIDADE COMPULSORIA - UNIDADE 0,00 0,00 2.945,65 0,00 0,00 0,00 0,00 0,00 0,00 31/10/2020
503 521900 ANDRE LUIS GOMES SILVA ANALISTA DO MP FORMIGA - COMARCA; FORMIGA-PJ-02PJ 1.100,00 769,39 450,00 0,00 0,00 0,00 0,00 0,00 0,00 31/10/2020
504 340800 ANDRE LUIS MACHADO ARANTES PROMOTOR 2A ENTRANCIA PARÁ DE MINAS - COMARCA; PARA DE MINAS-PJ-05PJ 1.100,00 0,00 2.558,40 0,00 13.475,64 0,00 0,00 0,00 2.199,15 31/10/2020
505 304300 ANDRE LUIZ AVELAR ANALISTA DO MP BELO HORIZONTE - COMARCA; DIRETORIA DE REDES E BANCOS DE DADOS 1.100,00 0,00 450,00 0,00 0,00 0,00 0,00 0,00 0,00 31/10/2020
506 666100 ANDRE LUIZ FERREIRA VALADARES PROMOTOR SUBSTITUTO PIRAPORA - COMARCA; PIRAPORA-PJ-02PJ 1.100,00 0,00 1.133,56 0,00 12.161,76 0,00 0,00 0,00 464,51 31/10/2020
507 530200 ANDRE LUIZ NOLLI MERRIGHI PROMOT.ENTRANC.ESPECIAL SETE LAGOAS - COMARCA; SETE LAGOAS-PJ-03PJ 1.100,00 0,00 2.451,80 0,00 13.475,64 0,00 0,00 0,00 514,69 31/10/2020
508 397400 ANDRE PATARO MYRRHA DE PAULA E SILVA ANALISTA DO MP BELO HORIZONTE - COMARCA; ASSESSORIA JURIDICO-ADMINISTRATIVA 1.100,00 769,39 450,00 0,00 0,00 0,00 0,00 0,00 0,00 31/10/2020
509 533200 ANDRE PEREIRA MAFIA PROMOTOR 2A ENTRANCIA ALÉM PARAÍBA - COMARCA; ALEM PARAIBA-PJ-01PJ 1.100,00 0,00 746,20 0,00 0,00 0,00 0,00 0,00 0,00 31/10/2020
510 441200 ANDRE SALLES DIAS PINTO PROMOTOR 2A ENTRANCIA IGARAPÉ - COMARCA; IGARAPE-PJ-01PJ 1.100,00 0,00 2.025,40 0,00 21.336,43 0,00 0,00 0,00 488,96 31/10/2020
511 237800 ANDRE SILVARES VASCONCELOS PROMOTOR 2A ENTRANCIA PIUMHI - COMARCA; PIUMHI-PJ-02PJ 1.100,00 0,00 2.451,80 0,00 21.336,43 0,00 0,00 0,00 488,96 31/10/2020
512 231800 ANDRE SPERLING PRADO PROMOT.ENTRANC.ESPECIAL BELO HORIZONTE - COMARCA; COORD DE INCLUSAO E MOBILIZACAO SOCIAIS 1.100,00 0,00 2.579,72 0,00 13.475,64 0,00 0,00 0,00 514,69 31/10/2020
513 666300 ANDRE TANURE DOMINGUES FIGUEIREDO PROMOTOR SUBSTITUTO MONTES CLAROS - COMARCA; MONTES CLAROS-PJ-01PJ 1.100,00 0,00 703,56 0,00 0,00 0,00 0,00 0,00 0,00 31/10/2020
514 650100 ANDRE THOME VARGAS OFICIAL DO MP LEOPOLDINA - COMARCA; LEOPOLDINA-PJ-04PJ 1.100,00 0,00 450,00 0,00 0,00 0,00 0,00 0,00 0,00 31/10/2020
515 231600 ANDRE TUMA DELBIM FERREIRA PROMOT.ENTRANC.ESPECIAL UBERABA - COMARCA; COORD REG PJ DEF EDUC DIR CRIANCA ADOL TRIANG 1.100,00 0,00 1.599,00 0,00 13.475,64 0,00 0,00 0,00 514,69 31/10/2020
516 671500 ANDRE VALDERRAMAS FRANCO PROMOTOR SUBSTITUTO VIRGINÓPOLIS - COMARCA; VIRGINOPOLIS-PJ-UNPJ 1.100,00 0,00 596,96 0,00 0,00 0,00 0,00 0,00 0,00 31/10/2020
517 548500 ANDRE VINICIUS CARVALHO MEIRA ANALISTA DO MP JUIZ DE FORA - COMARCA; JUIZ DE FORA-PJ-24PJ 1.100,00 0,00 450,00 0,00 0,00 0,00 0,00 0,00 0,00 31/10/2020
518 297200 ANDRE WILLE ROSARIO ANALISTA DO MP BELO HORIZONTE - COMARCA; ASSESSORIA ESPECIAL DO PGJ 1.100,00 0,00 450,00 0,00 0,00 0,00 0,00 0,00 0,00 31/10/2020
519 224500 ANDREA BASILIO GONCALVES GOLLOP PROMOT.ENTRANC.ESPECIAL BELO HORIZONTE - COMARCA; BH-18PJ VIOLENCIA DOMESTICA-GAB 186PJ 1.100,00 0,00 3.070,08 0,00 0,00 0,00 0,00 0,00 0,00 31/10/2020
520 666400 ANDREA CLEMENTE BARBOSA DE SOUZA PROMOTOR SUBSTITUTO ITABIRA - COMARCA; ITABIRA-PJ-06PJ 1.100,00 0,00 1.748,24 0,00 12.161,76 0,00 0,00 0,00 464,51 31/10/2020
521 423600 ANDREA COSTA GUALBERTO ALVES ANALISTA DO MP GOVERNADOR VALADARES - COMARCA; COORD REG PJ DEF EDU DIR CRIANCA ADOL RIODOCE 1.100,00 0,00 450,00 0,00 0,00 0,00 0,00 0,00 0,00 31/10/2020
522 198600 ANDREA CRISTINA ANDRADE COSTA E SOUZA OFICIAL DO MP MONTES CLAROS - COMARCA; MONTES CLAROS-PJ-15PJ 1.100,00 0,00 450,00 0,00 0,00 0,00 0,00 0,00 0,00 31/10/2020
523 230600 ANDREA CRISTINA CALDAS SANTIAGO PROMOT.ENTRANC.ESPECIAL CONSELHEIRO LAFAIETE - COMARCA; CONSELHEIRO LAFAIETE-PJ-07PJ 1.100,00 0,00 1.407,12 0,00 33.689,11 0,00 0,00 0,00 514,69 31/10/2020
524 467300 ANDREA DE CASSIA PENNA ALVERNAZ ANALISTA DO MP PONTE NOVA - COMARCA; PONTE NOVA-PJ-01PJ 1.100,00 0,00 450,00 0,00 0,00 0,00 0,00 0,00 0,00 31/10/2020
525 308000 ANDREA DE CASSIA SANTOS OLIVEIRA ANALISTA DO MP BELO HORIZONTE - COMARCA; COORD DE GABINETE DO PGJ 1.100,00 0,00 450,00 0,00 0,00 0,00 0,00 0,00 0,00 31/10/2020
526 106300 ANDREA DE FIGUEIREDO SOARES PROCURADOR DE JUSTICA BELO HORIZONTE - COMARCA; GABINETE DE PROCURADOR DE JUSTIÇA - SALA 709 1.100,00 0,00 3.006,12 0,00 23.641,48 0,00 0,00 0,00 541,78 31/10/2020
527 349500 ANDREA DE OLIVEIRA LOIOLA REGIS OFICIAL DO MP IGUATAMA - COMARCA; IGUATAMA-PJ-UNPJ 1.100,00 0,00 450,00 0,00 0,00 0,00 0,00 0,00 0,00 31/10/2020
528 287900 ANDREA FERNANDES PENA MARTINS OFICIAL DO MP MONTES CLAROS - COMARCA; MONTES CLAROS-PJ-09PJ 1.100,00 0,00 450,00 0,00 0,00 0,00 0,00 0,00 0,00 31/10/2020
529 300800 ANDREA FERREIRA ANALISTA DO MP LAVRAS - COMARCA; LAVRAS-PJ-04PJ 1.100,00 0,00 450,00 0,00 0,00 0,00 0,00 0,00 0,00 31/10/2020
530 316700 ANDREA FRANCISCA DIAS DE SOUZA ASSESSOR BELO HORIZONTE - COMARCA; ASSESSORIA JURIDICA DO PROCON-MG 1.100,00 769,39 450,00 0,00 0,00 0,00 0,00 0,00 0,00 31/10/2020
531 395100 ANDREA LANNA MENDES NOVAIS ANALISTA DO MP BELO HORIZONTE - COMARCA; PROMOT ESTADUAL DE DEF PATRI CULT E TUR DE MG 1.100,00 0,00 450,00 0,00 0,00 0,00 0,00 0,00 0,00 31/10/2020
532 67300 ANDREA LEAO MAGALHAES ROQUE ASSESSOR BELO HORIZONTE - COMARCA; COORD ESTADUAL COMBATE CRIMES CIBERNETICOS 1.100,00 0,00 450,00 0,00 0,00 0,00 0,00 0,00 0,00 31/10/2020
533 335700 ANDREA LOPES PEREIRA ANALISTA DO MP GOVERNADOR VALADARES - COMARCA; COORD REG DO MA DA BACIA DO RIO DOCE 1.100,00 0,00 450,00 0,00 0,00 0,00 0,00 0,00 0,00 31/10/2020
534 224700 ANDREA MARIA NESSRALLA BAHURY PROMOT.ENTRANC.ESPECIAL BELO HORIZONTE - COMARCA; BH-12PJ JUIZO CRIMINAL-GAB 089PJ 1.100,00 0,00 2.345,20 0,00 13.475,64 0,00 0,00 0,00 514,69 31/10/2020
535 167000 ANDREA MISMOTTO CARELLI PROMOT.ENTRANC.ESPECIAL BELO HORIZONTE - COMARCA; BH-26 CRIME CONT CRIAN ADOL-GAB 048PJ 1.100,00 0,00 895,44 0,00 13.475,64 0,00 0,00 0,00 514,69 31/10/2020
536 389200 ANDREA TUPINI DOS SANTOS TRISTAO DA ROCHA COORDENADOR/OFICIAL BELO HORIZONTE - COMARCA; BH-13ª PJ JUÍZO DE TÓXICOS-SECRETARIA 1.100,00 0,00 450,00 0,00 0,00 0,00 0,00 0,00 0,00 31/10/2020
537 1071200 ANDREI LUCAS BASILIO SANTANA ESTAGIARIO JANUARIA; JANUARIA-PJ-01PJ 0,00 0,00 0,00 135,00 0,00 0,00 0,00 0,00 0,00 31/10/2020
538 419000 ANDREIA BARBOSA DE ALMEIDA ANALISTA DO MP BELO HORIZONTE - COMARCA; GABINETE DE PROCURADOR DE JUSTIÇA - SALA 705 1.100,00 0,00 450,00 0,00 0,00 0,00 0,00 0,00 0,00 31/10/2020
539 281501 ANDREIA CARLA COSTA ANALISTA DO MP UBÁ - COMARCA; UBA-PJ-02PJ 1.100,00 0,00 450,00 0,00 0,00 0,00 0,00 0,00 0,00 31/10/2020
540 477100 ANDREIA DE ALMEIDA RIBEIRO MELO OFICIAL DO MP CONTAGEM - COMARCA; CONTAGEM-PJ-SECRETARIA 1.100,00 0,00 450,00 0,00 0,00 0,00 0,00 0,00 0,00 31/10/2020
541 1170600 ANDREIA DE PAULA CAMPOS NUNES ESTAGIARIO ANDRELANDIA; ANDRELANDIA-PJ-UNPJ 0,00 0,00 0,00 180,00 0,00 0,00 0,00 0,00 0,00 31/10/2020
542 619000 ANDREIA FERREIRA NORONHA COORDENADOR/OFICIAL BELO HORIZONTE - COMARCA; DIRETORIA DE SERVICO CRIMINAL 1.100,00 0,00 450,00 0,00 0,00 0,00 0,00 0,00 -48,38 31/10/2020
543 424000 ANDREIA LUCIA COUTO ANALISTA DO MP BELO HORIZONTE - COMARCA; BH-18PJ DIREITOS HUMANOS-SECRETARIA 1.100,00 0,00 450,00 0,00 0,00 0,00 0,00 0,00 0,00 31/10/2020
544 1138400 ANDREIA MARIA FIRMO ESTAGIARIO BELO HORIZONTE; PROC. JUSTICA DIR. DIFUSOS E COLETIVOS 0,00 0,00 0,00 63,00 0,00 0,00 0,00 0,00 0,00 31/10/2020
545 370100 ANDREIA MARIA SILVA PINTO OFICIAL DO MP CORONEL FABRICIANO - COMARCA; CORONEL FABRICIANO-PJ-01PJ 1.100,00 769,39 450,00 0,00 0,00 0,00 0,00 0,00 0,00 31/10/2020
546 382100 ANDREIA NATALI PEREIRA DE OLIVEIRA OFICIAL DO MP PRADOS - COMARCA; PRADOS-PJ-UNPJ 1.100,00 0,00 450,00 0,00 0,00 0,00 0,00 0,00 191,21 31/10/2020
547 198701 ANDREIA NUNES DURAES PROMOTOR 2A ENTRANCIA BOCAIÚVA - COMARCA; BOCAIUVA-PJ-02PJ 1.100,00 0,00 0,00 0,00 12.801,86 0,00 0,00 0,00 488,96 31/10/2020
548 275200 ANDREIA RIBEIRO FREITAS OFICIAL DO MP VIÇOSA - COMARCA; VICOSA-PJ-04PJ 1.100,00 0,00 450,00 0,00 0,00 0,00 0,00 0,00 0,00 31/10/2020
549 1162900 ANDREIA RODRIGUES DE SOUZA ESTAGIARIO 0,00 0,00 0,00 189,00 0,00 0,00 0,00 0,00 0,00 31/10/2020
550 352200 ANDREIA XAVIER PEREIRA OFICIAL DO MP CLÁUDIO - COMARCA; CLAUDIO-PJ-UNPJ 1.100,00 0,00 450,00 0,00 0,00 0,00 0,00 0,00 0,00 31/10/2020
551 638500 ANDRESA ALVES FEITOSA CASAGRANDE ANALISTA DO MP LAVRAS - COMARCA; COORD REG DO MA DA BACIA DO RIO GRANDE 1.100,00 0,00 450,00 0,00 0,00 0,00 0,00 0,00 0,00 31/10/2020
552 1072000 ANDRESA MENDES ASSIS ESTAGIARIO BELO HORIZONTE; PROC JUST ESP ACOES COMP ORIG CRIMINAL-GAB
553 1103300 ANDRESSA BARBOSA PARANHOS ESTAGIARIO PATOS DE MINAS; PATOS DE MINAS-PJ-01PJ 0,00 0,00 0,00 189,00 0,00 0,00 0,00 0,00 0,00 31/10/2020
554 932800 ANDRESSA CARINA DOS SANTOS ESTAGIARIO BELO HORIZONTE; DIV FISCAL ADM CONT TERCEIRIZACAO 0,00 0,00 0,00 189,00 0,00 0,00 0,00 0,00 0,00 31/10/2020
555 952200 ANDRESSA CAVALCANTI FELIPPE ESTAGIARIO PONTE NOVA; PONTE NOVA-PJ-02PJ 0,00 0,00 0,00 90,00 0,00 0,00 0,00 0,00 0,00 31/10/2020
556 210000 ANDRESSA DE OLIVEIRA LANCHOTTI PROMOT.ENTRANC.ESPECIAL BELO HORIZONTE - COMARCA; CAO-MEIO AMBIENTE 1.100,00 0,00 2.920,84 0,00 13.475,64 0,00 0,00 0,00 514,69 31/10/2020
557 383700 ANDRESSA EDUARDO SOUZA ANALISTA DO MP OURO BRANCO - COMARCA; OURO BRANCO-PJ-SECRETARIA 1.100,00 1.538,78 450,00 0,00 15.613,82 0,00 0,00 0,00 515,26 31/10/2020
558 959900 ANDRESSA FRANCO PARADELLAS ESTAGIARIO EUGENOPOLIS; EUGENOPOLIS-PJ-UNPJ 0,00 0,00 0,00 153,00 0,00 0,00 0,00 0,00 0,00 31/10/2020
559 485500 ANDRESSA ISABELLE FERREIRA BARRETO PROMOTOR 2A ENTRANCIA CONCEICAO DAS ALAGOAS - COMARCA; CONCEICAO DAS ALAGOAS-PJ-02PJ 1.100,00 0,00 2.729,16 0,00 12.801,86 0,00 0,00 0,00 488,96 31/10/2020
560 678400 ANDRESSA LUIZA SILVA LOPES ASSESSOR PROMOTOR JUSTICA CARMO DO PARANAÍBA - COMARCA; CARMO DO PARANAIBA-PJ-02PJ 1.100,00 0,00 450,00 0,00 0,00 0,00 0,00 0,00 0,00 31/10/2020
561 1005700 ANDRESSA MARIA ROCHA BARBOSA ESTAGIARIO SANTA MARIA DO SUACUI; SANTA MARIA DO SUACUI-PJ-UNPJ 0,00 0,00 0,00 36,00 0,00 0,00 0,00 0,00 0,00 31/10/2020
562 426200 ANDRESSA MENDES CASAL OFICIAL DO MP BELO HORIZONTE - COMARCA; DIR ESTRUTURA E PROCESSOS ORGANIZACIONAIS 1.100,00 0,00 450,00 0,00 0,00 0,00 0,00 0,00 0,00 31/10/2020
563 932900 ANDRESSA OLIVEIRA LUBE COSTA ESTAGIARIO BELO HORIZONTE; GRUPO ESP PROM JUST DEF PROB ADM PAT PUB
564 390100 ANDRESSA RIBEIRO PUCCI OFICIAL DO MP UBERABA - COMARCA; UBERABA-PJ-14PJ 1.100,00 0,00 450,00 0,00 0,00 0,00 0,00 0,00 0,00 31/10/2020
565 462500 ANDREZA APARECIDA COSTA E SILVA ANALISTA DO MP CONSELHEIRO LAFAIETE - COMARCA; CONSELHEIRO LAFAIETE-PJ-02PJ 1.100,00 0,00 450,00 0,00 0,00 0,00 0,00 0,00 0,00 31/10/2020
566 1035200 ANDREZA BRANDAO ESTAGIARIO NOVA SERRANA; NOVA SERRANA-PJ-02PJ 0,00 0,00 0,00 18,00 0,00 0,00 0,00 0,00 0,00 31/10/2020
567 677700 ANDREZA DE LOURDES FERREIRA DE PAIVA ASSESSOR PROMOTOR JUSTICA ABRE CAMPO - COMARCA; ABRE CAMPO-PJ-01PJ 1.100,00 0,00 450,00 0,00 0,00 0,00 0,00 0,00 0,00 31/10/2020
568 965700 ANDREZA DE OLIVEIRA SANTOS PRESTES ESTAGIARIO BELO HORIZONTE; BH-12PJ JUIZO CRIMINAL-GAB 099PJ 0,00 0,00 0,00 117,00 0,00 0,00 0,00 0,00 0,00 31/10/2020
569 1035800 ANDREZA OLIVEIRA MAGALHAES ESTAGIARIO PATOS DE MINAS; GAECO REGIONAL DE PATOS DE MINAS 0,00 0,00 0,00 144,00 0,00 0,00 0,00 0,00 0,00 31/10/2020
570 1083000 ANDREZA SACRAMENTO FAGUNDES ESTAGIARIO BELO HORIZONTE; SUPERINTENDÊNCIA DE ENGENHARIA E ARQUITETURA
571 537800 ANDREZZA LUZIA DE OLIVEIRA ALVES ANALISTA DO MP PATOS DE MINAS - COMARCA; COORD REG PJ DEF EDU DIR CRI ADO AL PAR NOROE 1.100,00 0,00 450,00 0,00 0,00 0,00 0,00 0,00 0,00 31/10/2020
572 1074700 ANDRINE HOLLERBACH DOS SANTOS ESTAGIARIO TEOFILO OTONI; TEOFILO OTONI-PJ-05PJ 0,00 0,00 0,00 126,00 0,00 0,00 0,00 0,00 0,00 31/10/2020
573 491600 ANE PATRICIA RIBEIRO ANALISTA DO MP SETE LAGOAS - COMARCA; SETE LAGOAS-PJ-11PJ 1.100,00 0,00 450,00 0,00 0,00 0,00 0,00 0,00 0,00 31/10/2020
574 361900 ANELISA CARDOSO RIBEIRO PROMOTOR 2A ENTRANCIA CAETÉ - COMARCA; CAETE-PJ-02PJ 1.100,00 0,00 1.705,60 0,00 12.801,86 0,00 0,00 0,00 488,96 31/10/2020
575 465800 ANELISE GAMA ASSESSOR BELO HORIZONTE - COMARCA; BH-18PJ VIOLENCIA DOMESTICA-SECRETARIA 1.100,00 0,00 450,00 0,00 0,00 0,00 0,00 0,00 0,00 31/10/2020
576 535200 ANELIZE FERNANDA ALVES VILARINHO OFICIAL DO MP CAPINÓPOLIS - COMARCA; CAPINOPOLIS-PJ-UNPJ 1.100,00 769,39 450,00 0,00 0,00 0,00 0,00 0,00 0,00 31/10/2020
577 197200 ANGELA COELHO SALDANHA OFICIAL DO MP PARÁ DE MINAS - COMARCA; PARA DE MINAS-PJ-03PJ 1.100,00 0,00 450,00 0,00 0,00 0,00 0,00 0,00 0,00 31/10/2020
578 307400 ANGELA CRISTINA GONCALVES MUNIZ ANALISTA DO MP UBERLÂNDIA - COMARCA; UBERLANDIA-PJ-SEC FAMILIA 1.100,00 769,39 450,00 0,00 0,00 0,00 0,00 0,00 0,00 31/10/2020
579 157100 ANGELA FABERO PROMOT.ENTRANC.ESPECIAL BELO HORIZONTE - COMARCA; BH-23PJ INFRACIONAL-GAB 145PJ 1.100,00 0,00 3.198,00 0,00 13.475,64 0,00 0,00 0,00 514,69 31/10/2020
580 191800 ANGELA MARIA DE OLIVEIRA OFICIAL DO MP GUARANÉSIA - COMARCA; GUARANESIA-PJ-SECRETARIA 1.100,00 0,00 450,00 0,00 0,00 0,00 0,00 0,00 0,00 31/10/2020
581 497400 ANGELA MARIA HENRIQUES ANALISTA DO MP BELO HORIZONTE - COMARCA; COORD REG BACIAS RIO VELHAS E PARAOPEBA 1.100,00 0,00 450,00 0,00 0,00 0,00 0,00 0,00 0,00 31/10/2020
582 54600 ANGELA MARIA PEREIRA GRAVINA PROMOT.ENTRANC.ESPECIAL JUIZ DE FORA - COMARCA; JUIZ DE FORA-PJ-11PJ 1.100,00 0,00 1.322,50 0,00 0,00 0,00 0,00 0,00 0,00 31/10/2020
583 1141200 ANGELA NUNES CARDOSO ESTAGIARIO CORACAO DE JESUS; CORACAO DE JESUS-PJ-UNPJ 0,00 0,00 0,00 189,00 0,00 0,00 0,00 0,00 0,00 31/10/2020
584 260700 ANGELICA CRISTINA AZEVEDO MOREIRA MOUCO OFICIAL DO MP UBÁ - COMARCA; UBA-PJ-05PJ 1.100,00 0,00 450,00 0,00 0,00 0,00 0,00 0,00 0,00 31/10/2020
585 1005300 ANGELICA JULIA ARAUJO BASTOS ESTAGIARIO SETE LAGOAS; SETE LAGOAS-PJ-07PJ 0,00 0,00 0,00 144,00 0,00 0,00 0,00 0,00 0,00 31/10/2020
586 334600 ANGELICA PANISSA DE FREITAS GALLATI OFICIAL DO MP GUAXUPÉ - COMARCA; GUAXUPE-PJ-02PJ 1.100,00 769,39 450,00 0,00 0,00 0,00 0,00 0,00 0,00 31/10/2020
587 660400 ANGELICA POLLYANA QUEIROZ DE MEDEIROS PROMOTOR 2A ENTRANCIA FRUTAL - COMARCA; FRUTAL-PJ-05PJ 1.100,00 0,00 703,56 0,00 12.801,86 0,00 0,00 0,00 488,96 31/10/2020
588 521100 ANGELICA SALES MOREIRA OFICIAL DO MP BELO HORIZONTE - COMARCA; BH-02PJ FAMILIA-SECRETARIA 1.100,00 0,00 450,00 0,00 0,00 0,00 0,00 0,00 0,00 31/10/2020
589 1153300 ANGELICA SILVA COUTO ESTAGIARIO ITAUNA; ITAUNA-PJ-04PJ 0,00 0,00 0,00 72,00 0,00 0,00 0,00 0,00 0,00 31/10/2020
590 466500 ANGELLO MARQUES AGRELLI ANALISTA DO MP MAR DE ESPANHA - COMARCA; MAR DE ESPANHA-PJ-UNPJ 1.100,00 0,00 450,00 0,00 0,00 0,00 0,00 0,00 0,00 31/10/2020
591 222700 ANGELO ALEXANDRE MARZANO PROMOT.ENTRANC.ESPECIAL BELO HORIZONTE - COMARCA; PROC JUST RECURSOS ESP E EXTRAORD CRIMINAIS 1.100,00 0,00 2.451,80 0,00 13.475,64 0,00 0,00 0,00 514,69 31/10/2020
592 167100 ANGELO ANSANELLI JUNIOR PROMOTOR 2A ENTRANCIA FORMIGA - COMARCA; FORMIGA-PJ-02PJ 1.100,00 0,00 2.643,68 0,00 21.336,43 0,00 0,00 0,00 488,96 31/10/2020
593 1172500 ANGELO ANTONIO LOPES MOURA ESTAGIARIO IPATINGA; IPATINGA-PJ-11PJ 0,00 0,00 0,00 108,00 0,00 0,00 0,00 0,00 0,00 31/10/2020
594 363300 ANGELO VERDOLIN HENRIQUES ANALISTA DO MP SETE LAGOAS - COMARCA; SETE LAGOAS-PJ-04PJ 1.100,00 769,39 450,00 0,00 0,00 0,00 0,00 0,00 0,00 31/10/2020
595 267600 ANIBAL TAMAOKI PROMOT.ENTRANC.ESPECIAL BELO HORIZONTE - COMARCA; BH-18PJ VIOLENCIA DOMESTICA-GAB 053PJ 1.100,00 0,00 895,44 0,00 13.475,64 0,00 0,00 0,00 514,69 31/10/2020
596 250900 ANISIO APARECIDO SANTOS OFICIAL DO MP MARIANA - COMARCA; MARIANA-PJ-02PJ 1.100,00 0,00 450,00 0,00 0,00 0,00 0,00 0,00 0,00 31/10/2020
597 651200 ANITA MARIA SANT ANA DE MATTOS FONTES OFICIAL DO MP ERVÁLIA - COMARCA; ERVALIA-PJ-UNPJ 1.100,00 0,00 450,00 0,00 0,00 0,00 0,00 0,00 0,00 31/10/2020
598 1012300 ANNA BEATRIZ ABREU OTONI ESTAGIARIO BELO HORIZONTE; COORD ESTADUAL DE DEFESA DOS ANIMAIS 0,00 0,00 0,00 27,00 0,00 0,00 0,00 0,00 0,00 31/10/2020
599 1183400 ANNA CAROLINA DE SENNA BARCANTE ESTAGIARIO FORMIGA; FORMIGA-PJ-04PJ 0,00 0,00 0,00 81,00 0,00 0,00 0,00 0,00 0,00 31/10/2020
600 1071400 ANNA CAROLINA POLICARIO BERTOLIN ESTAGIARIO BELO HORIZONTE; PROC. JUSTICA DIR. DIFUSOS E COLETIVOS
601 909900 ANNA CAROLINA TAVARES ASSUNCAO ESTAGIARIO UBERLANDIA; UBERLANDIA-PJ-24PJ 0,00 0,00 0,00 90,00 0,00 0,00 0,00 0,00 0,00 31/10/2020
602 253400 ANNA FLAVIA LEHMAN BATTAGLIA ANALISTA DO MP BELO HORIZONTE - COMARCA; CAO-PATRIMONIO PUBLICO 1.100,00 0,00 450,00 0,00 0,00 0,00 0,00 0,00 0,00 31/10/2020
603 1043200 ANNA FRANCIELE DA SILVA ESTAGIARIO BELO HORIZONTE; CAO-FUNDACOES 0,00 0,00 0,00 18,00 0,00 0,00 0,00 0,00 0,00 31/10/2020
604 1153400 ANNA GABRIELA SILVA SOUZA ESTAGIARIO UBERLANDIA; UBERLANDIA-PJ-02PJ 0,00 0,00 0,00 171,00 0,00 0,00 0,00 0,00 0,00 31/10/2020
605 1078100 ANNA LUISA BRAZ RODRIGUES ESTAGIARIO LAVRAS; LAVRAS-PJ-02PJ 0,00 0,00 0,00 54,00 0,00 0,00 0,00 0,00 0,00 31/10/2020
606 688800 ANNA LUIZA MATTOS DUARTE ASSESSOR PROCURADOR JUSTICA BELO HORIZONTE - COMARCA; GABINETE DE PROCURADOR DE JUSTIÇA - SALA 305 1.500,00 0,00 900,00 0,00 0,00 0,00 0,00 0,00 2.395,91 31/10/2020
607 939900 ANNA LUIZA VIRTUOSO ESTAGIARIO IPATINGA; IPATINGA-PJ-04PJ 0,00 0,00 0,00 54,00 0,00 0,00 0,00 0,00 0,00 31/10/2020
608 1017900 ANNE VIEIRA TEODORAK PEGO ESTAGIARIO BELO HORIZONTE; BH-23PJ INFRACIONAL-GAB 142PJ 0,00 0,00 0,00 63,00 0,00 0,00 0,00 0,00 0,00 31/10/2020
609 447600 ANNGELUCE ALCANTARA DE CAMPOS OFICIAL DO MP DIVINÓPOLIS - COMARCA; DIVINOPOLIS-PJ-SECRETARIA 1.100,00 0,00 450,00 0,00 0,00 0,00 0,00 0,00 0,00 31/10/2020
610 119600 ANSELMO BORGES PARREIRAS OFICIAL DO MP BONFIM - COMARCA; BONFIM-PJ-UNPJ 1.100,00 0,00 450,00 0,00 0,00 0,00 0,00 0,00 0,00 31/10/2020
611 630300 ANTONIA GOMES RAMALHO OFICIAL DO MP NOVO CRUZEIRO - COMARCA; NOVO CRUZEIRO-PJ-UNPJ 1.100,00 2.051,70 450,00 0,00 0,00 0,00 0,00 0,00 0,00 31/10/2020
612 332400 ANTONIA MARIA MAMEDE OFICIAL DO MP UBERLÂNDIA - COMARCA; COORD REG PP TRIANGULO MINEIRO UBERLANDIA 1.100,00 0,00 450,00 0,00 0,00 0,00 0,00 0,00 0,00 31/10/2020
613 1010200 ANTONIO AFFONSO FERREIRA GUEDES ESTAGIARIO BELO HORIZONTE; CAO-ORDEM ECONOMICA E TRIBUTARIA-SECRETARIA 0,00 0,00 0,00 108,00 0,00 0,00 0,00 0,00 0,00 31/10/2020
614 73100 ANTONIO AURELIO SANTOS PROCURADOR DE JUSTICA BELO HORIZONTE - COMARCA; CAO-CONFLITOS AGRARIOS 1.100,00 0,00 2.558,40 0,00 14.184,89 0,00 0,00 0,00 541,78 31/10/2020
615 157300 ANTONIO BORGES DA SILVA PROMOTOR 2A ENTRANCIA SÃO LOURENÇO - COMARCA; SAO LOURENCO-PJ-02PJ 1.100,00 0,00 3.070,08 0,00 12.801,86 0,00 0,00 0,00 488,96 31/10/2020
616 401600 ANTONIO CARLOS GUEDES AROUCA ANALISTA DO MP BELO HORIZONTE - COMARCA; EXTINTA-COORD EST DEF DIR FAM PES DEFIC IDOSO 1.100,00 0,00 450,00 0,00 0,00 0,00 0,00 0,00 0,00 31/10/2020
617 76600 ANTONIO DE PADOVA MARCHI JUNIOR PROCURADOR DE JUSTICA BELO HORIZONTE - COMARCA; GABINETE DE PROCURADOR DE JUSTIÇA - SALA 1006 1.100,00 0,00 2.579,72 0,00 23.641,48 0,00 0,00 0,00 541,78 31/10/2020
618 101900 ANTONIO DIAS MAIA PROCURADOR DE JUSTICA BELO HORIZONTE - COMARCA; GABINETE DE PROCURADOR DE JUSTIÇA - SALA 808 1.100,00 0,00 2.558,40 0,00 23.641,48 0,00 0,00 0,00 541,78 31/10/2020
619 84600 ANTONIO DIOGO DA ROCHA PROMOTOR 1A ENTRANCIA BOTELHOS - COMARCA; BOTELHOS-PJ-UNPJ 1.100,00 0,00 2.558,40 0,00 29.390,94 0,00 0,00 0,00 464,51 31/10/2020
620 333900 ANTONIO GONCALVES DE SOUZA FILHO OFICIAL DO MP BELO HORIZONTE - COMARCA; DIRETORIA DE CONTABILIDADE 1.100,00 0,00 450,00 0,00 0,00 0,00 0,00 0,00 0,00 31/10/2020
621 340600 ANTONIO HENRIQUE FRANCO LOPES PROMOT.ENTRANC.ESPECIAL RIBEIRÃO DAS NEVES - COMARCA; RIBEIRAO DAS NEVES-PJ-07PJ 1.100,00 0,00 1.705,60 0,00 13.475,64 0,00 0,00 0,00 514,69 31/10/2020
622 67600 ANTONIO JOAQUIM SCHELLENBERGER FERNANDES PROCURADOR DE JUSTICA BELO HORIZONTE - COMARCA; PROC JUSTICA DIR DIFUSOS E COLETIVOS-GAB004 1.100,00 0,00 2.856,88 0,00 14.184,89 0,00 0,00 0,00 541,78 31/10/2020
623 77300 ANTONIO JOSE CHINELATO PROCURADOR DE JUSTICA BELO HORIZONTE - COMARCA; GABINETE DE PROCURADOR DE JUSTIÇA - SALA 1008 1.100,00 0,00 0,00 0,00 14.184,89 0,00 0,00 0,00 541,78 31/10/2020
624 211800 ANTONIO JOSE DE OLIVEIRA PROMOTOR 2A ENTRANCIA PASSOS - COMARCA; PASSOS-PJ-06PJ 1.100,00 0,00 3.006,12 0,00 28.804,18 0,00 0,00 0,00 488,96 31/10/2020
625 1003300 ANTONIO JOSE ZINATO DE CARVALHO ESTAGIARIO BELO HORIZONTE; PROC. JUSTICA CIVEL 0,00 0,00 0,00 189,00 0,00 0,00 0,00 0,00 0,00 31/10/2020
626 176100 ANTONIO MARCELO CAMPOS CAMPANELLA OFICIAL DO MP BELO HORIZONTE - COMARCA; COORD DE GABINETE DO PGJ 1.100,00 0,00 450,00 0,00 0,00 0,00 0,00 0,00 0,00 31/10/2020
627 1093700 ANTONIO MARZOLA PEREIRA JUNIOR ESTAGIARIO MACHADO; MACHADO-PJ-02PJ 0,00 0,00 0,00 189,00 0,00 0,00 0,00 0,00 0,00 31/10/2020
628 1086500 ANTONIO OLINTO ADVINCULA DE ARAUJO ESTAGIARIO BELO HORIZONTE; BH-12PJ JUIZO CRIMINAL-GAB 103PJ 0,00 0,00 0,00 36,00 0,00 0,00 0,00 0,00 0,00 31/10/2020
629 321001 ANTONIO OLINTO VIEIRA MACHADO ANALISTA DO MP BELO HORIZONTE - COMARCA; CENTRAL DE APOIO TECN-SETOR DE MEIO AMBIENTE 1.100,00 0,00 450,00 0,00 0,00 0,00 0,00 0,00 0,00 31/10/2020
630 356200 ANTONIO PAULA DA SILVA OFICIAL DO MP JUIZ DE FORA - COMARCA; JUIZ DE FORA-PJ-20PJ 1.100,00 0,00 450,00 0,00 0,00 0,00 0,00 0,00 0,00 31/10/2020
631 63400 ANTONIO PEDRO DA SILVA MELO PROMOT.ENTRANC.ESPECIAL SÃO JOÃO DEL REI - COMARCA; SAO JOAO DEL REI-PJ-01PJ 1.100,00 0,00 2.558,40 0,00 44.918,81 0,00 0,00 0,00 514,69 31/10/2020
632 119900 ANTONIO RODRIGUES DE PINHO OFICIAL DO MP GUANHÃES - COMARCA; GUANHAES-PJ-01PJ 1.100,00 769,39 450,00 0,00 0,00 0,00 0,00 0,00 0,00 31/10/2020
633 373300 ANTONIO SERGIO ANANIAS OFICIAL DO MP AIURUOCA - COMARCA; AIURUOCA-PJ-UNPJ 1.100,00 0,00 450,00 0,00 0,00 0,00 0,00 0,00 0,00 31/10/2020
634 93500 ANTONIO SERGIO ROCHA DE PAULA PROCURADOR DE JUSTICA BELO HORIZONTE - COMARCA; PROC JUSTICA DIR DIFUSOS E COLETIVOS-GAB003 1.100,00 0,00 3.283,28 0,00 0,00 0,00 0,00 0,00 0,00 31/10/2020
635 68700 ANTONIO SERGIO TONET PROCURADOR DE JUSTICA BELO HORIZONTE - COMARCA; PROCURADOR-GERAL DE JUSTICA- GABINETE 1.100,00 0,00 1.684,28 0,00 23.641,48 0,00 0,00 0,00 541,78 31/10/2020
636 608100 ANTONIO SIDINEY VIEIRA LEMOS ANALISTA DO MP PIRAPORA - COMARCA; PIRAPORA-PJ-01PJ 1.100,00 0,00 450,00 0,00 0,00 0,00 0,00 0,00 88,24 31/10/2020
637 374700 ANTONIO SILVA NETO OFICIAL DO MP BELO HORIZONTE - COMARCA; GAECO - SECRETARIA 1.100,00 0,00 450,00 0,00 0,00 0,00 0,00 0,00 0,00 31/10/2020
638 636700 ANTONIUS VITORIANO FERNANDES OFICIAL DO MP BELO HORIZONTE - COMARCA; ASSESSORIA JURIDICA DO PROCON-MG 1.100,00 0,00 450,00 0,00 0,00 0,00 0,00 0,00 0,00 31/10/2020
639 1188100 ANY KARLA DE SOUZA GOMES SANTOS ESTAGIARIO MEDINA; MEDINA-PJ-UNPJ 0,00 0,00 0,00 18,00 0,00 0,00 0,00 0,00 0,00 31/10/2020
640 413200 ANY PEREIRA SILVA ANALISTA DO MP TRÊS PONTAS - COMARCA; TRES PONTAS-PJ-01PJ 1.100,00 0,00 450,00 0,00 0,00 0,00 0,00 0,00 0,00 31/10/2020
641 151401 APARECIDA DE FATIMA MENDES DE ALMEIDA ASSESSOR JUIZ DE FORA - COMARCA; JUIZ DE FORA-PJ-SECRETARIA 1.100,00 0,00 450,00 0,00 0,00 0,00 0,00 0,00 0,00 31/10/2020
642 329300 APARECIDA MARIA MELO DE ASSIS OFICIAL DO MP BELO HORIZONTE - COMARCA; BH-18PJ DIREITOS HUMANOS-SECRETARIA 1.100,00 0,00 450,00 0,00 0,00 0,00 0,00 0,00 0,00 31/10/2020
643 475300 APARECIDA MARLENE FREIRE ROSA ANALISTA DO MP BELO HORIZONTE - COMARCA; BH-02PJ FAMILIA-SECRETARIA 1.100,00 0,00 450,00 0,00 0,00 0,00 0,00 0,00 0,00 31/10/2020
644 240300 APARECIDA PEREIRA DO NASCIMENTO OFICIAL DO MP ITURAMA - COMARCA; ITURAMA-PJ-01PJ 1.100,00 0,00 450,00 0,00 0,00 0,00 0,00 0,00 0,00 31/10/2020
645 653000 APARECIDA ROSA DE LIMA ASSESSOR BELO HORIZONTE - COMARCA; SECRETARIA PROCESSOS DISCIPES ADMINISTRATIVOS 1.100,00 0,00 450,00 0,00 0,00 0,00 0,00 0,00 0,00 31/10/2020
646 354500 APARECIDA VIEIRA DE CARVALHO OFICIAL DO MP BELO HORIZONTE - COMARCA; DIVISÃO DE EDUCAÇÃO PARA O CONSUMO 1.100,00 0,00 450,00 0,00 0,00 0,00 0,00 0,00 0,00 31/10/2020
647 551000 ARACELES BICALHO FELIX ANALISTA DO MP MANHUAÇU - COMARCA; MANHUACU-PJ-02PJ 1.100,00 769,39 450,00 0,00 0,00 0,00 0,00 0,00 0,00 31/10/2020
648 286200 ARACELI MEDRADO DOS SANTOS LIMA OFICIAL DO MP PARACATU - COMARCA; PARACATU-PJ-03PJ 1.100,00 0,00 450,00 0,00 0,00 102,00 0,00 0,00 0,00 31/10/2020
649 112200 ARAQUEM AUGUSTO DE MATOS AGENTE DO MP BELO HORIZONTE - COMARCA; BH-23PJ CIVEL-SEC EXP CIVEIS 1.100,00 0,00 450,00 0,00 0,00 0,00 0,00 0,00 0,00 31/10/2020
650 280600 ARDUINO FRATTEZI ANALISTA DO MP BELO HORIZONTE - COMARCA; CENTRAL DE APOIO TECNICO-SETOR CONTABIL 1.100,00 0,00 450,00 0,00 0,00 0,00 0,00 0,00 0,00 31/10/2020
651 67700 ARESLAN EUSTAQUIO MARTINS PROMOTOR 1A ENTRANCIA CARMO DA MATA - COMARCA; CARMO DA MATA-PJ-UNPJ 1.100,00 0,00 2.963,48 0,00 20.269,61 0,00 0,00 0,00 464,51 31/10/2020
652 1090300 ARIADNE ALENCAR SOUZA ESTAGIARIO GOVERNADOR VALADARES; GOVERNADOR VALADARES-PJ-15PJ 0,00 0,00 0,00 189,00 0,00 0,00 0,00 0,00 0,00 31/10/2020
653 1178300 ARIANA DA SILVA MIRANDA ESTAGIARIO DIVINOPOLIS; DIVINOPOLIS-PJ-12PJ 0,00 0,00 0,00 99,00 0,00 0,00 0,00 0,00 0,00 31/10/2020
654 520201 ARIANE DE FATIMA CARVALHO ALMEIDA RODRIGUES ANALISTA DO MP VESPASIANO - COMARCA; VESPASIANO-PJ-04PJ 1.100,00 769,39 450,00 0,00 0,00 0,00 0,00 0,00 0,00 31/10/2020
655 1079800 ARICIA FERNANDES DRUMOND SOARES ESTAGIARIO BETIM; BETIM-PJ-04PJ 0,00 0,00 0,00 117,00 0,00 0,00 0,00 0,00 0,00 31/10/2020
656 952500 ARICIA JORDANA ALMEIDA DE MORAIS ESTAGIARIO MONTES CLAROS; MONTES CLAROS-PJ-06PJ
657 1116700 ARIEL DE OLIVEIRA SANTOS ESTAGIARIO DIVINOPOLIS; DIVINOPOLIS-PJ-09PJ 0,00 0,00 0,00 54,00 0,00 0,00 0,00 0,00 0,00 31/10/2020
658 537600 ARIELA FREIRE MONTIJO ANALISTA DO MP ARCOS - COMARCA; ARCOS-PJ-01PJ 1.100,00 769,39 450,00 0,00 0,00 0,00 0,00 0,00 0,00 31/10/2020
659 182000 ARILSON ALEXANDRE MARTINS MAGALHAES OFICIAL DO MP JOÃO MONLEVADE - COMARCA; JOAO MONLEVADE-PJ-01PJ 1.100,00 1.538,78 450,00 0,00 0,00 0,00 0,00 0,00 0,00 31/10/2020
660 511000 ARISLANE CAROLINA DA SILVA ANALISTA DO MP CAMPINA VERDE - COMARCA; CAMPINA VERDE-PJ-UNPJ 1.100,00 1.538,78 450,00 0,00 0,00 0,00 0,00 0,00 0,00 31/10/2020
661 212000 ARLEN DE OLIVEIRA FERNANDES PROMOT.ENTRANC.ESPECIAL BELO HORIZONTE - COMARCA; BH-12PJ JUIZO CRIMINAL-GAB 098PJ 1.100,00 0,00 2.302,56 0,00 13.475,64 0,00 0,00 0,00 514,69 31/10/2020
662 170000 ARLEY BRITES DA SILVA ASSESSOR BELO HORIZONTE - COMARCA; BH-14PJ DEFESA CONSUMIDOR-SECRETARIA 1.100,00 0,00 450,00 0,00 0,00 0,00 0,00 0,00 0,00 31/10/2020
663 120400 ARLINDO CASSIO DA CRUZ OFICIAL DO MP SÃO GONÇALO DO SAPUCAÍ - COMARCA; SAO GONCALO DO SAPUCAI-PJ-01PJ 1.100,00 0,00 450,00 0,00 0,00 0,00 0,00 0,00 0,00 31/10/2020
664 243700 ARLINDO MARCIO LACERDA OFICIAL DO MP CONTAGEM - COMARCA; CONTAGEM-PJ-SECRETARIA 1.100,00 0,00 450,00 0,00 0,00 0,00 1.445,27 0,00 0,00 31/10/2020
665 111900 ARNALDO ALVES SOARES PROCURADOR DE JUSTICA BELO HORIZONTE - COMARCA; GABINETE DE PROCURADOR DE JUSTIÇA - SALA 306 1.100,00 0,00 2.302,56 0,00 23.641,48 0,00 0,00 0,00 541,78 31/10/2020
666 392100 ARNALDO DE ANDRADE OFICIAL DO MP DIVINÓPOLIS - COMARCA; DIVINOPOLIS-PJ-02PJ 1.100,00 769,39 450,00 0,00 0,00 0,00 1.445,27 0,00 0,00 31/10/2020
667 75900 ARNALDO GOMES RIBEIRO PROCURADOR DE JUSTICA BELO HORIZONTE - COMARCA; GABINETE DE PROCURADOR DE JUSTIÇA - SALA 602 1.100,00 0,00 0,00 0,00 39.008,44 0,00 0,00 0,00 541,78 31/10/2020
668 642400 ARTANE INARDE DE SIQUEIRA DAMASCENO ANALISTA DO MP BELO HORIZONTE - COMARCA; PROC JUST RECURSOS ESP E EXTRAORD CRIMINAIS 1.100,00 769,39 450,00 0,00 0,00 0,00 0,00 0,00 0,00 31/10/2020
669 1145900 ARTEMIS RIBEIRO DE NORONHA ESTAGIARIO SAO LOURENCO; SAO LOURENCO-PJ-02PJ 0,00 0,00 0,00 81,00 0,00 0,00 0,00 0,00 0,00 31/10/2020
670 1006500 ARTHUR BRANDAO ALBUQUERQUE ESTAGIARIO BELO HORIZONTE; DIV FISCAL ADM CONT TERCEIRIZACAO 0,00 0,00 0,00 180,00 0,00 0,00 0,00 0,00 0,00 31/10/2020
671 991200 ARTHUR DE SOUZA MENEZES ESTAGIARIO CASSIA; CASSIA-PJ-02PJ 0,00 0,00 0,00 99,00 0,00 0,00 0,00 0,00 0,00 31/10/2020
672 1070400 ARTHUR ESPINDULA VILAS ESTAGIARIO RESPLENDOR; RESPLENDOR-PJ-UNPJ 0,00 0,00 0,00 117,00 0,00 0,00 0,00 0,00 0,00 31/10/2020
673 1146000 ARTHUR FELIX VELAME ESTAGIARIO GOVERNADOR VALADARES; GOVERNADOR VALADARES-PJ-16PJ 0,00 0,00 0,00 189,00 0,00 0,00 0,00 0,00 0,00 31/10/2020
674 1085200 ARTHUR JOSE RODRIGUES CARVALHO ESTAGIARIO BELO HORIZONTE; DSMT-LABORATORIO DE MANUTENCAO 0,00 0,00 0,00 108,00 0,00 0,00 0,00 0,00 0,00 31/10/2020
675 1125200 ARTHUR JOSE VIEIRA GOMES SALES ESTAGIARIO BELO HORIZONTE; GABINETE DE PROCURADOR DE JUSTIÇA - SALA 713 0,00 0,00 0,00 126,00 0,00 0,00 0,00 0,00 0,00 31/10/2020
676 1119700 ARTHUR POZAM GARRIDO ESTAGIARIO 0,00 0,00 0,00 117,00 0,00 0,00 0,00 0,00 0,00 31/10/2020
677 1168200 ARTHUR RICART DA COSTA NETO ESTAGIARIO SAO JOAO DEL REI; SAO JOAO DEL REI-PJ-05PJ 0,00 0,00 0,00 99,00 0,00 0,00 0,00 0,00 0,00 31/10/2020
678 1181100 ARTUR FONTE BOA TEOFILO ESTAGIARIO BELO HORIZONTE; DIRET DE ESTAGIOS E CONVENIOS ACADEMICOS 0,00 0,00 0,00 99,00 0,00 0,00 0,00 0,00 337,87 31/10/2020
679 221400 ARTUR FORSTER GIOVANNINI PROMOTOR 2A ENTRANCIA TRÊS PONTAS - COMARCA; TRES PONTAS-PJ-01PJ 1.100,00 0,00 2.694,64 0,00 12.801,86 0,00 0,00 0,00 488,96 31/10/2020
680 1096900 ARTUR FRANCISCO DURAES BATISTA ESTAGIARIO
681 1167800 ARTUR TAVARES PEREIRA SOARES ESTAGIARIO BELO HORIZONTE; BH-09PJ AUDITORIA MILITAR-GAB 161PJ
682 313500 ARY PEDROSA BITTENCOURT PROMOT.ENTRANC.ESPECIAL SANTA LUZIA - COMARCA; SANTA LUZIA-PJ-05PJ 1.100,00 0,00 1.599,00 0,00 13.475,64 0,00 0,00 0,00 514,69 31/10/2020
683 1104000 ASTROGILDO JUNIOR KRUL MACIEL ESTAGIARIO GOVERNADOR VALADARES; COOR REG APOIO COM INC MOB VALE DO RIO DOCE
684 1067900 ATENAS CRISTINI DE LACERDA E RODRIGUES ESTAGIARIO VICOSA; VICOSA-PJ-02PJ 0,00 0,00 0,00 45,00 0,00 0,00 0,00 0,00 0,00 31/10/2020
685 315700 ATHAIDE FRANCISCO PERES OLIVEIRA PROMOTOR 2A ENTRANCIA PATOS DE MINAS - COMARCA; COORD REG BACIAS PARACATU,URUCUIA E ABAETE 1.100,00 0,00 3.200,47 0,00 8.534,57 0,00 0,00 0,00 0,00 31/10/2020
686 1181000 AUGUSTO CARMACIO ESTAGIARIO ELOI MENDES; ELOI MENDES-PJ-UNPJ 0,00 0,00 0,00 72,00 0,00 0,00 0,00 0,00 0,00 31/10/2020
687 666600 AUGUSTO REIS BALLARDIM PROMOTOR 1A ENTRANCIA ITAMARANDIBA - COMARCA; ITAMARANDIBA-PJ-UNPJ 1.100,00 0,00 1.407,12 0,00 12.161,76 0,00 0,00 0,00 464,51 31/10/2020
688 302100 AUGUSTO ROUSSEAU DE CASTRO ANALISTA DO MP CATAGUASES - COMARCA; CATAGUASES-PJ-02PJ 1.100,00 0,00 450,00 0,00 0,00 0,00 0,00 0,00 0,00 31/10/2020
689 540200 AUREA AVELAR BITTENCOURT OFICIAL DO MP BELO HORIZONTE - COMARCA; GRUPO ESP PROM JUST DEF PROB ADM PAT PUB 1.100,00 0,00 450,00 0,00 0,00 0,00 0,00 0,00 0,00 31/10/2020
690 183200 AURELIANO MAGELA DE REZENDE COORDENADOR/OFICIAL BELO HORIZONTE - COMARCA; COORD DE GABINETE DO PGJ 1.100,00 0,00 450,00 0,00 0,00 0,00 0,00 0,00 0,00 31/10/2020
691 106500 AVAIDE MARCOS MARIANO PROMOT.ENTRANC.ESPECIAL UBERLÂNDIA - COMARCA; UBERLANDIA-PJ-13PJ 1.100,00 0,00 1.279,20 0,00 13.475,64 0,00 0,00 0,00 514,69 31/10/2020
692 629400 AYESKA DA COSTA VAL MOURA DABIEN OFICIAL DO MP BELO HORIZONTE - COMARCA; SUPERINTENDENCIA GESTÃO DE PESSOAS 1.100,00 0,00 450,00 0,00 0,00 0,00 0,00 0,00 0,00 31/10/2020
693 151800 AYLOR LUIZ MEIRELLES JUNIOR PROMOTOR 2A ENTRANCIA SÃO DOMINGOS DO PRATA - COMARCA; SAO DOMINGOS DO PRATA-PJ-UNPJ 1.100,00 0,00 2.153,32 0,00 21.336,43 0,00 0,00 0,00 488,96 31/10/2020
694 1122200 AYMEE JOHANSSENN TYNEE CORREIA ALVES ESTAGIARIO NOVA LIMA; NOVA LIMA-PJ-01PJ 0,00 0,00 0,00 90,00 0,00 0,00 0,00 0,00 0,00 31/10/2020
695 1152400 AYUME PINTO OLIVEIRA ESTAGIARIO AGUAS FORMOSAS; AGUAS FORMOSAS-PJ-UNPJ 0,00 0,00 0,00 171,00 0,00 0,00 0,00 0,00 0,00 31/10/2020
696 1130600 BARBARA APARECIDA RODRIGUES DE CASTRO ESTAGIARIO MARTINHO CAMPOS; MARTINHO CAMPOS-PJ-UNPJ 0,00 0,00 0,00 189,00 0,00 0,00 0,00 0,00 0,00 31/10/2020
697 1036600 BARBARA CANELLA CORREA ESTAGIARIO VARGINHA; VARGINHA-PJ-06PJ 0,00 0,00 0,00 180,00 0,00 0,00 0,00 0,00 0,00 31/10/2020
698 1051900 BARBARA CHAVES OLIVEIRA ESTAGIARIO BELO HORIZONTE; PROC. JUSTICA DIR. DIFUSOS E COLETIVOS
699 1087100 BARBARA CLAUDINO GUIMARAES DIAS ESTAGIARIO BELO HORIZONTE; BH-09PJ AUDITORIA MILITAR-GAB 002PJ
700 1150900 BARBARA COSTA ALVES ESTAGIARIO MONTES CLAROS; MONTES CLAROS-PJ-SECRETARIA 0,00 0,00 0,00 99,00 0,00 0,00 0,00 0,00 0,00 31/10/2020
701 1069000 BARBARA CRISTINA MENDES BANDEIRA DE MELO ESTAGIARIO BELO HORIZONTE; GABINETE DE PROCURADOR DE JUSTIÇA - SALA 1009 0,00 0,00 0,00 9,00 0,00 0,00 0,00 0,00 0,00 31/10/2020
702 1163600 BARBARA CRISTINA SOUZA E SOUSA ESTAGIARIO BELO HORIZONTE; BH-23PJ INFRACIONAL 0,00 0,00 0,00 36,00 0,00 0,00 0,00 0,00 0,00 31/10/2020
703 1030400 BARBARA CRISTINA TAVARES CARNEIRO ESTAGIARIO BELO HORIZONTE; PROC. JUSTICA CRIMINAL 0,00 0,00 0,00 36,00 0,00 0,00 0,00 0,00 0,00 31/10/2020
704 1134200 BARBARA DANIELA ELIAS JAQUES ESTAGIARIO PRADOS; PRADOS-PJ-UNPJ 0,00 0,00 0,00 189,00 0,00 0,00 0,00 0,00 0,00 31/10/2020
705 1118700 BARBARA DE MELO CARNEIRO ESTAGIARIO 0,00 0,00 0,00 90,00 0,00 0,00 0,00 0,00 0,00 31/10/2020
706 1168500 BARBARA DE OLIVEIRA ALVES ESTAGIARIO MANTENA; MANTENA-PJ-03PJ 0,00 0,00 0,00 189,00 0,00 0,00 0,00 0,00 0,00 31/10/2020
707 1168400 BARBARA DE SOUSA LIMA MELO ESTAGIARIO BELO HORIZONTE; PROMOT ESTADUAL DE DEF PATRI CULT E TUR DE MG
708 1166500 BARBARA FERNANDES AMARAL ESTAGIARIO GOVERNADOR VALADARES; GOVERNADOR VALADARES-PJ-04PJ 0,00 0,00 0,00 189,00 0,00 0,00 0,00 0,00 0,00 31/10/2020
709 314700 BARBARA FRANCINE PRETTE NUNES PROMOTOR 1A ENTRANCIA PERDIZES - COMARCA; PERDIZES-PJ-UNPJ 1.100,00 0,00 2.217,28 0,00 20.269,61 0,00 0,00 0,00 464,51 31/10/2020
710 652800 BARBARA JULIANNE MOREIRA CASTRO ASSESSOR BELO HORIZONTE - COMARCA; ASSESS TECNICO-JUR JUNTO AS PROC. DE JUST 1.100,00 0,00 450,00 0,00 0,00 0,00 0,00 0,00 0,00 31/10/2020
711 1126300 BARBARA LORENA PEREIRA SOUSA ESTAGIARIO BELO HORIZONTE; BH-18PJ VIOLENCIA DOMESTICA-SECRETARIA 0,00 0,00 0,00 54,00 0,00 0,00 0,00 0,00 0,00 31/10/2020
712 1089900 BARBARA LOURENCO LIMA ESTAGIARIO JANAUBA; JANAUBA-PJ-02PJ 0,00 0,00 0,00 189,00 0,00 0,00 0,00 0,00 0,00 31/10/2020
713 1140000 BARBARA MAIA DE MEDEIROS ESTAGIARIO JUIZ DE FORA; JUIZ DE FORA-PJ-03PJ 0,00 0,00 0,00 126,00 0,00 0,00 0,00 0,00 0,00 31/10/2020
714 1078500 BARBARA MARIA COSTA PEREIRA ESTAGIARIO MONTES CLAROS; MONTES CLAROS-PJ-12PJ 0,00 0,00 0,00 153,00 0,00 0,00 0,00 0,00 0,00 31/10/2020
715 1074400 BARBARA MARKIAZI LIMA GALVAO ESTAGIARIO DIVINOPOLIS; DIVINOPOLIS-PJ-13PJ 0,00 0,00 0,00 126,00 0,00 0,00 0,00 0,00 0,00 31/10/2020
716 666500 BARBARA MARTINS DE SOUZA PROMOTOR 2A ENTRANCIA MANTENA - COMARCA; MANTENA-PJ-02PJ 1.100,00 0,00 703,56 0,00 12.801,86 0,00 0,00 0,00 488,96 31/10/2020
717 1168100 BARBARA MIRANDA MEDRADO DE SOUZA ESTAGIARIO BELO HORIZONTE; ASSESSORIA ESPECIAL DO PGJ 0,00 0,00 0,00 63,00 0,00 0,00 0,00 0,00 0,00 31/10/2020
718 944000 BARBARA QUEIROZ FONSECA ESTAGIARIO PATOS DE MINAS; PATOS DE MINAS-PJ-02PJ 0,00 0,00 0,00 189,00 0,00 0,00 0,00 0,00 0,00 31/10/2020
719 663600 BARBARA REGINA PEREIRA DE PINHO MAGALHAES ASSESSOR BELO HORIZONTE - COMARCA; CAO-DH CONT EXT ATIV POLIC E AP COMUNIT-REC 1.100,00 0,00 450,00 0,00 0,00 0,00 0,00 0,00 0,00 31/10/2020
720 1034600 BARBARA REZENDE SILVEIRA BAIA ALVES ESTAGIARIO BELO HORIZONTE; PROC. JUSTICA CRIMINAL 0,00 0,00 0,00 180,00 0,00 0,00 0,00 0,00 0,00 31/10/2020
721 685500 BARBARA RODRIGUES DE PAULA PROMOTOR SUBSTITUTO BELO HORIZONTE - COMARCA; CENTRO DE ESTUDOS E APERFEICOAMENTO FUNCIONAL 1.100,00 0,00 982,10 0,00 0,00 0,00 0,00 0,00 0,00 31/10/2020
722 1111100 BARBARA RODRIGUES SOUZA ESTAGIARIO ITAPECERICA; ITAPECERICA-PJ-UNPJ 0,00 0,00 0,00 72,00 0,00 0,00 0,00 0,00 0,00 31/10/2020
723 1003200 BARBARA SANTOS SILVA ESTAGIARIO PAINS; ALFENAS-PJ-03PJ
724 546500 BARBARA ZACARONI GOULART OFICIAL DO MP BETIM - COMARCA; BETIM-PJ-08PJ 1.100,00 0,00 450,00 0,00 0,00 0,00 0,00 0,00 0,00 31/10/2020
725 316500 BEATRIZ ABILVIA DA SILVA ANALISTA DO MP GOVERNADOR VALADARES - COMARCA; GOVERNADOR VALADARES-PJ-07PJ 1.100,00 0,00 450,00 0,00 0,00 0,00 0,00 0,00 0,00 31/10/2020
726 311800 BEATRIZ APARECIDA SOARES GANEM OFICIAL DO MP ITAMBACURI - COMARCA; ITAMBACURI-PJ-02PJ 1.100,00 0,00 450,00 0,00 0,00 0,00 0,00 0,00 0,00 31/10/2020
727 1085300 BEATRIZ ARANHA QUINTAO ESTAGIARIO BELO HORIZONTE; BH-07PJ 02 TRIBUNAL DO JURI-GAB 063PJ
728 266800 BEATRIZ AUGUSTA VILACA GOMES DE HUBER OFICIAL DO MP BELO HORIZONTE - COMARCA; BH-05PJ-JUÍZO SUCESSÕES-SEC 1.100,00 0,00 450,00 0,00 0,00 0,00 0,00 0,00 0,00 31/10/2020
729 1075900 BEATRIZ BAR INFANTE DUARTE PINTO ESTAGIARIO BELO HORIZONTE; BH-18PJ VIOLENCIA DOMESTICA-GAB 007PJ
730 1122400 BEATRIZ BIANCO HELENA ESTAGIARIO POCOS DE CALDAS; POCOS DE CALDAS-PJ-05PJ 0,00 0,00 0,00 117,00 0,00 0,00 0,00 0,00 0,00 31/10/2020
731 235200 BEATRIZ BOTELHO BATISTA OFICIAL DO MP BELO HORIZONTE - COMARCA; BH-21PJ TUTELA FUNDACOES-SECRETARIA 1.100,00 0,00 450,00 0,00 0,00 0,00 0,00 0,00 0,00 31/10/2020
732 1109800 BEATRIZ OLIVEIRA SILVA ESTAGIARIO NOVA LIMA; NOVA LIMA-PJ-01PJ 0,00 0,00 0,00 144,00 0,00 0,00 0,00 0,00 0,00 31/10/2020
733 182300 BEATRIZ PAULA SOUSA RAMOS OFICIAL DO MP MARIANA - COMARCA; MARIANA-PJ-01PJ 1.100,00 0,00 450,00 0,00 0,00 0,00 0,00 0,00 0,00 31/10/2020
734 1018600 BEATRIZ PERES FURLANI ESTAGIARIO UBA; COORD REG BACIA DO RIO PARAIBA DO SUL
735 906300 BEATRIZ REIS ABREU ESTAGIARIO MONTES CLAROS; MONTES CLAROS-PJ-01PJ 0,00 0,00 0,00 162,00 0,00 0,00 0,00 0,00 0,00 31/10/2020
736 1063700 BEATRIZ ROMEIRO DO CARMO ESTAGIARIO MANHUMIRIM; MANHUMIRIM-PJ-01PJ 0,00 0,00 0,00 45,00 0,00 0,00 0,00 0,00 0,00 31/10/2020
737 964400 BEATRIZ SIMAS TELES ROMANO ESTAGIARIO BELO HORIZONTE; PROC. JUSTICA DE HABEAS CORPUS
738 1184300 BEATRIZ SOUSA LACERDA ESTAGIARIO 0,00 0,00 0,00 18,00 0,00 0,00 0,00 0,00 0,00 31/10/2020
739 1079900 BEATRIZ VIEIRA COSTA ESTAGIARIO BELO HORIZONTE; BH-12PJ JUIZO CRIMINAL-GAB 083PJ
740 507000 BELCHIOR FRANKLIN AMARAL LEITE ANALISTA DO MP BELO HORIZONTE - COMARCA; CENTRAL DE APOIO TECNICO 1.100,00 769,39 450,00 0,00 0,00 0,00 0,00 0,00 569,64 31/10/2020
741 345100 BENITO ELIAS RODRIGUES ANALISTA DO MP BARBACENA - COMARCA; BARBACENA - SECRETARIA DAS PJS CRIMINAIS 1.100,00 0,00 450,00 0,00 0,00 0,00 0,00 0,00 1.521,30 31/10/2020
742 207300 BENITO VIEIRA DOS SANTOS ANALISTA DO MP BELO HORIZONTE - COMARCA; PROC JUST ESP ACOES COMP ORIG CRIMINAL-ASSESS 1.100,00 0,00 450,00 0,00 0,00 0,00 0,00 0,00 0,00 31/10/2020
743 84700 BERGSON CARDOSO GUIMARAES PROMOTOR 2A ENTRANCIA CAXAMBU - COMARCA; CAXAMBU-PJ-UNPJ 1.100,00 0,00 2.771,60 0,00 8.534,57 0,00 0,00 0,00 0,00 31/10/2020
744 480200 BERNADETE NUNES DOS SANTOS ANALISTA DO MP GUANHÃES - COMARCA; GUANHAES-PJ-02PJ 1.100,00 0,00 450,00 0,00 0,00 0,00 0,00 0,00 0,00 31/10/2020
745 969400 BERNARDO ALVES GOMES ESTAGIARIO BELO HORIZONTE; BH-15PJ M AMB PAT HIST CULT-GAB 116PJ 0,00 0,00 0,00 81,00 0,00 0,00 0,00 0,00 0,00 31/10/2020
746 1006600 BERNARDO DE ALMEIDA VIEIRA ESTAGIARIO SAO JOAO DEL REI; SAO JOAO DEL REI-PJ-03PJ
747 456700 BERNARDO DE MOURA LIMA PAIVA JEHA PROMOTOR 2A ENTRANCIA CARMO DO PARANAÍBA - COMARCA; CARMO DO PARANAIBA-PJ-01PJ 1.100,00 0,00 2.451,80 0,00 8.534,58 0,00 0,00 0,00 488,96 31/10/2020
748 666800 BERNARDO DUMONT PIRES PROMOTOR 2A ENTRANCIA PEDRA AZUL - COMARCA; PEDRA AZUL-PJ-01PJ 1.100,00 0,00 703,56 0,00 12.801,86 0,00 0,00 0,00 488,96 31/10/2020
749 995400 BERNARDO MARTINS FERREIRA DE MELLO ESTAGIARIO BELO HORIZONTE; BH-07PJ 01 TRIBUNAL DO JURI-GAB 065PJ 0,00 0,00 0,00 63,00 0,00 0,00 0,00 0,00 0,00 31/10/2020
750 1099400 BERNARDO PIFANO DE CASTRO ESTAGIARIO JUIZ DE FORA; JUIZ DE FORA-PJ-10PJ 0,00 0,00 0,00 81,00 0,00 0,00 0,00 0,00 0,00 31/10/2020
751 74300 BERTOLDO MATEUS DE OLIVEIRA FILHO PROCURADOR DE JUSTICA BELO HORIZONTE - COMARCA; EXTINTA-COORD EST DEF DIR FAM PES DEFIC IDOSO 1.100,00 0,00 2.451,80 0,00 23.641,48 0,00 0,00 0,00 541,78 31/10/2020
752 162900 BETANIA CABRAL DE PINA LARCHER PROMOT.ENTRANC.ESPECIAL CONTAGEM - COMARCA; CONTAGEM-PJ-18PJ 1.100,00 0,00 980,72 0,00 0,00 0,00 0,00 0,00 0,00 31/10/2020
753 378400 BETANIA FARNESI DE SOUZA E SILVA OFICIAL DO MP SETE LAGOAS - COMARCA; SETE LAGOAS-PJ-SEC CRIMINAIS 1.100,00 0,00 450,00 0,00 0,00 0,00 0,00 0,00 0,00 31/10/2020
754 387400 BETANIA MENDONCA DE ASSIS CARVALHO ANALISTA DO MP JUIZ DE FORA - COMARCA; JUIZ DE FORA-PJ-03PJ 1.100,00 769,39 450,00 0,00 0,00 0,00 0,00 0,00 0,00 31/10/2020
755 1147500 BETHANIA MORENA RODRIGUES GOMES ESTAGIARIO RIBEIRAO DAS NEVES; RIBEIRAO DAS NEVES-PJ-10PJ 0,00 0,00 0,00 171,00 0,00 0,00 0,00 0,00 0,00 31/10/2020
756 926600 BIANCA ARRUDA MOREIRA ESTAGIARIO MUTUM; MUTUM-PJ-UNPJ 0,00 0,00 0,00 135,00 0,00 0,00 0,00 0,00 0,00 31/10/2020
757 1033900 BIANCA CRISTINA SOUZA ESTAGIARIO PATOS DE MINAS; PATOS DE MINAS-PJ-04PJ 0,00 0,00 0,00 99,00 0,00 0,00 0,00 0,00 0,00 31/10/2020
758 1108000 BIANCA DE CASTRO RAMOS ESTAGIARIO CONTAGEM; CONTAGEM-PJ-20PJ 0,00 0,00 0,00 72,00 0,00 0,00 0,00 0,00 0,00 31/10/2020
759 1025000 BIANCA DE OLIVEIRA BORGES ESTAGIARIO ITUIUTABA; ITUIUTABA-PJ-03PJ 0,00 0,00 0,00 45,00 0,00 0,00 0,00 0,00 0,00 31/10/2020
760 1115600 BIANCA EDUARDA RIBEIRO COSTA ESTAGIARIO UBERABA; UBERABA-PJ-05PJ 0,00 0,00 0,00 72,00 0,00 0,00 0,00 0,00 0,00 31/10/2020
761 450300 BIANCA OLIVEIRA DE ALBUQUERQUE ANALISTA DO MP BELO HORIZONTE - COMARCA; BH-10PJ EXECUÇÃO PENAL-SECRETARIA 1.100,00 0,00 450,00 0,00 0,00 0,00 0,00 0,00 0,00 31/10/2020
762 1136100 BIANCA RIBEIRO BORGES ESTAGIARIO BELO HORIZONTE; BH-12PJ JUIZO CRIMINAL-GAB 086PJ 0,00 0,00 0,00 189,00 0,00 0,00 0,00 0,00 0,00 31/10/2020
763 535400 BIANCA SALOTO ROSSI ANALISTA DO MP SANTOS DUMONT - COMARCA; SANTOS DUMONT-PJ-01PJ 1.100,00 0,00 450,00 0,00 0,00 0,00 0,00 0,00 0,00 31/10/2020
764 120800 BRAS MARQUES DE SOUZA ANALISTA DO MP BELO HORIZONTE - COMARCA; SUPERINTENDENCIA DE GESTAO ADMINISTRATIVA 1.100,00 0,00 450,00 0,00 0,00 0,00 0,00 0,00 0,00 31/10/2020
765 1179500 BRENDA ALCANTARA RAMALHO ESTAGIARIO BETIM; BETIM-PJ-03PJ 0,00 0,00 0,00 144,00 0,00 0,00 0,00 0,00 0,00 31/10/2020
766 1084600 BRENDA ALEIXA DIAS DA SILVA ESTAGIARIO ITABIRA; ITABIRA-PJ-01PJ
767 1159100 BRENDA CUSTODIO DE ABREU ESTAGIARIO CONCEICAO DAS ALAGOAS; CONCEICAO DAS ALAGOAS-PJ-01PJ 0,00 0,00 0,00 63,00 0,00 0,00 0,00 0,00 0,00 31/10/2020
768 1127000 BRENDA LORENA DE ALMEIDA ESTAGIARIO CONTAGEM; CONTAGEM-PJ-09PJ 0,00 0,00 0,00 144,00 0,00 0,00 0,00 0,00 0,00 31/10/2020
769 1034500 BRENDA LUIZA SILVA FERREIRA ESTAGIARIO BELO HORIZONTE; PROC. JUSTICA DIR. DIFUSOS E COLETIVOS
770 1179600 BRENDA SILVA ROCHA ESTAGIARIO BELO HORIZONTE; PROC. JUSTICA DE HABEAS CORPUS
771 1172300 BRENDA SILVERIO DA SILVA ESTAGIARIO CURVELO; CURVELO-PJ-04PJ 0,00 0,00 0,00 63,00 0,00 0,00 0,00 0,00 0,00 31/10/2020
772 937600 BRENNO VINICIUS MAGESTE ROSA ESTAGIARIO MANHUACU; MANHUACU-PJ-02PJ 0,00 0,00 0,00 153,00 0,00 0,00 0,00 0,00 0,00 31/10/2020
773 372400 BRENO COSTA DA SILVA COELHO PROMOTOR 2A ENTRANCIA VISCONDE DO RIO BRANCO - COMARCA; GAECO REGIONAL ZONA MATA-VISCONDE RIO BRANCO 1.100,00 0,00 2.025,40 0,00 12.801,86 0,00 0,00 0,00 488,96 31/10/2020
774 460900 BRENO CRISTIANO DE SOUZA REZENDE ANALISTA DO MP ITAÚNA - COMARCA; ITAUNA-PJ-02PJ 1.100,00 0,00 450,00 0,00 0,00 0,00 0,00 0,00 0,00 31/10/2020
775 969300 BRENO DIAS ROCHA ESTAGIARIO BELO HORIZONTE; SUPERINTENDENCIA DOS ORGAOS COLEGIADOS
776 966000 BRENO HENRIQUE FREITAS DE CARVALHO ESTAGIARIO FRUTAL; FRUTAL-PJ-01PJ 0,00 0,00 0,00 99,00 0,00 0,00 0,00 0,00 0,00 31/10/2020
777 96700 BRENO LINHARES LINTZ PROMOT.ENTRANC.ESPECIAL UBERLÂNDIA - COMARCA; UBERLANDIA-PJ-10PJ 1.100,00 0,00 0,00 0,00 22.459,40 0,00 0,00 0,00 514,69 31/10/2020
778 439500 BRENO MAX DE JESUS SILVEIRA PROMOTOR 2A ENTRANCIA CARANGOLA - COMARCA; CARANGOLA-PJ-02PJ 1.100,00 0,00 895,44 0,00 21.336,43 0,00 0,00 0,00 488,96 31/10/2020
779 439300 BRENO NASCIMENTO PACHECO PROMOTOR 2A ENTRANCIA PATROCÍNIO - COMARCA; PATROCINIO-PJ-01PJ 1.100,00 0,00 2.878,20 0,00 29.871,01 0,00 0,00 0,00 488,96 31/10/2020
780 239000 BRENO VENANCIO ROMANINI OFICIAL DO MP BELO HORIZONTE - COMARCA; BH-20PJ ORD ECON TRIBUTARIA-SECRETARIA 1.100,00 0,00 450,00 0,00 0,00 0,00 0,00 0,00 0,00 31/10/2020
781 1106200 BRIAN ATHER MARTINS ESTAGIARIO BARBACENA; BARBACENA-PJ-09PJ 0,00 0,00 0,00 99,00 0,00 0,00 0,00 0,00 0,00 31/10/2020
782 202201 BRIGITTE AMARALINA DE CALDAS LIMA OFICIAL DO MP NANUQUE - COMARCA; NANUQUE-PJ-03PJ 1.100,00 0,00 450,00 0,00 0,00 0,00 0,00 0,00 0,00 31/10/2020
783 1092100 BRUNA ALMEIDA LOPES ESTAGIARIO JUIZ DE FORA; JUIZ DE FORA-PJ-07PJ 0,00 0,00 0,00 45,00 0,00 0,00 0,00 0,00 0,00 31/10/2020
784 1030300 BRUNA ARRUDA PRATES ESTAGIARIO BELO HORIZONTE; BH-09PJ AUDITORIA MILITAR-GAB 161PJ
785 659300 BRUNA BODONI FACCIOLI PROMOTOR 2A ENTRANCIA NANUQUE - COMARCA; NANUQUE-PJ-01PJ 1.100,00 0,00 1.407,12 0,00 12.801,86 0,00 0,00 0,00 488,96 31/10/2020
786 1146500 BRUNA BOTELHO BUERI ESTAGIARIO DIAMANTINA; DIAMANTINA-PJ-02PJ 0,00 0,00 0,00 99,00 0,00 0,00 0,00 0,00 0,00 31/10/2020
787 1085600 BRUNA CARLA ALVES ESTAGIARIO SAO JOAO DEL REI; SAO JOAO DEL REI-PJ-04PJ 0,00 0,00 0,00 171,00 0,00 0,00 0,00 0,00 0,00 31/10/2020
788 962800 BRUNA CAROLINE LIMA ESTAGIARIO BELO HORIZONTE; BH-18PJ VIOLENCIA DOMESTICA-GAB 186PJ 0,00 0,00 0,00 126,00 0,00 0,00 0,00 0,00 0,00 31/10/2020
789 1010700 BRUNA CAROLINE VIANA DE LIMA ESTAGIARIO POUSO ALEGRE; POUSO ALEGRE-PJ-04PJ 0,00 0,00 0,00 126,00 0,00 0,00 0,00 0,00 0,00 31/10/2020
790 1153500 BRUNA DA CUNHA SILVA ESTAGIARIO BARBACENA; BARBACENA-PJ-04PJ 0,00 0,00 0,00 189,00 0,00 0,00 0,00 0,00 0,00 31/10/2020
791 1082600 BRUNA DE CASTRO VIEIRA ESTAGIARIO GOVERNADOR VALADARES; GOVERNADOR VALADARES-PJ-07PJ 0,00 0,00 0,00 126,00 0,00 0,00 0,00 0,00 0,00 31/10/2020
792 998700 BRUNA DE PAULA SANTOS ESTAGIARIO BELO HORIZONTE; OUVIDORIA DO MPMG 0,00 0,00 0,00 90,00 0,00 0,00 0,00 0,00 0,00 31/10/2020
793 1160000 BRUNA DEMETRIO PEREIRA ESTAGIARIO BELO HORIZONTE; BH-18PJ VIOLENCIA DOMESTICA 0,00 0,00 0,00 63,00 0,00 0,00 0,00 0,00 0,00 31/10/2020
794 1155000 BRUNA EVANGELISTA FERREIRA ESTAGIARIO AGUAS FORMOSAS; AGUAS FORMOSAS-PJ-UNPJ 0,00 0,00 0,00 171,00 0,00 0,00 0,00 0,00 0,00 31/10/2020
795 969700 BRUNA FABRINI OTHECHAR ESTAGIARIO BELO HORIZONTE; BH-12PJ JUIZO CRIMINAL-GAB 097PJ 0,00 0,00 0,00 99,00 0,00 0,00 0,00 0,00 0,00 31/10/2020
796 642300 BRUNA IZABELITA DE FATIMA OLIVEIRA COSTA OFICIAL DO MP BELO HORIZONTE - COMARCA; BH-02PJ FAMILIA-SECRETARIA 1.100,00 0,00 450,00 0,00 0,00 0,00 0,00 0,00 0,00 31/10/2020
797 513600 BRUNA KARLA MARTINS CARVALHO ANALISTA DO MP GOVERNADOR VALADARES - COMARCA; GOVERNADOR VALADARES-PJ-14PJ 1.100,00 0,00 450,00 0,00 0,00 0,00 0,00 0,00 0,00 31/10/2020
798 1008400 BRUNA LEAL SILVEIRA ESTAGIARIO ITUIUTABA; ITUIUTABA-PJ-03PJ
799 415100 BRUNA MARIA SOARES OLIVEIRA COSTA RAMOS ANALISTA DO MP UBÁ - COMARCA; COORD REG BACIA DO RIO PARAIBA DO SUL 1.100,00 0,00 450,00 0,00 0,00 0,00 0,00 0,00 0,00 31/10/2020
800 990100 BRUNA MENDES COELHO ESTAGIARIO BELO HORIZONTE; PROC. JUSTICA CIVEL
801 470000 BRUNA MORAES ANALISTA DO MP TOMBOS - COMARCA; TOMBOS-PJ-UNPJ 1.100,00 769,39 450,00 0,00 0,00 0,00 0,00 0,00 0,00 31/10/2020
802 614700 BRUNA NATTANY DE LIMA OFICIAL DO MP MANTENA - COMARCA; MANTENA-PJ-01PJ 1.100,00 0,00 450,00 0,00 0,00 0,00 0,00 0,00 0,00 31/10/2020
803 1084400 BRUNA PAULA AMARAL CEOLIN ESTAGIARIO BELO HORIZONTE; BH-12PJ JUIZO CRIMINAL-GAB 100PJ 0,00 0,00 0,00 108,00 0,00 0,00 0,00 0,00 0,00 31/10/2020
804 1150200 BRUNA PAULA RODRIGUES VASCONCELOS ESTAGIARIO UBERLANDIA; COORD REG PP TRIANGULO MINEIRO UBERLANDIA 0,00 0,00 0,00 189,00 0,00 0,00 0,00 0,00 0,00 31/10/2020
805 1134300 BRUNA QUEIROZ THOMAZ ESTAGIARIO TEOFILO OTONI; TEOFILO OTONI-PJ-09PJ 0,00 0,00 0,00 63,00 0,00 0,00 0,00 0,00 0,00 31/10/2020
806 631800 BRUNA RAPOSO JORGE OFICIAL DO MP JUIZ DE FORA - COMARCA; JUIZ DE FORA-PJ-06PJ 1.100,00 0,00 450,00 0,00 0,00 0,00 0,00 0,00 0,00 31/10/2020
807 1083600 BRUNA RIOS CELESTINO ESTAGIARIO CONSELHEIRO LAFAIETE; CONSELHEIRO LAFAIETE-PJ-07PJ
808 1180300 BRUNA RODRIGUES COBO ESTAGIARIO RIBEIRAO DAS NEVES; RIBEIRAO DAS NEVES-PJ-12PJ 0,00 0,00 0,00 36,00 0,00 0,00 0,00 0,00 0,00 31/10/2020
809 1146700 BRUNA SALES VIEIRA ESTAGIARIO FRUTAL; FRUTAL-PJ-02PJ 0,00 0,00 0,00 189,00 0,00 0,00 0,00 0,00 0,00 31/10/2020
810 1174400 BRUNA STEHLING SCHIRMER ESTAGIARIO BELO HORIZONTE; PROC. JUSTICA DE HABEAS CORPUS 0,00 0,00 0,00 189,00 0,00 0,00 0,00 0,00 0,00 31/10/2020
811 956400 BRUNA URSINE TIMO ESTAGIARIO BELO HORIZONTE; PROC JUST ESP ACOES COMP ORIG CRIMINAL-SEC 0,00 0,00 0,00 45,00 0,00 0,00 0,00 0,00 0,00 31/10/2020
812 1023300 BRUNIELY FERNANDES DA LUZ ESTAGIARIO BELO HORIZONTE; DIVISAO DE SERVICOS 0,00 0,00 0,00 45,00 0,00 0,00 0,00 0,00 0,00 31/10/2020
813 225100 BRUNO ALEXANDER VIEIRA SOARES PROMOT.ENTRANC.ESPECIAL BELO HORIZONTE - COMARCA; BH-17PJ PATRIMONIO PUBLICO-GAB 004PJ 1.100,00 0,00 2.174,64 0,00 13.475,64 0,00 0,00 0,00 514,69 31/10/2020
814 463800 BRUNO ALVES TEIXEIRA ANALISTA DO MP UBERLÂNDIA - COMARCA; UBERLANDIA-PJ-04PJ 1.100,00 0,00 450,00 0,00 0,00 0,00 0,00 0,00 0,00 31/10/2020
815 1097900 BRUNO ANDRADE ALVARENGA ESTAGIARIO OURO BRANCO; OURO BRANCO-PJ-UNPJ 0,00 0,00 0,00 189,00 0,00 0,00 0,00 0,00 0,00 31/10/2020
816 538500 BRUNO AUGUSTO DA SILVA OFICIAL DO MP SANTA LUZIA - COMARCA; SANTA LUZIA-PJ-03PJ 1.100,00 0,00 450,00 0,00 0,00 0,00 0,00 0,00 0,00 31/10/2020
817 318200 BRUNO BARROS DE SOUZA OFICIAL DO MP UBÁ - COMARCA; UBA-PJ-04PJ 1.100,00 0,00 450,00 0,00 0,00 0,00 0,00 0,00 0,00 31/10/2020
818 459600 BRUNO CASTELAR LUGAO MENDES OFICIAL DO MP GOVERNADOR VALADARES - COMARCA; GOVERNADOR VALADARES-PJ-01PJ 1.100,00 0,00 450,00 0,00 0,00 0,00 0,00 0,00 0,00 31/10/2020
819 361300 BRUNO CESAR MEDEIROS GIARDINI PROMOT.ENTRANC.ESPECIAL IPATINGA - COMARCA; IPATINGA-PJ-06PJ 1.100,00 0,00 2.409,16 0,00 13.475,64 0,00 0,00 0,00 514,69 31/10/2020
820 427400 BRUNO CESAR RIBEIRO DE PAIVA ANALISTA DO MP BELO HORIZONTE - COMARCA; ASSESS JUR DO CONS SUPERIOR DO MINISTERIO PUB 1.100,00 0,00 450,00 0,00 0,00 0,00 0,00 0,00 0,00 31/10/2020
821 380900 BRUNO CIRILO ANTUNES OFICIAL DO MP VARGINHA - COMARCA; VARGINHA-PJ-05PJ 1.100,00 0,00 450,00 0,00 0,00 0,00 0,00 0,00 0,00 31/10/2020
822 666700 BRUNO DE CARVALHO VASCONCELOS PROMOTOR SUBSTITUTO CORINTO - COMARCA; CORINTO-PJ-UNPJ 1.100,00 0,00 703,56 0,00 12.161,76 0,00 0,00 0,00 464,51 31/10/2020
823 329000 BRUNO DE MELO REIS ANALISTA DO MP PATROCÍNIO - COMARCA; PATROCINIO-PJ-02PJ 1.100,00 1.538,78 450,00 0,00 0,00 0,00 0,00 0,00 0,00 31/10/2020
824 339700 BRUNO FERNANDO TORRES LANA PROMOT.ENTRANC.ESPECIAL UBÁ - COMARCA; UBA-PJ-05PJ 1.100,00 0,00 852,80 0,00 13.475,64 0,00 0,00 0,00 514,69 31/10/2020
825 1151500 BRUNO FERREIRA BRAS OLIVEIRA ESTAGIARIO UBERLANDIA; GAECO REGIONAL DE UBERLANDIA 0,00 0,00 0,00 189,00 0,00 0,00 0,00 0,00 0,00 31/10/2020
826 360300 BRUNO GUERRA DE OLIVEIRA PROMOT.ENTRANC.ESPECIAL UBÁ - COMARCA; UBA-PJ-06PJ 1.100,00 0,00 1.279,20 0,00 13.475,64 0,00 0,00 0,00 514,69 31/10/2020
827 1066300 BRUNO HENRIQUE ALVES DE LIMA ESTAGIARIO SETE LAGOAS; SETE LAGOAS-PJ-03PJ 0,00 0,00 0,00 189,00 0,00 0,00 0,00 0,00 0,00 31/10/2020
828 378300 BRUNO HERDY LOPES DE OLIVEIRA ANALISTA DO MP GOVERNADOR VALADARES - COMARCA; GOVERNADOR VALADARES-PJ-03PJ 1.100,00 0,00 450,00 0,00 0,00 0,00 0,00 0,00 0,00 31/10/2020
829 529700 BRUNO JOSE BUENO DIAS OFICIAL DO MP SÃO SEBASTIÃO DO PARAÍSO - COMARCA; SAO SEBASTIAO DO PARAISO-PJ-02PJ 1.100,00 0,00 450,00 0,00 0,00 0,00 0,00 0,00 0,00 31/10/2020
830 1076400 BRUNO JOSE RIBEIRO ESTAGIARIO CLAUDIO; CLAUDIO-PJ-UNPJ 0,00 0,00 0,00 171,00 0,00 0,00 0,00 0,00 0,00 31/10/2020
831 967300 BRUNO LANNA DE OLIVEIRA FERRARI ESTAGIARIO JUIZ DE FORA; JUIZ DE FORA-PJ-14PJ 0,00 0,00 0,00 135,00 0,00 0,00 0,00 0,00 0,00 31/10/2020
832 350100 BRUNO LAUD SERRANO DOS REIS OFICIAL DO MP UBÁ - COMARCA; UBA-PJ-02PJ 1.100,00 0,00 450,00 0,00 0,00 0,00 0,00 0,00 0,00 31/10/2020
833 1125100 BRUNO MARQUES DA SILVA ESTAGIARIO BELO HORIZONTE; BH-23PJ CIVEL 0,00 0,00 0,00 54,00 0,00 0,00 0,00 0,00 0,00 31/10/2020
834 530600 BRUNO MARQUES DE ALMEIDA ROSSI PROMOTOR 1A ENTRANCIA PRESIDENTE OLEGÁRIO - COMARCA; PRESIDENTE OLEGARIO-PJ-UNPJ 1.100,00 0,00 2.409,16 0,00 20.269,61 0,00 0,00 0,00 464,51 31/10/2020
835 1028900 BRUNO MARQUES JIMENEZ ABAD ESTAGIARIO VARGINHA; VARGINHA-PJ-03PJ 0,00 0,00 0,00 90,00 0,00 0,00 0,00 0,00 0,00 31/10/2020
836 373800 BRUNO MARTINO DE ALBUQUERQUE ANALISTA DO MP PONTE NOVA - COMARCA; PONTE NOVA-PJ-03PJ 1.100,00 0,00 450,00 0,00 0,00 0,00 0,00 0,00 0,00 31/10/2020
837 1163200 BRUNO MORAIS MARQUES ESTAGIARIO CARMO DO PARANAIBA; CARMO DO PARANAIBA-PJ-01PJ 0,00 0,00 0,00 72,00 0,00 0,00 0,00 0,00 0,00 31/10/2020
838 470400 BRUNO NOVAIS CABRAL ANALISTA DO MP MUTUM - COMARCA; MUTUM-PJ-UNPJ 1.100,00 1.179,73 450,00 0,00 0,00 0,00 0,00 0,00 0,00 31/10/2020
839 457300 BRUNO OLIVEIRA MULLER PROMOT.ENTRANC.ESPECIAL ITABIRA - COMARCA; ITABIRA-PJ-05PJ 1.100,00 0,00 2.335,40 0,00 13.475,64 0,00 0,00 0,00 514,69 31/10/2020
840 648600 BRUNO RIBEIRO E MELO ASSESSOR BELO HORIZONTE - COMARCA; DIR RELACOES INSTITUCIONAIS 1.100,00 0,00 450,00 0,00 0,00 0,00 0,00 0,00 0,00 31/10/2020
841 369200 BRUNO ROBERTO DIAS DE OLIVEIRA OFICIAL DO MP BELO HORIZONTE - COMARCA; BH-22PJ PES COM DEF E IDOSOS-SECRETARIA 1.100,00 0,00 450,00 0,00 0,00 0,00 0,00 0,00 0,00 31/10/2020
842 547700 BRUNO ROBERTO SOUZA GONCALVES ANALISTA DO MP PARACATU - COMARCA; PARACATU-PJ-03PJ 1.100,00 1.538,78 450,00 0,00 0,00 0,00 0,00 0,00 0,00 31/10/2020
843 546100 BRUNO SA VIEIRA ANALISTA DO MP CORONEL FABRICIANO - COMARCA; CORONEL FABRICIANO-PJ-03PJ 1.100,00 0,00 450,00 0,00 0,00 0,00 0,00 0,00 0,00 31/10/2020
844 438200 BRUNO SALES PEREIRA ANALISTA DO MP BELO HORIZONTE - COMARCA; CENTRAL DE APOIO TECNICO-SETOR CONTABIL 1.100,00 769,39 450,00 0,00 0,00 0,00 0,00 0,00 0,00 31/10/2020
845 537400 BRUNO SANT'ANA CESAR ANALISTA DO MP CONTAGEM - COMARCA; CONTAGEM-PJ-21PJ 1.100,00 0,00 450,00 0,00 0,00 0,00 0,00 0,00 0,00 31/10/2020
846 343500 BRUNO SCHIAVO CRUZ PROMOT.ENTRANC.ESPECIAL IPATINGA - COMARCA; GAECO REGIONAL DE IPATINGA 1.100,00 0,00 2.878,20 0,00 13.475,64 0,00 0,00 0,00 514,69 31/10/2020
847 937500 BRUNO SEABRA DUMONT ESTAGIARIO BONFIM; BONFIM-PJ-UNPJ 0,00 0,00 0,00 162,00 0,00 0,00 0,00 0,00 0,00 31/10/2020
848 1155100 BRUNO SOARES FONSECA ESTAGIARIO TAIOBEIRAS; TAIOBEIRAS-PJ-UNPJ 0,00 0,00 0,00 189,00 0,00 0,00 0,00 0,00 0,00 31/10/2020
849 684000 BRUNO TORRANO AMORIM DE ALMEIDA PROMOTOR SUBSTITUTO BELO HORIZONTE - COMARCA; CENTRO DE ESTUDOS E APERFEICOAMENTO FUNCIONAL 1.100,00 0,00 2.385,09 0,00 0,00 0,00 0,00 0,00 0,00 31/10/2020
850 679000 BRUNO WILLIANS PAULINO DE MELLO ASSESSOR PROCURADOR JUSTICA BELO HORIZONTE - COMARCA; GABINETE DE PROCURADOR DE JUSTIÇA - SALA 1006 1.100,00 0,00 450,00 0,00 0,00 0,00 0,00 0,00 0,00 31/10/2020
851 655800 CAEL KALINOWSKI SOUZA MATTA INVESTIGADOR DE POLICIA 2 BELO HORIZONTE - COMARCA; NUCLEO DE INFORMACOES E INTELIGENCIA 1.100,00 0,00 0,00 0,00 0,00 0,00 0,00 0,00 0,00 31/10/2020
852 1047600 CAIO ALESSI FERREIRA DE CARVALHO ESTAGIARIO BELO HORIZONTE; BH-18PJ VIOLENCIA DOMESTICA-SECRETARIA 0,00 0,00 0,00 36,00 0,00 0,00 0,00 0,00 0,00 31/10/2020
853 1135500 CAIO ANTONIO DO AMARAL BRAGA ALVES ESTAGIARIO ESPERA FELIZ; ESPERA FELIZ-PJ-UNPJ 0,00 0,00 0,00 180,00 0,00 0,00 0,00 0,00 0,00 31/10/2020
854 1051200 CAIO BASSOLI ESTAGIARIO JUIZ DE FORA; JUIZ DE FORA-PJ-20PJ 0,00 0,00 0,00 99,00 0,00 0,00 0,00 0,00 0,00 31/10/2020
855 666900 CAIO CESAR ESPIRITO SANTO DO NASCIMENTO PROMOTOR 2A ENTRANCIA SALINAS - COMARCA; SALINAS-PJ-01PJ 1.100,00 0,00 1.300,52 0,00 13.068,57 0,00 0,00 0,00 1.366,87 31/10/2020
856 685600 CAIO CESAR FERREIRA PROMOTOR SUBSTITUTO BELO HORIZONTE - COMARCA; CENTRO DE ESTUDOS E APERFEICOAMENTO FUNCIONAL 1.100,00 0,00 0,00 0,00 0,00 0,00 0,00 0,00 0,00 31/10/2020
857 1023500 CAIO FELIPE MONTEIRO SILVEIRA ESTAGIARIO BOCAIUVA; BOCAIUVA-PJ-02PJ 0,00 0,00 0,00 189,00 0,00 0,00 0,00 0,00 0,00 31/10/2020
858 405800 CAIO FERNANDO RODRIGUES DE OLIVEIRA ANALISTA DO MP BELO HORIZONTE - COMARCA; ASSESS TECNICO-JUR JUNTO AS PROC. DE JUST 1.100,00 0,00 450,00 0,00 0,00 0,00 0,00 0,00 0,00 31/10/2020
859 530000 CAIO GUEDES DE OLIVEIRA ANALISTA DO MP DIAMANTINA - COMARCA; DIAMANTINA-PJ-02PJ 1.100,00 769,39 450,00 0,00 0,00 0,00 0,00 0,00 0,00 31/10/2020
860 1118400 CAIO HENRIQUE DE FREITAS MELO ESTAGIARIO UBERABA; UBERABA-PJ-02PJ 0,00 0,00 0,00 81,00 0,00 0,00 0,00 0,00 0,00 31/10/2020
861 971000 CAIO LEMOS SILVA ESTAGIARIO PASSOS; PASSOS-PJ-02PJ 0,00 0,00 0,00 189,00 0,00 0,00 0,00 0,00 0,00 31/10/2020
862 1070500 CAIO LUCAS FERREIRA DOS SANTOS ESTAGIARIO BELO HORIZONTE; DIRETORIA DE SISTEMAS DE INFORMACAO 0,00 0,00 0,00 0,00 452,50 0,00 0,00 0,00 0,00 31/10/2020
863 1026300 CAIO MAGNO GONCALVES DOS SANTOS ESTAGIARIO BONFINOPOLIS DE MINAS; BONFINOPOLIS DE MINAS-PJ-UNPJ 0,00 0,00 0,00 108,00 0,00 0,00 0,00 0,00 0,00 31/10/2020
864 1166800 CAIO MARINI LIMA COSTA ESTAGIARIO BELO HORIZONTE; BH-08PJ JUIZADO ESPECIAL-GAB 168PJ 0,00 0,00 0,00 108,00 0,00 0,00 0,00 0,00 0,00 31/10/2020
865 491400 CAIO MIRANDA JUNQUEIRA ANALISTA DO MP BUENO BRANDAO - COMARCA; BUENO BRANDAO-PJ-UNPJ 1.100,00 769,39 450,00 0,00 0,00 0,00 0,00 0,00 0,00 31/10/2020
866 1145800 CAIO NAVARRO NEVES ESTAGIARIO ARAGUARI; ARAGUARI-PJ-02PJ 0,00 0,00 0,00 189,00 0,00 0,00 0,00 0,00 0,00 31/10/2020
867 668300 CAIO PALLU COSTA PROMOTOR SUBSTITUTO GOVERNADOR VALADARES - COMARCA; GOVERNADOR VALADARES-PJ-16PJ 1.100,00 0,00 1.407,12 0,00 12.161,76 0,00 0,00 0,00 464,51 31/10/2020
868 671600 CAIO ROTHSAHL BOTELHO PROMOTOR SUBSTITUTO ALMENARA - COMARCA; ALMENARA-PJ-03PJ 1.100,00 0,00 1.449,76 0,00 0,00 0,00 0,00 0,00 0,00 31/10/2020
869 171000 CAIUS VINICIUS GONZAGA GOULART PROMOT.ENTRANC.ESPECIAL BELO HORIZONTE - COMARCA; BH-12PJ JUIZO CRIMINAL-GAB 106PJ 1.100,00 0,00 0,00 0,00 13.475,64 0,00 0,00 0,00 514,69 31/10/2020
870 82300 CALIXTO OLIVEIRA SOUZA PROMOT.ENTRANC.ESPECIAL DIVINÓPOLIS - COMARCA; DIVINOPOLIS-PJ-01PJ 1.100,00 0,00 2.345,20 0,00 22.459,40 0,00 0,00 0,00 514,69 31/10/2020
871 415800 CAMILA ALVES DA SILVA ANALISTA DO MP CAETÉ - COMARCA; CAETE-PJ-01PJ 1.100,00 0,00 450,00 0,00 0,00 0,00 0,00 0,00 0,00 31/10/2020
872 684900 CAMILA APARECIDA PIRES PROMOTOR SUBSTITUTO BELO HORIZONTE - COMARCA; CENTRO DE ESTUDOS E APERFEICOAMENTO FUNCIONAL 1.100,00 0,00 1.157,47 0,00 0,00 0,00 0,00 0,00 0,00 31/10/2020
873 1063800 CAMILA BARBOSA DE REZENDE PAIVA ESTAGIARIO 0,00 0,00 0,00 0,00 452,50 0,00 0,00 0,00 0,00 31/10/2020
874 1069600 CAMILA BRITO NERY ESTAGIARIO UBERLANDIA; UBERLANDIA-PJ-05PJ 0,00 0,00 0,00 171,00 0,00 0,00 0,00 0,00 0,00 31/10/2020
875 1055500 CAMILA CAFIERO BICALHO ESTAGIARIO BELO HORIZONTE; BH-17PJ PATRIMONIO PUBLICO-GAB 120PJ 0,00 0,00 0,00 36,00 0,00 0,00 0,00 0,00 0,00 31/10/2020
876 555800 CAMILA CAROLINE ROCHA CHAVES OFICIAL DO MP SALINAS - COMARCA; SALINAS-PJ-01PJ 1.100,00 0,00 450,00 0,00 0,00 0,00 0,00 0,00 0,00 31/10/2020
877 1056400 CAMILA CARVALHO FREITAS ESTAGIARIO BELO HORIZONTE; PROC JUST ESP ACOES COMP ORIG CRIMINAL-GAB
878 445200 CAMILA CONDE ROCHA ANALISTA DO MP CONTAGEM - COMARCA; CONTAGEM-PJ-08PJ 1.100,00 769,39 450,00 0,00 0,00 0,00 0,00 0,00 0,00 31/10/2020
879 419900 CAMILA CUNNINGHAM PIMENTA DE PADUA ANALISTA DO MP BELO HORIZONTE - COMARCA; ASSESSORIA PSICOSSOCIAL 1.100,00 0,00 450,00 0,00 0,00 0,00 0,00 0,00 0,00 31/10/2020
880 998800 CAMILA DE CASTRO COELHO ESTAGIARIO ERVALIA; ERVALIA-PJ-UNPJ 0,00 0,00 0,00 144,00 0,00 0,00 0,00 0,00 0,00 31/10/2020
881 1107600 CAMILA DE SOUSA CUNHA ESTAGIARIO BARROSO; BARROSO-PJ-01PJ 0,00 0,00 0,00 171,00 0,00 0,00 0,00 0,00 0,00 31/10/2020
882 507700 CAMILA ELIZABETH RODRIGUES ANALISTA DO MP BELO HORIZONTE - COMARCA; BH-02PJ FAMILIA-SECRETARIA 1.100,00 0,00 450,00 0,00 0,00 0,00 0,00 0,00 0,00 31/10/2020
883 1182700 CAMILA FERREIRA DA SILVA PEREIRA ESTAGIARIO SETE LAGOAS; SETE LAGOAS-PJ-07PJ 0,00 0,00 0,00 99,00 0,00 0,00 0,00 0,00 0,00 31/10/2020
884 372700 CAMILA FONSECA LIMONGE ANALISTA DO MP BETIM - COMARCA; BETIM-PJ-01PJ 1.100,00 769,39 450,00 0,00 0,00 0,00 0,00 0,00 0,00 31/10/2020
885 1014700 CAMILA FORTINI DOS SANTOS ESTAGIARIO VESPASIANO; VESPASIANO-PJ-04PJ 0,00 0,00 0,00 180,00 0,00 0,00 0,00 0,00 0,00 31/10/2020
886 947100 CAMILA GENDORF GOMES ESTAGIARIO BELO HORIZONTE; BH-02PJ FAMILIA-SECRETARIA
887 621300 CAMILA GOLFETO DE SOUSA VALENTE OFICIAL DO MP ESPERA FELIZ - COMARCA; ESPERA FELIZ-PJ-UNPJ 1.100,00 1.153,54 450,00 0,00 0,00 0,00 0,00 0,00 179,54 31/10/2020
888 409800 CAMILA GONCALVES COSTA RIBEIRO ANALISTA DO MP INHAPIM - COMARCA; INHAPIM-PJ-02PJ 1.100,00 769,39 450,00 0,00 0,00 0,00 0,00 0,00 0,00 31/10/2020
889 335000 CAMILA GONTIJO DE PAIVA ANALISTA DO MP BELO HORIZONTE - COMARCA; COORD DE CONTROLE CONSTITUCIONALIDADE 1.100,00 0,00 450,00 0,00 0,00 0,00 0,00 0,00 0,00 31/10/2020
890 1107200 CAMILA IMACULADA OLIVEIRA ESTAGIARIO BELO HORIZONTE; GABINETE DE PROCURADOR DE JUSTIÇA - SALA 804 0,00 0,00 0,00 45,00 0,00 0,00 0,00 0,00 0,00 31/10/2020
891 940500 CAMILA MARIZ MACEDO ESTAGIARIO BELO HORIZONTE; BH-12PJ JUIZO CRIMINAL-GAB 083PJ 0,00 0,00 0,00 63,00 0,00 0,00 0,00 0,00 0,00 31/10/2020
892 973300 CAMILA MARTINS MOREIRA ALBINO ESTAGIARIO UBA; UBA-PJ-02PJ 0,00 0,00 0,00 9,00 1.325,50 0,00 0,00 0,00 0,00 31/10/2020
893 547800 CAMILA MATTARELLI DE ABREU E SILVA ANALISTA DO MP BELO HORIZONTE - COMARCA; CAO-VIOLENCIA DOMESTICA E FAMILIAR 1.100,00 0,00 450,00 0,00 0,00 0,00 0,00 0,00 0,00 31/10/2020
894 1183500 CAMILA MORAIS FERREIRA ESTAGIARIO BELO HORIZONTE; BH-02PJ FAMILIA 0,00 0,00 0,00 18,00 0,00 0,00 0,00 0,00 0,00 31/10/2020
895 1180400 CAMILA NICACIO PEDROSA ALMEIDA ESTAGIARIO BELO HORIZONTE; PROC. JUSTICA CRIMINAL 0,00 0,00 0,00 90,00 0,00 0,00 0,00 0,00 0,00 31/10/2020
896 1141300 CAMILA OLIVEIRA GIACOMETO ESTAGIARIO UBERABA; UBERABA-PJ-08PJ
897 1076300 CAMILA RODRIGUES ANDRADE ESTAGIARIO BELO HORIZONTE; BH-23PJ CIVEL 0,00 0,00 0,00 63,00 0,00 0,00 0,00 0,00 0,00 31/10/2020
898 1025700 CAMILA RODRIGUES JARDIM ESTAGIARIO BELO HORIZONTE; DIR RELACOES INSTITUCIONAIS
899 1093800 CAMILA SILVA COSTA LOPES REZENDE ESTAGIARIO PIUMHI; PIUMHI-PJ-01PJ 0,00 0,00 0,00 189,00 0,00 0,00 0,00 0,00 0,00 31/10/2020
900 1072900 CAMILA TEIXEIRA CORDEIRO ESTAGIARIO BELO HORIZONTE; PROC. JUSTICA CRIMINAL 0,00 0,00 0,00 63,00 0,00 0,00 0,00 0,00 0,00 31/10/2020
901 1156500 CAMILA VALERIO DE BARCELOS ESTAGIARIO BELO HORIZONTE; EXTINTA-COORD EST DEF DIR FAM PES DEFIC IDOSO 0,00 0,00 0,00 45,00 0,00 0,00 0,00 0,00 0,00 31/10/2020
902 1170200 CAMILA VENANCIO DIAS ESTAGIARIO BELO HORIZONTE; PROC. JUSTICA DIR. DIFUSOS E COLETIVOS
903 1013500 CAMILLA CRISTINA PACHECO DE MELO ESTAGIARIO BELO HORIZONTE; BH-12PJ JUIZO CRIMINAL-GAB 088PJ 0,00 0,00 0,00 162,00 0,00 0,00 0,00 0,00 0,00 31/10/2020
904 1068400 CAMILLA MARIA GUIMARAES PERTENCE ESTAGIARIO BELO HORIZONTE; PROC. JUSTICA CIVEL 0,00 0,00 0,00 9,00 0,00 0,00 0,00 0,00 0,00 31/10/2020
905 898300 CAMILLA MARTINS MAZZONI E MARTINS ESTAGIARIO ITANHOMI; ITANHOMI-PJ-UNPJ
906 1097800 CAMILLA VERGINIO COSTA ESTAGIARIO 0,00 0,00 0,00 189,00 0,00 0,00 0,00 0,00 0,00 31/10/2020
907 1039100 CAMILO PRATES ESTAGIARIO BELO HORIZONTE; PROC. JUSTICA DE HABEAS CORPUS
908 430000 CANDIDA MARINA COSTA ANALISTA DO MP BELO HORIZONTE - COMARCA; DIVISAO DE DOCUMENTACAO JURIDICA 1.100,00 0,00 450,00 0,00 0,00 0,00 0,00 0,00 0,00 31/10/2020
909 614300 CARINA CORTIELHA OFICIAL DO MP BELO HORIZONTE - COMARCA; BH-23PJ CIVEL-SEC EXP CIVEIS 1.100,00 0,00 450,00 0,00 0,00 0,00 0,00 0,00 0,00 31/10/2020
910 380400 CARINA DIAS FACANHA DE SOUZA ANALISTA DO MP SANTA RITA DO SAPUCAÍ - COMARCA; SANTA RITA DO SAPUCAI-PJ-SECRETARIA 1.100,00 0,00 450,00 0,00 0,00 0,00 0,00 0,00 0,00 31/10/2020
911 924300 CARINA MENEZES DE MOURA ESTAGIARIO MATEUS LEME; MATEUS LEME-PJ-01PJ 0,00 0,00 0,00 117,00 0,00 0,00 0,00 0,00 0,00 31/10/2020
912 255000 CARLA ADRIANA DE MENEZES OFICIAL DO MP BELO HORIZONTE - COMARCA; CENT DE APOIO TEC-SETOR DEF,IDOSO E INFANC 1.100,00 0,00 450,00 0,00 0,00 0,00 0,00 0,00 0,00 31/10/2020
913 425100 CARLA ADRIANA DINIZ AMARAL OFICIAL DO MP CONTAGEM - COMARCA; CONTAGEM-PJ-SECRETARIA 1.100,00 0,00 450,00 0,00 0,00 0,00 0,00 0,00 0,00 31/10/2020
914 508100 CARLA ALESSANDRA FONSECA ANALISTA DO MP BELO HORIZONTE - COMARCA; CAO-ORDEM ECONOMICA E TRIBUTARIA-SECRETARIA 1.100,00 0,00 450,00 0,00 0,00 0,00 0,00 0,00 0,00 31/10/2020
915 1155200 CARLA ALVES DE FREITAS ESTAGIARIO IPATINGA; IPATINGA-PJ-02PJ 0,00 0,00 0,00 99,00 0,00 0,00 0,00 0,00 0,00 31/10/2020
916 607100 CARLA ANGELICA DIAS MIRANDA OFICIAL DO MP JABOTICATUBAS - COMARCA; JABOTICATUBAS-PJ-UNPJ 1.100,00 0,00 450,00 0,00 0,00 0,00 0,00 0,00 0,00 31/10/2020
917 351500 CARLA APARECIDA MENDES RAMIRIO OFICIAL DO MP PASSOS - COMARCA; PASSOS-PJ-01PJ 1.100,00 0,00 450,00 0,00 0,00 0,00 0,00 0,00 0,00 31/10/2020
918 1067500 CARLA CRISTINA LOPES OLIVEIRA ESTAGIARIO ITAMARANDIBA; ITAMARANDIBA-PJ-UNPJ 0,00 0,00 0,00 63,00 0,00 0,00 0,00 0,00 0,00 31/10/2020
919 1081900 CARLA DOS SANTOS SOUZA ESTAGIARIO ESPERA FELIZ; ESPERA FELIZ-PJ-UNPJ 0,00 0,00 0,00 189,00 0,00 0,00 0,00 0,00 0,00 31/10/2020
920 442800 CARLA GONCALVES COSTA SOALHEIRO ANALISTA DO MP GOVERNADOR VALADARES - COMARCA; GOVERNADOR VALADARES-PJ-11PJ 1.100,00 769,39 450,00 0,00 0,00 0,00 0,00 0,00 0,00 31/10/2020
921 321500 CARLA GONCALVES MASSOTE OFICIAL DO MP CAMPO BELO - COMARCA; CAMPO BELO-PJ-01PJ 1.100,00 0,00 450,00 0,00 0,00 0,00 0,00 0,00 0,00 31/10/2020
922 429200 CARLA HAUTEQUESTT BECHARA COORDENADOR/ANALISTA BELO HORIZONTE - COMARCA; DIRET DE INFORMACAO E CONHECIMENTO-DINC/CEAF 1.100,00 0,00 450,00 0,00 0,00 0,00 0,00 0,00 0,00 31/10/2020
923 1061300 CARLA LOPES MIRANDA ESTAGIARIO GOVERNADOR VALADARES; GOVERNADOR VALADARES-PJ-07PJ 0,00 0,00 0,00 144,00 0,00 0,00 0,00 0,00 0,00 31/10/2020
924 157400 CARLA MARIA ALESSI LAFETA DE CARVALHO PROMOT.ENTRANC.ESPECIAL BELO HORIZONTE - COMARCA; BH-25PJ DEFESA DA EDUCACAO-GAB 050PJ 1.100,00 0,00 3.368,56 0,00 13.475,64 0,00 0,00 0,00 514,69 31/10/2020
925 1100400 CARLA MARTINELLI ESTAGIARIO ANDRADAS; ANDRADAS-PJ-01PJ 0,00 0,00 0,00 180,00 0,00 0,00 0,00 0,00 0,00 31/10/2020
926 247500 CARLA MATILDE GUIMARAES DE OLIVEIRA OFICIAL DO MP ITAJUBA - COMARCA; ITAJUBA-PJ-SECRETARIA 1.100,00 0,00 450,00 0,00 0,00 0,00 0,00 0,00 0,00 31/10/2020
927 226100 CARLA MERLI DA CONCEICAO ANALISTA DO MP BELO HORIZONTE - COMARCA; CENTRAL DE APOIO TECNICO-SETOR CONTABIL 1.100,00 0,00 450,00 0,00 0,00 0,00 0,00 0,00 0,00 31/10/2020
928 685700 CARLA PRISCILLA PEREIRA VIANA PROMOTOR SUBSTITUTO BELO HORIZONTE - COMARCA; CENTRO DE ESTUDOS E APERFEICOAMENTO FUNCIONAL 1.100,00 0,00 2.139,57 0,00 0,00 0,00 0,00 0,00 0,00 31/10/2020
929 343100 CARLA REGINA GOULART SALARO DUVANEL PROMOT.ENTRANC.ESPECIAL GOVERNADOR VALADARES - COMARCA; GOVERNADOR VALADARES-PJ-06PJ 1.100,00 0,00 1.279,20 0,00 13.475,64 0,00 0,00 0,00 514,69 31/10/2020
930 532600 CARLA RODRIGUES FAZUOLI PROMOTOR 2A ENTRANCIA SACRAMENTO - COMARCA; SACRAMENTO-PJ-02PJ 1.100,00 0,00 746,20 0,00 0,00 0,00 0,00 0,00 0,00 31/10/2020
931 1102000 CARLIANE MARTINS GOMES ESTAGIARIO SACRAMENTO; SACRAMENTO-PJ-01PJ 0,00 0,00 0,00 189,00 0,00 0,00 0,00 0,00 0,00 31/10/2020
932 181401 CARLO MICHEL GAUDENSI COELHO ANALISTA DO MP BELO HORIZONTE - COMARCA; BH-08PJ JUIZADO ESPECIAL-SECRETARIA 1.100,00 0,00 450,00 0,00 0,00 0,00 0,00 0,00 0,00 31/10/2020
933 634000 CARLOS ALBERTO AMORMINO TRIGUEIRO ANALISTA DO MP BELO HORIZONTE - COMARCA; DIRET DE APOIO AS PROCURADORIAS DE JUSTICA 1.100,00 666,80 450,00 0,00 0,00 0,00 0,00 0,00 0,00 31/10/2020
934 232300 CARLOS ALBERTO DA SILVEIRA ISOLDI FILHO PROMOT.ENTRANC.ESPECIAL BELO HORIZONTE - COMARCA; BH-19PJ SAUDE-GAB 150PJ 1.100,00 0,00 3.368,91 0,00 0,00 0,00 0,00 0,00 0,00 31/10/2020
935 637900 CARLOS ALBERTO DE MOURA OFICIAL DO MP SETE LAGOAS - COMARCA; SETE LAGOAS-PJ-07PJ 1.100,00 769,39 450,00 0,00 0,00 0,00 0,00 0,00 0,00 31/10/2020
936 638700 CARLOS ALBERTO FERREIRA BRAGA ANALISTA DO MP MATOZINHOS - COMARCA; MATOZINHOS-PJ-01PJ 1.100,00 0,00 450,00 0,00 0,00 0,00 0,00 0,00 0,00 31/10/2020
937 54400 CARLOS ALBERTO RIBEIRO MOREIRA PROMOTOR 2A ENTRANCIA LAVRAS - COMARCA; LAVRAS-PJ-02PJ 1.100,00 0,00 2.558,40 0,00 21.336,43 0,00 0,00 0,00 488,96 31/10/2020
938 375801 CARLOS ALBERTO ROCHA ANALISTA DO MP VARGINHA - COMARCA; GAECO REGIONAL DE VARGINHA 1.100,00 0,00 450,00 0,00 4.427,11 0,00 0,00 0,00 405,82 31/10/2020
939 110700 CARLOS ALBERTO VALERA PROMOT.ENTRANC.ESPECIAL UBERABA - COMARCA; COORD REG BACIAS PARANAIBA BAIXO RIO GRANDE 1.100,00 0,00 980,72 0,00 44.918,81 0,00 0,00 0,00 514,69 31/10/2020
940 94200 CARLOS ANDRE MARIANI BITTENCOURT PROCURADOR DE JUSTICA BELO HORIZONTE - COMARCA; GABINETE DE PROCURADOR DE JUSTIÇA - SALA 405 1.100,00 0,00 2.665,00 0,00 14.184,89 0,00 0,00 0,00 541,78 31/10/2020
941 462800 CARLOS ANDREI SOARES FAGUNDES ANALISTA DO MP MONTES CLAROS - COMARCA; MONTES CLAROS-PJ-09PJ 1.100,00 769,39 450,00 0,00 0,00 0,00 0,00 0,00 0,00 31/10/2020
942 370300 CARLOS AUGUSTO BUENO DIAS ASSESSOR BELO HORIZONTE - COMARCA; SUPERINTENDÊNCIA DE ENGENHARIA E ARQUITETURA 1.100,00 0,00 450,00 0,00 0,00 0,00 0,00 0,00 0,00 31/10/2020
943 66200 CARLOS AUGUSTO CANEDO GONCALVES DA SILVA PROCURADOR DE JUSTICA BELO HORIZONTE - COMARCA; GABINETE DE PROCURADOR DE JUSTIÇA - SALA 911 1.100,00 0,00 3.539,12 0,00 0,00 0,00 0,00 0,00 0,00 31/10/2020
944 83200 CARLOS AUGUSTO ESTEVES DE CARVALHO PROMOT.ENTRANC.ESPECIAL JUIZ DE FORA - COMARCA; JUIZ DE FORA-PJ-16PJ 1.100,00 0,00 1.172,60 0,00 13.475,64 0,00 0,00 0,00 514,69 31/10/2020
945 143500 CARLOS AUGUSTO GOMES BRAGA PROMOT.ENTRANC.ESPECIAL BELO HORIZONTE - COMARCA; BH-03PJ EMPRESARIAL-GAB 036PJ 1.100,00 0,00 2.494,44 0,00 13.475,64 0,00 0,00 0,00 514,69 31/10/2020
946 110800 CARLOS CESAR MARQUES LUZ PROMOTOR 1A ENTRANCIA JACUTINGA - COMARCA; JACUTINGA-PJ-UNPJ 1.100,00 0,00 0,00 0,00 0,00 0,00 0,00 0,00 0,00 31/10/2020
947 505100 CARLOS CEZAR CARVALHO ANALISTA DO MP RIBEIRÃO DAS NEVES - COMARCA; RIBEIRAO DAS NEVES-PJ-04PJ 1.100,00 0,00 450,00 0,00 0,00 0,00 0,00 0,00 0,00 31/10/2020
948 195900 CARLOS DE SOUZA FERREIRA OFICIAL DO MP COROMANDEL - COMARCA; COROMANDEL-PJ-01PJ 1.100,00 0,00 450,00 0,00 0,00 0,00 0,00 0,00 0,00 31/10/2020
949 344300 CARLOS EDUARDO AVANZI DE ALMEIDA PROMOTOR 2A ENTRANCIA CAMPO BELO - COMARCA; CAMPO BELO-PJ-03PJ 1.100,00 0,00 2.558,40 0,00 12.801,86 0,00 0,00 0,00 488,96 31/10/2020
950 196800 CARLOS EDUARDO DE OLIVEIRA MARINHO OFICIAL DO MP ALPINÓPOLIS - COMARCA; ALPINOPOLIS-PJ-UNPJ 1.100,00 0,00 450,00 0,00 0,00 0,00 0,00 0,00 1.379,33 31/10/2020
951 157500 CARLOS EDUARDO DUTRA PIRES PROMOT.ENTRANC.ESPECIAL SETE LAGOAS - COMARCA; SETE LAGOAS-PJ-02PJ 1.100,00 0,00 2.025,40 0,00 22.459,40 0,00 0,00 0,00 514,69 31/10/2020
952 483200 CARLOS EDUARDO FERNANDES NEVES RIBEIRO PROMOT.ENTRANC.ESPECIAL BARBACENA - COMARCA; BARBACENA-PJ-08PJ 1.100,00 0,00 1.492,40 0,00 13.475,64 0,00 0,00 0,00 514,69 31/10/2020
953 315400 CARLOS EDUARDO FERREIRA PINTO PROMOT.ENTRANC.ESPECIAL RIBEIRÃO DAS NEVES - COMARCA; RIBEIRAO DAS NEVES-PJ-01PJ 1.100,00 0,00 1.790,88 0,00 22.459,40 0,00 0,00 0,00 514,69 31/10/2020
954 55300 CARLOS EDUARDO MAFRA CAVALCANTI PROCURADOR DE JUSTICA BELO HORIZONTE - COMARCA; GABINETE DE PROCURADOR DE JUSTIÇA - SALA 503 1.100,00 0,00 2.558,40 0,00 14.184,89 0,00 0,00 0,00 541,78 31/10/2020
955 650800 CARLOS EDUARDO NIZA DA SILVA OFICIAL DO MP IGARAPÉ - COMARCA; IGARAPE-PJ-01PJ 1.100,00 0,00 450,00 0,00 0,00 0,00 0,00 0,00 0,00 31/10/2020
956 491800 CARLOS EDUARDO ROMAN OFICIAL DO MP BARBACENA - COMARCA; BARBACENA-PJ-09PJ 1.100,00 0,00 450,00 0,00 0,00 0,00 0,00 0,00 0,00 31/10/2020
957 157600 CARLOS EUGENIO SOUTO MAIOR FILIZOLA JUNIOR PROMOTOR 2A ENTRANCIA ENTRE-RIOS DE MINAS - COMARCA; ENTRE RIOS DE MINAS-PJ-UNPJ 1.100,00 0,00 0,00 0,00 0,00 0,00 0,00 0,00 0,00 31/10/2020
958 1122900 CARLOS GUILHERME COLLENGHI DIAS ESTAGIARIO UBERABA; UBERABA-PJ-04PJ 0,00 0,00 0,00 171,00 0,00 0,00 0,00 0,00 0,00 31/10/2020
959 1061800 CARLOS HENRIQUE ALVES MOURAO ESTAGIARIO MONTES CLAROS; COORD REG PATRI PUB ORD TRIB-NORTE MINAS 0,00 0,00 0,00 189,00 0,00 0,00 0,00 0,00 0,00 31/10/2020
960 299300 CARLOS HENRIQUE BICALHO ANALISTA DO MP BELO HORIZONTE - COMARCA; BH-17PJ PATRIMONIO PUBLICO-SECRETARIA 1.100,00 769,39 450,00 0,00 0,00 0,00 0,00 0,00 0,00 31/10/2020
961 205100 CARLOS HENRIQUE ESTEVES OFICIAL DO MP ITAMBACURI - COMARCA; ITAMBACURI-PJ-01PJ 1.100,00 0,00 450,00 0,00 0,00 0,00 0,00 0,00 0,00 31/10/2020
962 351600 CARLOS HENRIQUE FELICIO DA FONSECA OFICIAL DO MP JUIZ DE FORA - COMARCA; JUIZ DE FORA-PJ-21PJ 1.100,00 0,00 450,00 0,00 0,00 0,00 0,00 0,00 0,00 31/10/2020
963 657100 CARLOS HENRIQUE SOUSA DA SILVA MAJOR BELO HORIZONTE - COMARCA; NUCLEO DE COMBATE AOS CRIMES AMBIENTAIS 1.100,00 0,00 0,00 0,00 0,00 0,00 0,00 0,00 0,00 31/10/2020
964 210900 CARLOS HENRIQUE TORRES DE SOUZA PROMOT.ENTRANC.ESPECIAL BELO HORIZONTE - COMARCA; CHEFIA DE GABINETE 1.100,00 0,00 2.360,66 0,00 31.443,16 0,00 0,00 0,00 514,69 31/10/2020
965 104600 CARLOS JOSE E SILVA FORTES PROMOT.ENTRANC.ESPECIAL DIVINÓPOLIS - COMARCA; DIVINOPOLIS-PJ-06PJ 1.100,00 0,00 2.302,56 0,00 13.475,64 0,00 0,00 0,00 514,69 31/10/2020
966 656200 CARLOS JOSE GOMES ALVES 2O.TENENTE BELO HORIZONTE - COMARCA; NUCLEO DE OPERACOES DE SEGURANCA ORGANICA 1.100,00 0,00 0,00 0,00 0,00 0,00 0,00 0,00 0,00 31/10/2020
967 85400 CARLOS JOSE VIEIRA OFICIAL DO MP BELO HORIZONTE - COMARCA; DIRETORIA DO COLEGIO E DA CAMARA DE PJ 1.100,00 0,00 450,00 0,00 0,00 0,00 0,00 0,00 0,00 31/10/2020
968 685800 CARLOS LEONARDO MARTINS DA SILVA PROMOTOR SUBSTITUTO BELO HORIZONTE - COMARCA; CENTRO DE ESTUDOS E APERFEICOAMENTO FUNCIONAL 1.100,00 0,00 2.678,76 0,00 0,00 0,00 0,00 0,00 0,00 31/10/2020
969 1142200 CARLOS MARTINS DE OLIVEIRA JUNIOR ESTAGIARIO 0,00 0,00 0,00 27,00 0,00 0,00 0,00 0,00 0,00 31/10/2020
970 229100 CARLOS MERCES DE OLIVEIRA ANALISTA DO MP BELO HORIZONTE - COMARCA; CENTRAL DE APOIO TECN-SETOR DE MEIO AMBIENTE 1.100,00 0,00 450,00 0,00 0,00 0,00 0,00 0,00 0,00 31/10/2020
971 538300 CARLOS RANGEL SILVA DE MELO ANALISTA DO MP BELO HORIZONTE - COMARCA; DIVISAO DE CONTROLE IMOBILIARIO 1.100,00 769,39 450,00 0,00 0,00 0,00 0,00 0,00 0,00 31/10/2020
972 265100 CARLOS REIFF MIRANDA ANALISTA DO MP BELO HORIZONTE - COMARCA; BH-19PJ SAUDE-SECRETARIA 150PJ 1.100,00 0,00 450,00 0,00 0,00 0,00 0,00 0,00 0,00 31/10/2020
973 592200 CARLOS ROBERTO BARBOSA AGENTE DE POLICIA BELO HORIZONTE - COMARCA; GAECO - SETOR POLICIAL CIVIL 1.100,00 0,00 0,00 0,00 0,00 0,00 0,00 0,00 0,00 31/10/2020
974 305400 CARLOS ROCHA DE SOUZA OFICIAL DO MP MONTALVÂNIA - COMARCA; MONTALVANIA-PJ-SECRETARIA 1.100,00 0,00 450,00 0,00 0,00 537,51 0,00 0,00 0,00 31/10/2020
975 371600 CARLOS SAMUEL BORGES CUNHA PROMOT.ENTRANC.ESPECIAL MANHUAÇU - COMARCA; MANHUACU-PJ-05PJ 1.100,00 0,00 852,80 0,00 13.475,64 0,00 0,00 0,00 514,69 31/10/2020
976 365100 CARLOS WAGNER SANDER MORAIS COORDENADOR/OFICIAL BELO HORIZONTE - COMARCA; DIRETORIA DE ADMINISTRACAO FINANCEIRA 1.100,00 0,00 450,00 0,00 0,00 0,00 0,00 0,00 -114,26 31/10/2020
977 293400 CARLOS WILDE RIBEIRO DE MELLO PROMOT.ENTRANC.ESPECIAL BARBACENA - COMARCA; BARBACENA-PJ-07PJ 1.100,00 0,00 2.558,40 0,00 13.475,64 0,00 0,00 0,00 514,69 31/10/2020
978 399900 CARMELITA EVANGELISTA DE SOUZA OFICIAL DO MP JOÃO PINHEIRO - COMARCA; JOAO PINHEIRO-PJ-01PJ 1.100,00 0,00 450,00 0,00 0,00 0,00 0,00 0,00 0,00 31/10/2020
979 202000 CARMEN LUCIA MARIZ DE MACEDO OFICIAL DO MP BELO HORIZONTE - COMARCA; DIRETORIA GESTAO COMPRAS LICITACOES 1.100,00 0,00 450,00 0,00 974,05 0,00 0,00 0,00 89,29 31/10/2020
980 987800 CAROLAINE GOMES DE SOUZA ESTAGIARIO PARACATU; COORD REG PP NOROESTE MINAS GERAIS PARACATU 0,00 0,00 0,00 171,00 0,00 0,00 0,00 0,00 0,00 31/10/2020
981 1094400 CAROLAINY APARECIDA SOUZA CASTRO ESTAGIARIO VICOSA; VICOSA-PJ-01PJ 0,00 0,00 0,00 63,00 0,00 0,00 0,00 0,00 0,00 31/10/2020
982 1181900 CAROLINA ALVES GOMES ESTAGIARIO UBERABA; COORD REG SAUDE MACROR SANIT TRIANGULO SUL 0,00 0,00 0,00 99,00 0,00 0,00 0,00 0,00 0,00 31/10/2020
983 359700 CAROLINA ANDRADE BORGES DE MATTOS PROMOTOR SUBSTITUTO BICAS - COMARCA; BICAS-PJ-UNPJ 1.100,00 0,00 2.174,64 0,00 12.161,76 0,00 0,00 0,00 464,51 31/10/2020
984 1149100 CAROLINA AUGUSTA MILO FERREIRA ESTAGIARIO UNAI; UNAI-PJ-03PJ 0,00 0,00 0,00 36,00 0,00 0,00 0,00 0,00 0,00 31/10/2020
985 1103100 CAROLINA BONATO GONCALVES COSTA ESTAGIARIO BARBACENA; BARBACENA-PJ-08PJ 0,00 0,00 0,00 45,00 0,00 0,00 0,00 0,00 0,00 31/10/2020
986 1164100 CAROLINA CARDOSO DE OLIVEIRA ESTAGIARIO IPATINGA; IPATINGA-PJ-06PJ 0,00 0,00 0,00 45,00 0,00 0,00 0,00 0,00 0,00 31/10/2020
987 611000 CAROLINA CERIGATTO PROMOT.ENTRANC.ESPECIAL GOVERNADOR VALADARES - COMARCA; GOVERNADOR VALADARES-PJ-11PJ 1.100,00 0,00 0,00 0,00 0,00 0,00 0,00 0,00 0,00 31/10/2020
988 1101000 CAROLINA CHARBEL LEITAO DE ALMEIDA ESTAGIARIO BELO HORIZONTE; BH-18PJ VIOLENCIA DOMESTICA-GAB 178PJ 0,00 0,00 0,00 36,00 0,00 0,00 0,00 0,00 0,00 31/10/2020
989 228500 CAROLINA CHIARELLA DOS SANTOS RIBEIRO ASSESSOR/OFICIAL BELO HORIZONTE - COMARCA; PROCURADORIA-GERAL ADJUNTA INSTITUCIONAL 1.100,00 0,00 450,00 0,00 0,00 0,00 0,00 0,00 0,00 31/10/2020
990 446500 CAROLINA COSTA VAL RODRIGUES ANALISTA DO MP CONTAGEM - COMARCA; CONTAGEM-PJ-05PJ 1.100,00 0,00 450,00 0,00 0,00 0,00 0,00 0,00 0,00 31/10/2020
991 603501 CAROLINA DOMINGOS BRANDAO RABELLO ANALISTA DO MP BARROSO - COMARCA; BARROSO-PJ-01PJ 1.100,00 0,00 450,00 0,00 0,00 0,00 0,00 0,00 0,00 31/10/2020
992 404300 CAROLINA DOS SANTOS VIEIRA ANALISTA DO MP BELO HORIZONTE - COMARCA; BH-08PJ JUIZADO ESPECIAL-SECRETARIA 1.100,00 0,00 450,00 0,00 0,00 0,00 0,00 0,00 0,00 31/10/2020
993 1039000 CAROLINA EVANGELISTA ALVES ESTAGIARIO BELO HORIZONTE; BH-18PJ VIOLENCIA DOMESTICA-GAB 185PJ 0,00 0,00 0,00 81,00 0,00 0,00 0,00 0,00 0,00 31/10/2020
994 911700 CAROLINA FERNANDES MOREIRA DA COSTA SILVA ESTAGIARIO JUIZ DE FORA; JUIZ DE FORA-PJ-04PJ 0,00 0,00 0,00 27,00 0,00 0,00 0,00 0,00 0,00 31/10/2020
995 634600 CAROLINA FRARE LAMEIRINHA PROMOTOR 2A ENTRANCIA CARMO DO PARANAÍBA - COMARCA; CARMO DO PARANAIBA-PJ-02PJ 1.100,00 0,00 1.833,52 0,00 0,00 0,00 0,00 0,00 0,00 31/10/2020
996 405401 CAROLINA GENTIL MEDEIROS MARQUEZ PROMOTOR SUBSTITUTO CONTAGEM - COMARCA; CONTAGEM-PJ-21PJ 1.100,00 0,00 2.865,20 0,00 0,00 0,00 0,00 0,00 0,00 31/10/2020
997 551200 CAROLINA LOPES ARANTES MASCARENHAS ANALISTA DO MP BELO HORIZONTE - COMARCA; EXTINTA-COORD EST DEF DIR FAM PES DEFIC IDOSO 1.100,00 769,39 450,00 0,00 0,00 0,00 0,00 0,00 0,00 31/10/2020
998 994100 CAROLINA LOPES DE AGUIAR ESTAGIARIO BELO HORIZONTE; BH-07PJ 01 TRIBUNAL DO JURI-GAB 060PJ
999 622600 CAROLINA LOREDO LOPES CATIZANI OFICIAL DO MP RIBEIRÃO DAS NEVES - COMARCA; RIBEIRAO DAS NEVES-PJ-12PJ 1.100,00 0,00 450,00 0,00 0,00 0,00 0,00 0,00 0,00 31/10/2020
1000 1139100 CAROLINA MARIA DE ANDRADE RAMOS ESTAGIARIO 0,00 0,00 0,00 135,00 0,00 0,00 0,00 0,00 0,00 31/10/2020
1001 362900 CAROLINA MARQUES ANDRADE PROMOTOR 2A ENTRANCIA FRUTAL - COMARCA; FRUTAL-PJ-01PJ 1.100,00 0,00 2.601,04 0,00 12.801,86 0,00 0,00 0,00 488,96 31/10/2020
1002 929500 CAROLINA MARTINS DRIGO ESTAGIARIO UBERLANDIA; UBERLANDIA-PJ-02PJ 0,00 0,00 0,00 126,00 0,00 0,00 0,00 0,00 0,00 31/10/2020
1003 457400 CAROLINA MELO CAMPOS PROMOTOR SUBSTITUTO SANTA LUZIA - COMARCA; SANTA LUZIA-PJ-07PJ 1.100,00 0,00 746,20 0,00 12.161,76 0,00 0,00 0,00 464,51 31/10/2020
1004 382200 CAROLINA MENDES CHAVES LIN ANALISTA DO MP BELO HORIZONTE - COMARCA; BH-12PJ JUIZO CRIMINAL-GAB 088PJ 1.100,00 769,39 450,00 0,00 0,00 0,00 0,00 0,00 0,00 31/10/2020
1005 313600 CAROLINA MENDONCA DE SIQUEIRA PROMOT.ENTRANC.ESPECIAL BELO HORIZONTE - COMARCA; ASSESSORIA ESPECIAL DO PGJ 1.100,00 0,00 1.279,20 0,00 13.475,64 0,00 0,00 0,00 514,69 31/10/2020
1006 461900 CAROLINA MURTA TEIXEIRA DIAS ASSESSOR/ANALISTA BELO HORIZONTE - COMARCA; PROCURADOR-GERAL DE JUSTIÇA 1.100,00 0,00 450,00 0,00 0,00 0,00 0,00 0,00 0,00 31/10/2020
1007 509600 CAROLINA PINTO DE OLIVEIRA SOUZA ANALISTA DO MP MURIAÉ - COMARCA; MURIAE-PJ-01PJ 1.100,00 769,39 450,00 0,00 0,00 0,00 0,00 0,00 0,00 31/10/2020
1008 526400 CAROLINA QUEIROZ DE CARVALHO PROMOT.ENTRANC.ESPECIAL CONSELHEIRO LAFAIETE - COMARCA; CONSELHEIRO LAFAIETE-PJ-02PJ 1.100,00 0,00 0,00 0,00 13.475,64 0,00 0,00 0,00 514,69 31/10/2020
1009 667000 CAROLINA RITA TORRES GRUBER PROMOTOR 2A ENTRANCIA SÃO FRANCISCO - COMARCA; SAO FRANCISCO-PJ-01PJ 1.100,00 0,00 1.407,12 0,00 13.068,57 0,00 0,00 0,00 1.366,87 31/10/2020
1010 629100 CAROLINA RODRIGUES AMARAL ANALISTA DO MP BELO HORIZONTE - COMARCA; PROC. JUSTICA DIR. DIFUSOS E COLETIVOS-SEC 1.100,00 0,00 450,00 0,00 0,00 0,00 0,00 0,00 0,00 31/10/2020
1011 502600 CAROLINA RODRIGUES RUBEN ANALISTA DO MP BELO HORIZONTE - COMARCA; BH-18PJ VIOLENCIA DOMESTICA-SECRETARIA 1.100,00 1.538,78 450,00 0,00 7.089,01 0,00 0,00 0,00 0,00 31/10/2020
1012 1045600 CAROLINA SANTOS FERREIRA DE LEMOS ESTAGIARIO BELO HORIZONTE; COORD DE INCLUSAO E MOBILIZACAO SOCIAIS
1013 1176700 CAROLINA SOUZA ALVES ESTAGIARIO SABARA; SABARA-PJ-03PJ 0,00 0,00 0,00 189,00 0,00 0,00 0,00 0,00 0,00 31/10/2020
1014 1032800 CAROLINA STEFANE SILVA MOREIRA ESTAGIARIO VESPASIANO; VESPASIANO-PJ-06PJ 0,00 0,00 0,00 108,00 0,00 0,00 0,00 0,00 0,00 31/10/2020
1015 1144200 CAROLINA TEIXEIRA SILVA ESTAGIARIO ARINOS; ARINOS-PJ-UNPJ 0,00 0,00 0,00 117,00 0,00 0,00 0,00 0,00 0,00 31/10/2020
1016 529600 CAROLINA VAZ DE MELO MAMBRINI ANALISTA DO MP BELO HORIZONTE - COMARCA; DIVISAO DE MATERIAIS 1.100,00 0,00 450,00 0,00 0,00 0,00 0,00 0,00 0,00 31/10/2020
1017 619100 CAROLINA ZAKHIA NARDELLI RODRIGUES ANALISTA DO MP NEPOMUCENO - COMARCA; NEPOMUCENO-PJ-UNPJ 1.100,00 769,39 450,00 0,00 0,00 0,00 0,00 0,00 499,48 31/10/2020
1018 517600 CAROLINE ALVES DE OLIVEIRA MULLER ANALISTA DO MP VISCONDE DO RIO BRANCO - COMARCA; VISCONDE DO RIO BRANCO-PJ-01PJ 1.100,00 769,39 450,00 0,00 0,00 0,00 0,00 0,00 0,00 31/10/2020
1019 957800 CAROLINE ALVES GARCIA RODRIGUES ESTAGIARIO BELO HORIZONTE; ASSESSORIA ESPECIAL DO PGJ 0,00 0,00 0,00 45,00 0,00 0,00 0,00 0,00 0,00 31/10/2020
1020 373200 CAROLINE ANTUNES RIBEIRO OFICIAL DO MP JACUI - COMARCA; JACUI-PJ-UNPJ 1.100,00 0,00 450,00 0,00 0,00 0,00 0,00 0,00 0,00 31/10/2020
1021 1084100 CAROLINE APARECIDA MENDES ESTAGIARIO UBERLANDIA; UBERLANDIA-PJ-04PJ 0,00 0,00 0,00 162,00 0,00 0,00 0,00 0,00 0,00 31/10/2020
1022 556800 CAROLINE DE SOUZA CARDOSO DOMINGUES OFICIAL DO MP BRASÍLIA DE MINAS - COMARCA; BRASILIA DE MINAS-PJ-02PJ 1.100,00 0,00 450,00 0,00 0,00 0,00 0,00 0,00 0,00 31/10/2020
1023 1143700 CAROLINE ESTEVES DE CARVALHO ESTAGIARIO 0,00 0,00 0,00 108,00 0,00 0,00 0,00 0,00 0,00 31/10/2020
1024 1081300 CAROLINE FERREIRA DE ALMEIDA ESTAGIARIO BELO HORIZONTE; BH-02PJ FAMILIA-GAB 016PJ
1025 499400 CAROLINE MARQUES DE LOURDES MARZULLO OFICIAL DO MP JUIZ DE FORA - COMARCA; JUIZ DE FORA-PJ-08PJ 1.100,00 1.153,54 450,00 0,00 0,00 0,00 0,00 0,00 0,00 31/10/2020
1026 616800 CAROLINE MONTEIRO DE BARROS ANALISTA DO MP CONTAGEM - COMARCA; CONTAGEM-PJ-11PJ 1.100,00 0,00 450,00 0,00 0,00 0,00 0,00 0,00 0,00 31/10/2020
1027 342500 CAROLINE PESTANA GOMES PROMOT.ENTRANC.ESPECIAL VESPASIANO - COMARCA; VESPASIANO-PJ-06PJ 1.100,00 0,00 1.279,20 0,00 13.475,64 0,00 0,00 0,00 514,69 31/10/2020
1028 1079200 CAROLINE REVERT OLIVEIRA SOARES ESTAGIARIO JANUARIA; JANUARIA-PJ-02PJ 0,00 0,00 0,00 162,00 0,00 0,00 0,00 0,00 0,00 31/10/2020
1029 972000 CAROLINE SARMENTO RODRIGUES ESTAGIARIO SALINAS; SALINAS-PJ-02PJ 0,00 0,00 0,00 126,00 0,00 0,00 0,00 0,00 0,00 31/10/2020
1030 1093400 CAROLINE SILVA ARAUJO ESTAGIARIO BELO HORIZONTE; DIVISAO DE MANUTENCAO PREDIAL 0,00 0,00 0,00 18,00 0,00 0,00 0,00 0,00 0,00 31/10/2020
1031 911800 CAROLINE SILVA SOUZA ESTAGIARIO
1032 618100 CAROLINE VASCONCELOS COSTA LANZA ANALISTA DO MP PARAOPEBA - COMARCA; PARAOPEBA-PJ-UNPJ 1.100,00 3.077,56 450,00 0,00 0,00 0,00 0,00 0,00 491,77 31/10/2020
1033 210600 CASSANDRA DA CONCEICAO DANTAS SERRAO PROMOT.ENTRANC.ESPECIAL BELO HORIZONTE - COMARCA; BH-02PJ FAMILIA-GAB 026PJ 1.100,00 0,00 1.748,24 0,00 0,00 0,00 0,00 0,00 0,00 31/10/2020
1034 604000 CASSIA APARECIDA DA SILVA OFICIAL DO MP PARACATU - COMARCA; PARACATU-PJ-01PJ 1.100,00 0,00 450,00 0,00 0,00 0,00 0,00 0,00 416,48 31/10/2020
1035 268800 CASSIA BEATRIZ TEIXEIRA OFICIAL DO MP BELO HORIZONTE - COMARCA; PROC JUST ESP ACOES COMP ORIG CRIMINAL-SEC 1.100,00 0,00 450,00 0,00 0,00 0,00 0,00 0,00 0,00 31/10/2020
1036 500000 CASSIA DE OLIVEIRA COSTA VIANA ANALISTA DO MP SETE LAGOAS - COMARCA; SETE LAGOAS-PJ-09PJ 1.100,00 0,00 450,00 0,00 0,00 0,00 0,00 0,00 0,00 31/10/2020
1037 1026900 CASSIA DOS REIS SILVA ESTAGIARIO NOVA LIMA; NOVA LIMA-PJ-02PJ 0,00 0,00 0,00 72,00 0,00 0,00 0,00 0,00 0,00 31/10/2020
1038 368800 CASSIA LUISA BATISTA MENDONCA WEBER OFICIAL DO MP BELO HORIZONTE - COMARCA; DIVISÃO DE EDUCAÇÃO PARA O CONSUMO 1.100,00 0,00 450,00 0,00 0,00 0,00 0,00 0,00 879,47 31/10/2020
1039 622200 CASSIA VAZ DE AZEVEDO LISBOA MARZANO ASSESSOR BELO HORIZONTE - COMARCA; CGMP-SECRETARIA DA CORREGEDORIA-GERAL DO MP 1.100,00 769,39 450,00 0,00 0,00 0,00 0,00 0,00 0,00 31/10/2020
1040 156100 CASSIA VIRGINIA SERRA TEIXEIRA GONTIJO PROCURADOR DE JUSTICA BELO HORIZONTE - COMARCA; GABINETE DE PROCURADOR DE JUSTIÇA - SALA 610 1.100,00 0,00 2.451,80 0,00 14.184,89 0,00 0,00 0,00 541,78 31/10/2020
1041 971100 CASSIANO QUEIROZ AVELAR SILVEIRA ESTAGIARIO PASSOS; PASSOS-PJ-05PJ 0,00 0,00 0,00 189,00 0,00 0,00 0,00 0,00 0,00 31/10/2020
1042 121000 CASSIO HENRIQUE AFONSO DA SILVA OFICIAL DO MP BELO HORIZONTE - COMARCA; CGMP-ASSESSORIA JURIDICA 1.100,00 0,00 450,00 0,00 0,00 0,00 0,00 0,00 0,00 31/10/2020
1043 121100 CASSIO MOREIRA DE MIRANDA AGENTE DO MP BELO HORIZONTE - COMARCA; DIVISÃO DE FISCALIZAÇÃO DAS RELAÇÕES DE CONSU 1.100,00 0,00 450,00 0,00 0,00 0,00 -770,81 0,00 0,00 31/10/2020
1044 512001 CATARINA NATALINO CALIXTO COORDENADOR/ANALISTA BELO HORIZONTE - COMARCA; DIRETORIA GESTAO TRANSPORTES 1.100,00 0,00 450,00 0,00 0,00 0,00 0,00 0,00 -94,00 31/10/2020
1045 606200 CATARINE DE SIQUEIRA DE QUADROS ANALISTA DO MP RIBEIRÃO DAS NEVES - COMARCA; RIBEIRAO DAS NEVES-PJ-02PJ 1.100,00 0,00 450,00 0,00 0,00 0,00 0,00 0,00 0,00 31/10/2020
1046 622300 CECILIA APARECIDA PEREIRA ASSUNCAO OFICIAL DO MP TRÊS PONTAS - COMARCA; TRES PONTAS-PJ-SECRETARIA 1.100,00 769,39 450,00 0,00 0,00 0,00 0,00 0,00 0,00 31/10/2020
1047 538000 CECILIA FONTES DE MATOS PIMENTEL ANALISTA DO MP PALMA - COMARCA; PALMA-PJ-UNPJ 1.100,00 769,39 450,00 0,00 0,00 0,00 0,00 0,00 0,00 31/10/2020
1048 261300 CECILIO ANTONIO CAMPOS DOS REIS ANALISTA DO MP BELO HORIZONTE - COMARCA; AUDITORIA INTERNA 1.100,00 0,00 450,00 0,00 0,00 0,00 0,00 0,00 0,00 31/10/2020
1049 386400 CEFAS AMORELI DE FIGUEIREDO OFICIAL DO MP CABO VERDE - COMARCA; CABO VERDE-PJ-SECRETARIA 1.100,00 0,00 450,00 0,00 0,00 0,00 0,00 0,00 0,00 31/10/2020
1050 105600 CELIA BEATRIZ GOMES DOS SANTOS PROCURADOR DE JUSTICA BELO HORIZONTE - COMARCA; PROC JUSTICA DIR DIFUSOS E COLETIVOS-GAB006 1.100,00 0,00 1.599,00 0,00 14.184,89 0,00 0,00 0,00 541,78 31/10/2020
1051 149000 CELIA MAGALHAES CLAROS SOSSI OFICIAL DO MP GOVERNADOR VALADARES - COMARCA; GAECO REGIONAL DE GOVERNADOR VALADARES 1.100,00 0,00 450,00 0,00 0,00 0,00 0,00 0,00 0,00 31/10/2020
1052 421000 CELINA BENEDITA DE SOUZA ALMEIDA OFICIAL DO MP CAMBUÍ - COMARCA; CAMBUI-PJ-01PJ 1.100,00 0,00 450,00 0,00 0,00 0,00 0,00 0,00 469,65 31/10/2020
1053 252900 CELIO DE MELO CASTOR ANALISTA DO MP BELO HORIZONTE - COMARCA; BH-02PJ FAMILIA-SECRETARIA 1.100,00 0,00 450,00 0,00 0,00 0,00 0,00 0,00 0,00 31/10/2020
1054 486300 CELIO DIMAS ESTEVES RUAS PROMOT.ENTRANC.ESPECIAL CORONEL FABRICIANO - COMARCA; CORONEL FABRICIANO-PJ-02PJ 1.100,00 0,00 1.982,76 0,00 13.475,64 0,00 0,00 0,00 514,69 31/10/2020
1055 395700 CELIO FERREIRA LIMA OFICIAL DO MP CONTAGEM - COMARCA; CONTAGEM-PJ-SECRETARIA 1.100,00 769,39 450,00 0,00 0,00 0,00 0,00 0,00 0,00 31/10/2020
1056 281300 CELMA REGINA PEREIRA SANTOS ANALISTA DO MP BELO HORIZONTE - COMARCA; SUPERINTENDENCIA GESTÃO DE PESSOAS 1.100,00 0,00 450,00 0,00 0,00 0,00 0,00 0,00 0,00 31/10/2020
1057 535600 CELSO MEDEIROS DE PAIVA OFICIAL DO MP RIO PRETO - COMARCA; RIO PRETO-PJ-SECRETARIA 1.100,00 0,00 450,00 0,00 0,00 0,00 0,00 0,00 0,00 31/10/2020
1058 157700 CELSO PENNA FERNANDES JUNIOR PROMOT.ENTRANC.ESPECIAL BELO HORIZONTE - COMARCA; BH-23PJ CIVEL-GAB 162PJ 1.100,00 0,00 2.345,20 0,00 22.459,40 0,00 0,00 0,00 514,69 31/10/2020
1059 93700 CESAR ANTONIO COSSI PROCURADOR DE JUSTICA BELO HORIZONTE - COMARCA; GABINETE DE PROCURADOR DE JUSTIÇA - SALA 805 1.100,00 0,00 2.558,40 0,00 14.184,89 0,00 0,00 0,00 541,78 31/10/2020
1060 293100 CESAR ANTONIO DE LIMA PROMOT.ENTRANC.ESPECIAL VARGINHA - COMARCA; VARGINHA-PJ-04PJ 1.100,00 0,00 2.558,40 0,00 22.459,40 0,00 0,00 0,00 514,69 31/10/2020
1061 293800 CESAR AUGUSTO DOS SANTOS PROMOT.ENTRANC.ESPECIAL BELO HORIZONTE - COMARCA; BH-12PJ JUIZO CRIMINAL-GAB 091PJ 1.100,00 0,00 852,80 0,00 0,00 0,00 0,00 0,00 0,00 31/10/2020
1062 367000 CESAR NARVAES DE AVELAR COORDENADOR/OFICIAL BELO HORIZONTE - COMARCA; DIVISAO DE MEMORIA INSTITUCIONAL 1.100,00 0,00 450,00 0,00 0,00 0,00 0,00 0,00 0,00 31/10/2020
1063 226500 CESAR SILVEIRA BARROUIN OFICIAL DO MP BELO HORIZONTE - COMARCA; DIRETORIA DE ADMINISTRACAO FINANCEIRA 1.100,00 0,00 450,00 0,00 0,00 0,00 0,00 0,00 0,00 31/10/2020
1064 293500 CESAR YOSHIKAWA PROMOT.ENTRANC.ESPECIAL BELO HORIZONTE - COMARCA; BH-12PJ JUIZO CRIMINAL-GAB 083PJ 1.100,00 0,00 2.302,56 0,00 22.459,40 0,00 0,00 0,00 514,69 31/10/2020
1065 1125600 CEZAR AUGUSTO RANGEL MARQUES ESTAGIARIO JUIZ DE FORA; JUIZ DE FORA-PJ-22PJ 0,00 0,00 0,00 90,00 0,00 0,00 0,00 0,00 0,00 31/10/2020
1066 121400 CEZAR MORENO CONCEICAO TAVARES OFICIAL DO MP BELO HORIZONTE - COMARCA; EXTINTA-COORD EST DEF DIR FAM PES DEFIC IDOSO 1.100,00 769,39 450,00 0,00 0,00 0,00 0,00 0,00 0,00 31/10/2020
1067 1175900 CHARLENE MARISE DA SILVA ESTAGIARIO ESMERALDAS; ESMERALDAS-PJ-02PJ 0,00 0,00 0,00 180,00 0,00 0,00 0,00 0,00 0,00 31/10/2020
1068 664100 CHARLES BARBOSA DA SILVA 3O.SARGENTO BELO HORIZONTE - COMARCA; NUCLEO DE OPERACOES DE SEGURANCA DE PESSOAL 1.100,00 0,00 0,00 0,00 0,00 0,00 0,00 0,00 0,00 31/10/2020
1069 210400 CHARLES DANIEL FRANCA SALOMAO PROMOT.ENTRANC.ESPECIAL PARÁ DE MINAS - COMARCA; PARA DE MINAS-PJ-02PJ 1.100,00 0,00 1.748,24 0,00 13.475,64 0,00 0,00 0,00 514,69 31/10/2020
1070 669200 CHARLES HENRIQUE SQUARCIO CABO BELO HORIZONTE - COMARCA; GAECO - SECRETARIA 1.100,00 0,00 0,00 0,00 0,00 0,00 0,00 0,00 0,00 31/10/2020
1071 243800 CHARLES MARTINS MUNIZ OFICIAL DO MP BELO HORIZONTE - COMARCA; LAB TECNOLOGIA CONTRA LAVAGEM DINHEIRO 1.100,00 0,00 0,00 0,00 0,00 0,00 0,00 0,00 0,00 31/10/2020
1072 193500 CHARLIN CESAR KOURLY OFICIAL DO MP ARAGUARI - COMARCA; ARAGUARI-PJ-07PJ 1.100,00 0,00 450,00 0,00 0,00 0,00 0,00 0,00 0,00 31/10/2020
1073 385500 CHILLEN PEIXOTO DE MOURA OFICIAL DO MP BELO HORIZONTE - COMARCA; DIVISÃO DE FISCALIZAÇÃO DAS RELAÇÕES DE CONSU 1.100,00 0,00 450,00 0,00 0,00 0,00 0,00 0,00 0,00 31/10/2020
1074 1094300 CHRISLAYNE DE FATIMA DA SILVA ESTAGIARIO VICOSA; VICOSA-PJ-01PJ 0,00 0,00 0,00 63,00 0,00 0,00 0,00 0,00 0,00 31/10/2020
1075 1003500 CHRISTIAN ALEXANDRE DA SILVA PEREIRA ESTAGIARIO SANTA LUZIA; SANTA LUZIA-PJ-03PJ 0,00 0,00 0,00 90,00 0,00 0,00 0,00 0,00 0,00 31/10/2020
1076 534500 CHRISTIAN DOUGLAS BRITO RUAS OFICIAL DO MP SÃO JOÃO DA PONTE - COMARCA; SAO JOAO DA PONTE-PJ-SECRETARIA 1.100,00 0,00 450,00 0,00 0,00 0,00 0,00 0,00 304,74 31/10/2020
1077 370600 CHRISTIAN KARINE FELIX PRATES ASSESSOR BELO HORIZONTE - COMARCA; SUPRIN DE PLANEJAMENTO E COORDENACAO 1.100,00 0,00 450,00 0,00 0,00 0,00 0,00 0,00 0,00 31/10/2020
1078 1073800 CHRISTIAN RODRIGUES FRAGA DA SILVA ESTAGIARIO BELO HORIZONTE; SUPERINTENDÊNCIA DE ENGENHARIA E ARQUITETURA 0,00 0,00 0,00 81,00 0,00 0,00 0,00 0,00 0,00 31/10/2020
1079 435800 CHRISTIANA BAHIA ANDRADE PINA ANALISTA DO MP BELO HORIZONTE - COMARCA; LABORATORIO TECNOLOGIA INTELIGENCIA 1.100,00 769,39 450,00 0,00 0,00 0,00 0,00 0,00 0,00 31/10/2020
1080 516800 CHRISTIANE FERREIRA DO NASCIMENTO ANALISTA DO MP POUSO ALEGRE - COMARCA; POUSO ALEGRE-PJ-08PJ 1.100,00 0,00 450,00 0,00 0,00 0,00 0,00 0,00 0,00 31/10/2020
1081 176000 CHRISTIANE JUNQUEIRA PULITI ANDRADE DE BARROS ASSESSOR BELO HORIZONTE - COMARCA; CAO-VIOLENCIA DOMESTICA E FAMILIAR 1.100,00 0,00 450,00 0,00 0,00 0,00 0,00 0,00 0,00 31/10/2020
1082 319200 CHRISTIANE MARIA DE ASSIS RUSSO OFICIAL DO MP BELO HORIZONTE - COMARCA; CAO-ORDEM ECONOMICA E TRIBUTARIA-SECRETARIA 1.100,00 769,39 450,00 0,00 0,00 0,00 0,00 0,00 0,00 31/10/2020
1083 510300 CHRISTIANE MARY DE CARVALHO FERREIRA ANALISTA DO MP BELO HORIZONTE - COMARCA; DIRETORIA DE SISTEMAS DE INFORMACAO 1.100,00 0,00 450,00 0,00 0,00 0,00 0,00 0,00 0,00 31/10/2020
1084 424900 CHRISTIANE PEREIRA TURNER DE ARAUJO OFICIAL DO MP BELO HORIZONTE - COMARCA; CAO-PATRIMONIO PUBLICO 1.100,00 769,39 450,00 0,00 0,00 0,00 0,00 0,00 0,00 31/10/2020
1085 513700 CHRISTIANE VIEIRA SOARES PEDERSOLI ASSESSOR/ANALISTA BELO HORIZONTE - COMARCA; ASSESSORIA JURIDICA DO PROCON-MG 1.100,00 769,39 450,00 0,00 7.051,02 0,00 0,00 0,00 507,84 31/10/2020
1086 163300 CHRISTIANNE COTRIM ASSAD BENSOUSSAN PROMOT.ENTRANC.ESPECIAL BELO HORIZONTE - COMARCA; COORD ESTADUAL COMBATE CRIMES CIBERNETICOS 1.100,00 0,00 2.643,68 0,00 0,00 0,00 0,00 0,00 0,00 31/10/2020
1087 371400 CHRISTIANO LEONARDO GONZAGA GOMES PROMOTOR 1A ENTRANCIA JABOTICATUBAS - COMARCA; JABOTICATUBAS-PJ-UNPJ 1.100,00 0,00 1.279,20 0,00 0,00 0,00 0,00 0,00 0,00 31/10/2020
1088 412300 CHRYSTIAN MACHADO RIBEIRO ANALISTA DO MP VARGINHA - COMARCA; VARGINHA-PJ-04PJ 1.100,00 0,00 450,00 0,00 0,00 0,00 0,00 0,00 0,00 31/10/2020
1089 513800 CHRYSTIANE DO NASCIMENTO DE MAGALHAES OFICIAL DO MP UBERLÂNDIA - COMARCA; UBERLANDIA-PJ-10PJ 1.100,00 769,39 450,00 0,00 0,00 0,00 0,00 0,00 0,00 31/10/2020
1090 497900 CIBELE DE FREITAS SANCHES DIAS ANALISTA DO MP SABARÁ - COMARCA; SABARA-PJ-03PJ 1.100,00 0,00 450,00 0,00 0,00 0,00 0,00 0,00 286,48 31/10/2020
1091 500900 CIBELLE SILVA PRADO ALVARENGA ANALISTA DO MP ITANHANDU - COMARCA; ITANHANDU-PJ-UNPJ 1.100,00 1.538,78 450,00 0,00 0,00 0,00 0,00 0,00 0,00 31/10/2020
1092 1135700 CIBELLY OLIVEIRA SOARES ESTAGIARIO TEOFILO OTONI; TEOFILO OTONI-PJ-07PJ
1093 1131800 CINDY KEILA VILELA ESTAGIARIO LAVRAS; LAVRAS-PJ-06PJ 0,00 0,00 0,00 180,00 0,00 0,00 0,00 0,00 0,00 31/10/2020
1094 1163000 CINTHIA GONCALVES CAVALINI ESTAGIARIO UBERABA; UBERABA-PJ-11PJ 0,00 0,00 0,00 171,00 0,00 0,00 0,00 0,00 0,00 31/10/2020
1095 296400 CINTIA APARECIDA MOREIRA NAVES E RODRIGUES ANALISTA DO MP CAMPO BELO - COMARCA; CAMPO BELO-PJ-02PJ 1.100,00 0,00 450,00 0,00 0,00 0,00 0,00 0,00 920,81 31/10/2020
1096 928900 CINTIA CRISTINA DE SOUZA GONCALVES ESTAGIARIO BELO HORIZONTE; PROC. JUSTICA CRIMINAL
1097 171200 CINTIA MARIA OLIVEIRA DE LUCENA PROMOT.ENTRANC.ESPECIAL BELO HORIZONTE - COMARCA; BH-23PJ INFRACIONAL-GAB 144PJ 1.100,00 0,00 1.833,52 0,00 13.475,64 0,00 0,00 0,00 514,69 31/10/2020
1098 407900 CINTIA NETO COMELLI ANALISTA DO MP BELO HORIZONTE - COMARCA; CENTRAL DE APOIO TECNICO-SETOR CONTABIL 1.100,00 769,39 450,00 0,00 0,00 0,00 0,00 0,00 0,00 31/10/2020
1099 304700 CINTIA QUEIROZ OFICIAL DO MP BELO HORIZONTE - COMARCA; OUVIDORIA DO MPMG 1.100,00 0,00 450,00 0,00 0,00 0,00 0,00 0,00 0,00 31/10/2020
1100 163000 CINTIA ROBERTA GOMES DE LIMA PROMOTOR 2A ENTRANCIA VARGINHA - COMARCA; COORD REG PJ DEF EDUC DIR CRIANCA ADOL SUL 1.100,00 0,00 1.748,24 0,00 12.801,86 0,00 0,00 0,00 488,96 31/10/2020
1101 286100 CIRO CANGUSSU CORDEIRO OFICIAL DO MP IPATINGA - COMARCA; IPATINGA-PJ-09PJ 1.100,00 769,39 450,00 0,00 0,00 0,00 0,00 0,00 0,00 31/10/2020
1102 689900 CISSA NOGUEIRA NUNES ASSESSOR PROCURADOR JUSTICA BELO HORIZONTE - COMARCA; GABINETE DE PROCURADOR DE JUSTIÇA - SALA 608 1.300,00 0,00 900,00 0,00 0,00 0,00 0,00 0,00 1.437,54 31/10/2020
1103 1086300 CLARA ALEXANDRINA DOS SANTOS ESTAGIARIO BETIM; BETIM-PJ-13PJ 0,00 0,00 0,00 117,00 0,00 0,00 0,00 0,00 0,00 31/10/2020
1104 1052200 CLARA CAETANO TROPIA ESTAGIARIO BELO HORIZONTE; DIR CONTEUDO JORNALISTICO
1105 1185600 CLARA DE SALES DUARTE ESTAGIARIO BELO HORIZONTE; PROC. JUSTICA CRIMINAL 0,00 0,00 0,00 9,00 0,00 0,00 0,00 0,00 0,00 31/10/2020
1106 681700 CLARA FERREIRA ALKIMIM ASSESSOR PROMOTOR JUSTICA ARAÇUAÍ - COMARCA; ARACUAI-PJ-01PJ 1.100,00 0,00 450,00 0,00 0,00 0,00 0,00 0,00 0,00 31/10/2020
1107 1163800 CLARA GABRIELA GOUVEIA MONTEIRO ESTAGIARIO BELO HORIZONTE; PROC. JUSTICA CRIMINAL 0,00 0,00 0,00 18,00 0,00 0,00 0,00 0,00 0,00 31/10/2020
1108 1157100 CLARA ISABELLE SOUSA FARIA ESTAGIARIO BELO HORIZONTE; PROC. JUSTICA DE HABEAS CORPUS
1109 1095900 CLARA LAENDER GAZZINELLI ESTAGIARIO BELO HORIZONTE; PROC. JUSTICA DE HABEAS CORPUS
1110 996300 CLARA LIMA LIPOVETSKY ESTAGIARIO BELO HORIZONTE; CAO-FUNDACOES 0,00 0,00 0,00 99,00 0,00 0,00 0,00 0,00 0,00 31/10/2020
1111 1037300 CLARA MACIEL ANTUNES BARBOSA ESTAGIARIO BELO HORIZONTE; BH-19PJ SAUDE-GAB 047PJ 0,00 0,00 0,00 45,00 0,00 0,00 0,00 0,00 0,00 31/10/2020
1112 484900 CLARA MARIA HOEHNE SEPULVEDA PROMOTOR 2A ENTRANCIA PIRAPORA - COMARCA; PIRAPORA-PJ-01PJ 1.100,00 0,00 2.771,60 0,00 21.336,43 0,00 0,00 0,00 488,96 31/10/2020
1113 1157800 CLARA MARIA RODRIGUES DA SILVA ESTAGIARIO BELO HORIZONTE; BH-08PJ JUIZADO ESPECIAL-GAB 071PJ 0,00 0,00 0,00 54,00 0,00 0,00 0,00 0,00 0,00 31/10/2020
1114 995800 CLARA MICHELINI LACERDA ESTAGIARIO BELO HORIZONTE; EXTINTA-COORD EST DEF DIR FAM PES DEFIC IDOSO 0,00 0,00 0,00 18,00 562,33 0,00 0,00 0,00 0,00 31/10/2020
1115 894700 CLARA RODRIGUES BLACH ESTAGIARIO BELO HORIZONTE; BH-19PJ SAUDE-GAB 129PJ
1116 1086700 CLARICE CARDOSO VALENTIM ESTAGIARIO BELO HORIZONTE; DIRET DE FORMACAO, APERFEIC. E POS-GRADUACAO
1117 412500 CLARICE GOMES MAROTTA ANALISTA DO MP BELO HORIZONTE - COMARCA; PROMOT ESTADUAL DE DEF PATRI CULT E TUR DE MG 1.100,00 0,00 450,00 0,00 0,00 0,00 0,00 0,00 0,00 31/10/2020
1118 1005900 CLARICE GUIMARAES RABELLO ESTAGIARIO BELO HORIZONTE; DIVISAO DE MEMORIA INSTITUCIONAL
1119 1134500 CLARISSA ALVES DA SILVA ESTAGIARIO TEOFILO OTONI; TEOFILO OTONI-PJ-05PJ 0,00 0,00 0,00 126,00 0,00 0,00 0,00 0,00 0,00 31/10/2020
1120 605300 CLARISSA AZEVEDO ROCHA OFICIAL DO MP BELO HORIZONTE - COMARCA; DIRET DE DESENV DE RECURSOS HUMANOS-DDRH 1.100,00 0,00 450,00 0,00 0,00 0,00 0,00 0,00 0,00 31/10/2020
1121 1059700 CLARISSA BRANDAO FREITAS ESTAGIARIO BELO HORIZONTE; BH-07PJ 01 TRIBUNAL JURI-SECRETARIA 0,00 0,00 0,00 81,00 0,00 0,00 0,00 0,00 0,00 31/10/2020
1122 308100 CLARISSA DUARTE BELLONI DIRETOR/ANALISTA BELO HORIZONTE - COMARCA; DIRETORIA-GERAL 1.100,00 2.307,08 450,00 0,00 0,00 0,00 0,00 0,00 -110,13 31/10/2020
1123 402100 CLARISSA GOBBO DOS SANTOS PROMOT.ENTRANC.ESPECIAL RIBEIRÃO DAS NEVES - COMARCA; RIBEIRAO DAS NEVES-PJ-09PJ 1.100,00 0,00 2.601,04 0,00 13.475,64 0,00 0,00 0,00 514,69 31/10/2020
1124 1020500 CLARISSA MATEUS LAVARINI CALAZANS ESTAGIARIO SETE LAGOAS; SETE LAGOAS-PJ-01PJ 0,00 0,00 0,00 45,00 0,00 0,00 0,00 0,00 0,00 31/10/2020
1125 497100 CLARISSA ROCHA GUIDI ANALISTA DO MP BELO HORIZONTE - COMARCA; BH-02PJ FAMILIA-SECRETARIA 1.100,00 769,39 450,00 0,00 0,00 0,00 0,00 0,00 0,00 31/10/2020
1126 661600 CLARISSE PEREZ DO NASCIMENTO NASCIF MENDES PROMOTOR 1A ENTRANCIA BARÃO DE COCAIS - COMARCA; BARAO DE COCAIS-PJ-UNPJ 1.100,00 0,00 2.848,80 0,00 12.161,76 0,00 0,00 0,00 464,51 31/10/2020
1127 641800 CLARISSE TAVARES GONCALVES OFICIAL DO MP BELO HORIZONTE - COMARCA; BH-07PJ 01 TRIBUNAL JURI-SECRETARIA 1.100,00 0,00 450,00 0,00 0,00 0,00 0,00 0,00 0,00 31/10/2020
1128 463700 CLAUDIA ADRIANA FERRAO DIAS ANALISTA DO MP SETE LAGOAS - COMARCA; SETE LAGOAS-PJ-06PJ 1.100,00 0,00 450,00 0,00 0,00 0,00 0,00 0,00 0,00 31/10/2020
1129 415400 CLAUDIA ALMEIDA DE VASCONCELLOS BARROS ASSESSOR/OFICIAL BELO HORIZONTE - COMARCA; DIVISAO DE SERVICOS 1.100,00 0,00 450,00 0,00 0,00 0,00 0,00 0,00 0,00 31/10/2020
1130 207000 CLAUDIA APARECIDA VILELA MACHADO ANALISTA DO MP BELO HORIZONTE - COMARCA; CENTRAL DE APOIO TECNICO-SETOR CONTABIL 1.100,00 0,00 450,00 0,00 0,00 0,00 0,00 0,00 0,00 31/10/2020
1131 314400 CLAUDIA AUGUSTA LOPES DE MENDONCA PROMOT.ENTRANC.ESPECIAL BELO HORIZONTE - COMARCA; BH-09PJ AUDITORIA MILITAR-GAB 073PJ 1.100,00 0,00 1.915,60 0,00 13.475,64 0,00 0,00 0,00 514,69 31/10/2020
1132 365700 CLAUDIA BREGUEZ CUNHA ANALISTA DO MP VARGINHA - COMARCA; VARGINHA-PJ-07PJ 1.100,00 0,00 450,00 0,00 0,00 0,00 0,00 0,00 0,00 31/10/2020
1133 430500 CLAUDIA CECILIA SANTANA VENCESLAU OFICIAL DO MP BELO HORIZONTE - COMARCA; DIR ANALISES TECNOLOGIA INTELIGENCIA 1.100,00 0,00 450,00 0,00 0,00 0,00 0,00 0,00 0,00 31/10/2020
1134 112400 CLAUDIA CRISTINA FIUZA DE AVELAR AGENTE DO MP BELO HORIZONTE - COMARCA; SERVICO MEDICO-DEPTO PERIC MEDICA SAUDE OCUP 1.100,00 0,00 450,00 0,00 0,00 0,00 0,00 0,00 0,00 31/10/2020
1135 98300 CLAUDIA DE OLIVEIRA IGNEZ PROMOTOR 2A ENTRANCIA NOVA LIMA - COMARCA; NOVA LIMA-PJ-01PJ 1.100,00 0,00 1.172,60 0,00 8.534,57 0,00 0,00 0,00 0,00 31/10/2020
1136 167300 CLAUDIA DO AMARAL XAVIER PROMOT.ENTRANC.ESPECIAL BELO HORIZONTE - COMARCA; BH-CENTRAL DE RECEPÇÃO DE FLAGRANTES 1.100,00 0,00 1.833,52 0,00 22.459,40 0,00 0,00 0,00 514,69 31/10/2020
1137 890200 CLAUDIA DOS SANTOS ROBERTO NASCIMENTO ESTAGIARIO BELO HORIZONTE; DIVISAO DE MEMORIA INSTITUCIONAL
1138 163100 CLAUDIA FERREIRA DE SOUZA PROMOT.ENTRANC.ESPECIAL BELO HORIZONTE - COMARCA; CORREGEDORIA-GERAL-ASSESSORIA 1.100,00 0,00 1.790,88 0,00 13.475,64 0,00 0,00 0,00 514,69 31/10/2020
1139 174500 CLAUDIA FERREIRA PACHECO DE FREITAS PROMOT.ENTRANC.ESPECIAL BELO HORIZONTE - COMARCA; BH-18PJ DIREITOS HUMANOS-GAB 125PJ 1.100,00 0,00 3.070,08 0,00 22.459,40 0,00 0,00 0,00 514,69 31/10/2020
1140 167200 CLAUDIA FREDDO MARQUES CARVALHO PROMOT.ENTRANC.ESPECIAL UBERABA - COMARCA; UBERABA-PJ-14PJ 1.100,00 0,00 3.368,91 0,00 22.459,40 0,00 0,00 0,00 514,69 31/10/2020
1141 480400 CLAUDIA GOULART DE SOUZA OFICIAL DO MP PASSOS - COMARCA; PASSOS-PJ-06PJ 1.100,00 0,00 450,00 0,00 0,00 0,00 0,00 0,00 0,00 31/10/2020
1142 519800 CLAUDIA HELENA CORREA DE ALMEIDA ANALISTA DO MP BELO HORIZONTE - COMARCA; BH-12PJ JUIZO CRIMINAL-GAB 096PJ 1.100,00 0,00 450,00 0,00 0,00 0,00 0,00 0,00 0,00 31/10/2020
1143 422100 CLAUDIA IACOMINI CABRAL ANALISTA DO MP BELO HORIZONTE - COMARCA; CENT DE APOIO TEC-SETOR DEF,IDOSO E INFANC 1.100,00 0,00 450,00 0,00 0,00 0,00 0,00 0,00 0,00 31/10/2020
1144 258200 CLAUDIA LAGE MICHALAROS ANALISTA DO MP BELO HORIZONTE - COMARCA; CENTRAL DE APOIO TECN-SETOR DE MEIO AMBIENTE 1.100,00 0,00 450,00 0,00 0,00 0,00 0,00 0,00 0,00 31/10/2020
1145 284600 CLAUDIA LENI DE FREITAS OFICIAL DO MP CONTAGEM - COMARCA; CONTAGEM-PJ-SECRETARIA 1.100,00 0,00 450,00 0,00 0,00 0,00 0,00 0,00 0,00 31/10/2020
1146 175200 CLAUDIA LOPES SILVA SCIOLI PROMOT.ENTRANC.ESPECIAL POUSO ALEGRE - COMARCA; POUSO ALEGRE-PJ-07PJ 1.100,00 0,00 3.038,96 0,00 22.459,40 0,00 0,00 0,00 514,69 31/10/2020
1147 433600 CLAUDIA LUIZA SANTIAGO FELICIO ANALISTA DO MP BELO HORIZONTE - COMARCA; CENT DE APOIO TEC-SETOR DEF,IDOSO E INFANC 1.100,00 0,00 450,00 0,00 0,00 0,00 0,00 0,00 0,00 31/10/2020
1148 317000 CLAUDIA MACHADO ALVES ASSESSOR/OFICIAL BELO HORIZONTE - COMARCA; DIR GOVERNANCA TECNOLOGIA INFORMACAO 1.100,00 0,00 450,00 0,00 0,00 0,00 0,00 0,00 -35,67 31/10/2020
1149 155300 CLAUDIA MACIEL MIRANDA E BELO OFICIAL DO MP CONGONHAS - COMARCA; CONGONHAS-PJ-02PJ 1.100,00 0,00 450,00 0,00 0,00 0,00 0,00 0,00 0,00 31/10/2020
1150 242200 CLAUDIA MICHELLE DIAS MUNIZ BALEEIRO OFICIAL DO MP MONTE AZUL - COMARCA; MONTE AZUL-PJ-SECRETARIA 1.100,00 0,00 450,00 0,00 0,00 0,00 0,00 0,00 790,83 31/10/2020
1151 236500 CLAUDIA NETO COMELLI PROMOT.ENTRANC.ESPECIAL CONTAGEM - COMARCA; CONTAGEM-PJ-20PJ 1.100,00 0,00 2.701,84 0,00 13.475,64 0,00 0,00 0,00 514,69 31/10/2020
1152 623000 CLAUDIA PATRICIA SILVA RODRIGUES RAPOSEIRAS OFICIAL DO MP PARÁ DE MINAS - COMARCA; PARA DE MINAS-PJ-02PJ 1.100,00 769,39 450,00 0,00 0,00 0,00 0,00 0,00 0,00 31/10/2020
1153 418400 CLAUDIA REGINA MARTINS BONIFACIO OFICIAL DO MP ITUIUTABA - COMARCA; ITUIUTABA-PJ-06PJ 1.100,00 0,00 450,00 0,00 0,00 0,00 0,00 0,00 0,00 31/10/2020
1154 498300 CLAUDIA SOUTO FARIAS BRAUN OFICIAL DO MP TEÓFILO OTONI - COMARCA; TEOFILO OTONI-PJ-SECRETARIA 1.100,00 0,00 450,00 0,00 0,00 0,00 0,00 0,00 0,00 31/10/2020
1155 79600 CLAUDIA SPRANGER E SILVA LUIZ MOTTA PROCURADOR DE JUSTICA BELO HORIZONTE - COMARCA; CAO-DH CONT EXT ATIV POLIC E AP COMUNIT 1.100,00 0,00 1.769,56 0,00 14.184,89 0,00 0,00 0,00 541,78 31/10/2020
1156 206500 CLAUDIA VALERIA FONSECA ANDRADE ANALISTA DO MP BELO HORIZONTE - COMARCA; BH-23PJ INF-FISC MED SOC FEC 1.100,00 0,00 450,00 0,00 0,00 0,00 0,00 0,00 0,00 31/10/2020
1157 277500 CLAUDIO ANTONIO BORGES BRUNSWICK ALVARES OFICIAL DO MP BELO HORIZONTE - COMARCA; SUPERINTENDENCIA GESTÃO DE PESSOAS 1.100,00 0,00 450,00 0,00 0,00 0,00 0,00 0,00 0,00 31/10/2020
1158 444800 CLAUDIO ARESIO DO CARMO ANALISTA DO MP SETE LAGOAS - COMARCA; SETE LAGOAS-PJ-01PJ 1.100,00 0,00 450,00 0,00 0,00 0,00 0,00 0,00 0,00 31/10/2020
1159 532100 CLAUDIO DANIEL FONSECA DE ALMEIDA PROMOTOR 2A ENTRANCIA MARIANA - COMARCA; MARIANA-PJ-02PJ 1.100,00 0,00 2.025,40 0,00 12.801,86 0,00 0,00 0,00 488,96 31/10/2020
1160 541600 CLAUDIO DE OLIVEIRA MELO OFICIAL DO MP CANÁPOLIS - COMARCA; CANAPOLIS-PJ-UNPJ 1.100,00 769,39 450,00 0,00 0,00 0,00 0,00 0,00 0,00 31/10/2020
1161 76700 CLAUDIO EMANUEL DA CUNHA PROCURADOR DE JUSTICA BELO HORIZONTE - COMARCA; GABINETE DE PROCURADOR DE JUSTIÇA - SALA 305 1.100,00 0,00 2.345,20 0,00 14.184,89 0,00 0,00 0,00 541,78 31/10/2020
1162 100500 CLAUDIO FERREIRA DE OLIVEIRA FILHO PROMOTOR 2A ENTRANCIA LAMBARI - COMARCA; LAMBARI-PJ-UNPJ 1.100,00 0,00 2.345,20 0,00 33.071,47 0,00 0,00 0,00 488,96 31/10/2020
1163 1098600 CLAUDIO HENRIQUE AMARAL DOS SANTOS ESTAGIARIO SANTA RITA DO SAPUCAI; SANTA RITA DO SAPUCAI-PJ-01PJ 0,00 0,00 0,00 63,00 0,00 0,00 0,00 0,00 0,00 31/10/2020
1164 545100 CLAUDIO HENRIQUE MACEDO DE SOUZA FRANSOZO ANALISTA DO MP OURO PRETO - COMARCA; OURO PRETO-PJ-03PJ 1.100,00 769,39 450,00 0,00 0,00 0,00 0,00 0,00 0,00 31/10/2020
1165 353500 CLAUDIO HENRIQUE PEDRO DA ROCHA OFICIAL DO MP BELO HORIZONTE - COMARCA; DIVISAO TRANSPORTES 1.100,00 0,00 450,00 0,00 0,00 0,00 0,00 0,00 0,00 31/10/2020
1166 265800 CLAUDIO KUPIDLOWSKY FERNANDES OFICIAL DO MP BELO HORIZONTE - COMARCA; SECRETARIA DO PROCON-MG 1.100,00 0,00 450,00 0,00 0,00 0,00 0,00 0,00 0,00 31/10/2020
1167 193600 CLAUDIO LEITE FONTES OFICIAL DO MP ITUIUTABA - COMARCA; ITUIUTABA-PJ-02PJ 1.100,00 0,00 450,00 0,00 0,00 0,00 0,00 0,00 0,00 31/10/2020
1168 102000 CLAUDIO LUIZ GONCALVES MARINS PROMOTOR 2A ENTRANCIA GUAXUPÉ - COMARCA; GUAXUPE-PJ-03PJ 1.100,00 0,00 2.345,20 0,00 21.336,43 0,00 0,00 0,00 488,96 31/10/2020
1169 163200 CLAUDIO MAIA DE BARROS PROMOT.ENTRANC.ESPECIAL BELO HORIZONTE - COMARCA; BH-07PJ 01 TRIBUNAL DO JURI-GAB 059PJ 1.100,00 0,00 2.579,72 0,00 0,00 0,00 0,00 0,00 0,00 31/10/2020
1170 590700 CLAUDIO MANOEL FERNANDES AGENTE DE POLICIA BELO HORIZONTE - COMARCA; GAECO - SETOR POLICIAL CIVIL 1.100,00 0,00 0,00 0,00 0,00 0,00 0,00 0,00 0,00 31/10/2020
1171 329400 CLAUDIO MARCIO BERNARDES OFICIAL DO MP ITAÚNA - COMARCA; ITAUNA-PJ-03PJ 1.100,00 769,39 450,00 0,00 0,00 0,00 0,00 0,00 0,00 31/10/2020
1172 270200 CLAUDIO RABELO ALVES OFICIAL DO MP FORMIGA - COMARCA; FORMIGA-PJ-03PJ 1.100,00 0,00 450,00 0,00 0,00 0,00 0,00 0,00 0,00 31/10/2020
1173 264700 CLAUDIO ROBERTO KFURI DE ARAUJO ANALISTA DO MP BELO HORIZONTE - COMARCA; CENTRAL DE APOIO TECNICO-SETOR DE INFORMATICA 1.100,00 0,00 450,00 0,00 0,00 0,00 0,00 0,00 0,00 31/10/2020
1174 188600 CLAUDIO SALES OFICIAL DO MP NEPOMUCENO - COMARCA; NEPOMUCENO-PJ-SECRETARIA 1.100,00 0,00 450,00 0,00 0,00 0,00 0,00 0,00 721,93 31/10/2020
1175 543300 CLAUDIO SILVA DE CARVALHO ANALISTA DO MP CAMPO BELO - COMARCA; CAMPO BELO-PJ-03PJ 1.100,00 0,00 450,00 0,00 0,00 0,00 0,00 0,00 177,04 31/10/2020
1176 144300 CLAUDIO VARELLA DE SOUZA PROCURADOR DE JUSTICA BELO HORIZONTE - COMARCA; GABINETE DE PROCURADOR DE JUSTIÇA - SALA 712 1.100,00 0,00 1.172,60 0,00 23.641,48 0,00 0,00 0,00 541,78 31/10/2020
1177 160700 CLAUDIO VICENTE HESS ASSESSOR BELO HORIZONTE - COMARCA; CENTRAL DE APOIO TECNICO-SETOR DE INFORMATICA 1.100,00 0,00 450,00 0,00 0,00 0,00 0,00 0,00 0,00 31/10/2020
1178 312900 CLAUDIO VIEIRA FIRPE OFICIAL DO MP BELO HORIZONTE - COMARCA; DIR RELACOES INSTITUCIONAIS 1.100,00 307,76 450,00 0,00 0,00 0,00 0,00 0,00 0,00 31/10/2020
1179 634100 CLEA CRISTINA GUERRA DE FREITAS COSTA OFICIAL DO MP BELO HORIZONTE - COMARCA; BH-18PJ VIOLENCIA DOMESTICA-SECRETARIA 1.100,00 769,39 450,00 0,00 0,00 0,00 0,00 0,00 0,00 31/10/2020
1180 244800 CLEBER AUGUSTO DO NASCIMENTO PROMOTOR 2A ENTRANCIA CAMPO BELO - COMARCA; CAMPO BELO-PJ-04PJ 1.100,00 0,00 2.752,80 0,00 12.801,86 0,00 0,00 0,00 488,96 31/10/2020
1181 439000 CLEBER COUTO PROMOT.ENTRANC.ESPECIAL PATOS DE MINAS - COMARCA; COORD REG PJ DEF EDU DIR CRI ADO AL PAR NOROE 1.100,00 0,00 2.815,56 0,00 13.475,64 0,00 0,00 0,00 514,69 31/10/2020
1182 653100 CLEBER SOUZA SCALIONI ASSESSOR BELO HORIZONTE - COMARCA; CENTRAL DE APOIO TECNICO-SETOR CONTABIL 1.100,00 0,00 450,00 0,00 0,00 0,00 0,00 0,00 0,00 31/10/2020
1183 1167700 CLEBERSON AUGUSTO ALVES ESTAGIARIO 0,00 0,00 0,00 189,00 0,00 0,00 0,00 0,00 0,00 31/10/2020
1184 459200 CLEIA ZILLE PEREIRA ANALISTA DO MP BELO HORIZONTE - COMARCA; BH-07PJ 01 TRIBUNAL JURI-SECRETARIA 1.100,00 0,00 450,00 0,00 0,00 0,00 0,00 0,00 0,00 31/10/2020
1185 481800 CLEIDE CARDOSO DA SILVA ANALISTA DO MP MANHUAÇU - COMARCA; MANHUACU-PJ-04PJ 1.100,00 0,00 450,00 0,00 0,00 0,00 0,00 0,00 0,00 31/10/2020
1186 225000 CLEIDE PEREIRA DA SILVA PROMOT.ENTRANC.ESPECIAL BELO HORIZONTE - COMARCA; BH-09PJ AUDITORIA MILITAR-GAB 161PJ 1.100,00 0,00 980,72 0,00 0,00 0,00 0,00 0,00 0,00 31/10/2020
1187 347600 CLEIDIMAR DE OLIVEIRA SILVA OFICIAL DO MP PATOS DE MINAS - COMARCA; PATOS DE MINAS-PJ-03PJ 1.100,00 0,00 450,00 0,00 0,00 0,00 0,00 0,00 0,00 31/10/2020
1188 396500 CLEIDISON BATISTA DE ANDRADE OFICIAL DO MP RESPLENDOR - COMARCA; RESPLENDOR-PJ-UNPJ 1.100,00 769,39 450,00 0,00 0,00 0,00 0,00 0,00 0,00 31/10/2020
1189 535100 CLEISON ALVES DA SILVA ANALISTA DO MP BOA ESPERANÇA - COMARCA; BOA ESPERANCA-PJ-01PJ 1.100,00 0,00 450,00 0,00 0,00 0,00 0,00 0,00 0,00 31/10/2020
1190 298100 CLEONICE AUGUSTA BARROS DE OLIVEIRA ANALISTA DO MP JUIZ DE FORA - COMARCA; JUIZ DE FORA-PJ-08PJ 1.100,00 0,00 450,00 0,00 0,00 0,00 0,00 0,00 0,00 31/10/2020
1191 114300 CLERES PEREIRA DA SILVA JUNIOR ASSESSOR BELO HORIZONTE - COMARCA; GAECO - SECRETARIA 1.100,00 0,00 450,00 0,00 0,00 0,00 0,00 0,00 0,00 31/10/2020
1192 264100 CLETO HENRIQUE ANDRADE SILVA ANALISTA DO MP BELO HORIZONTE - COMARCA; DIRETORIA DE SISTEMAS DE INFORMACAO 1.100,00 0,00 450,00 0,00 0,00 0,00 0,00 0,00 0,00 31/10/2020
1193 334400 CLEUBA DE OLIVEIRA BARCELOS GONCALVES OFICIAL DO MP DIVINÓPOLIS - COMARCA; COORD REG SAUDE MACRORREGIAO SANITARIA OESTE 1.100,00 0,00 450,00 0,00 0,00 0,00 0,00 0,00 0,00 31/10/2020
1194 347500 CLEUSA CORDEIRO DA MATA PIMENTA OFICIAL DO MP CAMPO BELO - COMARCA; CAMPO BELO-PJ-02PJ 1.100,00 0,00 450,00 0,00 0,00 0,00 0,00 0,00 0,00 31/10/2020
1195 92400 CLEVERSON RAYMUNDO SBARZI GUEDES PROMOT.ENTRANC.ESPECIAL JUIZ DE FORA - COMARCA; JUIZ DE FORA-PJ-14PJ 1.100,00 0,00 3.368,91 0,00 22.459,40 0,00 0,00 0,00 514,69 31/10/2020
1196 510200 CLEZIO SALES SILVA OFICIAL DO MP BRASÓPOLIS - COMARCA; BRASOPOLIS-PJ-UNPJ 1.100,00 769,39 450,00 0,00 0,00 179,28 0,00 0,00 0,00 31/10/2020
1197 323000 CLOTILDE DE PADUA VIEIRA OFICIAL DO MP BELO HORIZONTE - COMARCA; BH-19PJ SAUDE-SECRETARIA 129PJ 1.100,00 0,00 450,00 0,00 0,00 0,00 0,00 0,00 0,00 31/10/2020
1198 285200 CLOVIS ANDRE LUDTKE OFICIAL DO MP BELO HORIZONTE - COMARCA; DIVISAO DE MANUTENCAO PREDIAL 1.100,00 0,00 450,00 0,00 0,00 0,00 0,00 0,00 0,00 31/10/2020
1199 381100 CONCEICAO APARECIDA TEIXEIRA ARANTES ANALISTA DO MP BELO HORIZONTE - COMARCA; BH-23PJ INFRACIONAL-ASS JURIDICA 1.100,00 769,39 450,00 0,00 0,00 0,00 0,00 0,00 1.658,40 31/10/2020
1200 1031700 CONRADO FIGUEIREDO ALMEIDA ESTAGIARIO SAO FRANCISCO; SAO FRANCISCO-PJ-01PJ 0,00 0,00 0,00 171,00 0,00 0,00 0,00 0,00 0,00 31/10/2020
1201 249900 CONSTANTINO CEZAR GOMES MOTA OFICIAL DO MP MONTES CLAROS - COMARCA; COORD REG BACIA RIOS VERDE GRANDE E PARDO 1.100,00 769,39 450,00 0,00 0,00 0,00 0,00 0,00 0,00 31/10/2020
1202 594800 COSME COELHO TEIXEIRA 3O.SARGENTO BELO HORIZONTE - COMARCA; NUCLEO DE CONTRAINTELIGENCIA 1.100,00 0,00 0,00 0,00 0,00 0,00 0,00 0,00 0,00 31/10/2020
1203 481000 CRISHMA ANALIA LOMBELLO ANALISTA DO MP JUIZ DE FORA - COMARCA; JUIZ DE FORA-PJ-13PJ 1.100,00 0,00 450,00 0,00 0,00 0,00 0,00 0,00 0,00 31/10/2020
1204 977400 CRISLAINE MAGALHAES SOBRINHO ESTAGIARIO NOVA LIMA; NOVA LIMA-PJ-04PJ 0,00 0,00 0,00 54,00 0,00 0,00 0,00 0,00 0,00 31/10/2020
1205 523900 CRISTHYANE BAZOLI COSTA GUEDES COUTO OFICIAL DO MP BELO HORIZONTE - COMARCA; BH-04PJ JUIZO REG PÚBLICOS-SECRETARIA 1.100,00 0,00 450,00 0,00 0,00 0,00 0,00 0,00 381,42 31/10/2020
1206 187000 CRISTIAN DAYVSON EVANGELISTA OFICIAL DO MP JUIZ DE FORA - COMARCA; JUIZ DE FORA-PJ-13PJ 1.100,00 0,00 450,00 0,00 0,00 0,00 0,00 0,00 0,00 31/10/2020
1207 245000 CRISTIAN LUCIO DA SILVA PROMOT.ENTRANC.ESPECIAL BELO HORIZONTE - COMARCA; BH-07PJ 03 TRIBUNAL DO JURI-GAB 064PJ 1.100,00 0,00 2.887,68 0,00 13.475,64 0,00 0,00 0,00 514,69 31/10/2020
1208 682100 CRISTIAN TRISTAO DE ANDRADE ASSESSOR PROMOTOR JUSTICA TRÊS CORACOES - COMARCA; TRES CORACOES-PJ-04PJ 1.100,00 0,00 450,00 0,00 0,00 0,00 0,00 0,00 0,00 31/10/2020
1209 319800 CRISTIANA GONCALVES DOS SANTOS GUSMAO OFICIAL DO MP PARAOPEBA - COMARCA; PARAOPEBA-PJ-UNPJ 1.100,00 0,00 450,00 0,00 0,00 0,00 0,00 0,00 643,86 31/10/2020
1210 520600 CRISTIANA JANAINA BARBOZA JUVENCIO DOS SANTOS ANALISTA DO MP BELO HORIZONTE - COMARCA; BH-02PJ FAMILIA-SECRETARIA 1.100,00 0,00 450,00 0,00 0,00 0,00 0,00 0,00 0,00 31/10/2020
1211 195600 CRISTIANA SOARES HALABI OFICIAL DO MP UBERABA - COMARCA; UBERABA-PJ-01PJ 1.100,00 0,00 450,00 0,00 0,00 0,00 0,00 0,00 0,00 31/10/2020
1212 218900 CRISTIANE ALVES BELLES OFICIAL DO MP JUIZ DE FORA - COMARCA; JUIZ DE FORA-PJ-10PJ 1.100,00 1.153,54 450,00 0,00 0,00 0,00 0,00 0,00 0,00 31/10/2020
1213 291600 CRISTIANE CAMPOS AMORIM BARONY PROMOTOR 2A ENTRANCIA CARANGOLA - COMARCA; CARANGOLA-PJ-03PJ 1.100,00 0,00 2.638,40 0,00 12.801,86 0,00 0,00 0,00 488,96 31/10/2020
1214 263600 CRISTIANE CARVALHO COUTINHO OFICIAL DO MP BELO HORIZONTE - COMARCA; BH-23PJ INFRACIONAL-SEC EXP 1.100,00 0,00 450,00 0,00 0,00 0,00 0,00 0,00 0,00 31/10/2020
1215 541000 CRISTIANE COELHO ALVES OFICIAL DO MP ITABIRA - COMARCA; ITABIRA-PJ-03PJ 1.100,00 0,00 450,00 0,00 0,00 0,00 0,00 0,00 0,00 31/10/2020
1216 441700 CRISTIANE CORRADO DE ANDRADE ANALISTA DO MP BELO HORIZONTE - COMARCA; DIRETORIA DE SISTEMAS DE INFORMACAO 1.100,00 0,00 450,00 0,00 0,00 0,00 0,00 0,00 0,00 31/10/2020
1217 375100 CRISTIANE DAS DORES ERCIO DE LIMA OFICIAL DO MP GOVERNADOR VALADARES - COMARCA; COOR REG APOIO COM INC MOB VALE DO RIO DOCE 1.100,00 0,00 450,00 0,00 0,00 0,00 0,00 0,00 0,00 31/10/2020
1218 1163300 CRISTIANE DE FREITAS SOARES ESTAGIARIO MANHUACU; MANHUACU-PJ-02PJ 0,00 0,00 0,00 189,00 0,00 0,00 0,00 0,00 0,00 31/10/2020
1219 178800 CRISTIANE DE LIMA HOSKEN OFICIAL DO MP BELO HORIZONTE - COMARCA; BH-14PJ DEFESA CONSUMIDOR-GAB 110PJ 1.100,00 0,00 450,00 0,00 0,00 0,00 0,00 0,00 0,00 31/10/2020
1220 494000 CRISTIANE DE MELO MARQUEZ OLIVEIRA ANALISTA DO MP UBERLÂNDIA - COMARCA; UBERLANDIA-PJ-06PJ 1.100,00 1.538,78 450,00 0,00 0,00 0,00 0,00 0,00 0,00 31/10/2020
1221 266100 CRISTIANE DE OLIVEIRA CASTRO OFICIAL DO MP BELO HORIZONTE - COMARCA; BH-14PJ DEFESA CONSUMIDOR-SECRETARIA 1.100,00 0,00 450,00 0,00 0,00 0,00 1.445,27 0,00 0,00 31/10/2020
1222 329500 CRISTIANE DOS REIS SILVA OFICIAL DO MP ARAXÁ - COMARCA; ARAXA-PJ-04PJ 1.100,00 0,00 450,00 0,00 0,00 0,00 0,00 0,00 0,00 31/10/2020
1223 301600 CRISTIANE GODINHO PIRES ANALISTA DO MP BETIM - COMARCA; BETIM-PJ-07PJ 1.100,00 0,00 450,00 0,00 0,00 0,00 0,00 0,00 0,00 31/10/2020
1224 1187300 CRISTIANE GOMES CAROBA ESTAGIARIO MONTES CLAROS; MONTES CLAROS-PJ-02PJ 0,00 0,00 0,00 54,00 0,00 0,00 0,00 0,00 0,00 31/10/2020
1225 406100 CRISTIANE GONCALVES CHAVES ANALISTA DO MP BELO HORIZONTE - COMARCA; BH-14PJ DEFESA CONSUMIDOR-GAB 112PJ 1.100,00 0,00 450,00 0,00 0,00 0,00 0,00 0,00 0,00 31/10/2020
1226 487600 CRISTIANE LOPES DE OLIVEIRA OFICIAL DO MP DIVINÓPOLIS - COMARCA; DIVINOPOLIS-PJ-03PJ 1.100,00 0,00 450,00 0,00 0,00 0,00 0,00 0,00 0,00 31/10/2020
1227 502500 CRISTIANE MACIEL DE OLIVEIRA GOMES ANALISTA DO MP JUIZ DE FORA - COMARCA; JUIZ DE FORA-PJ-05PJ 1.100,00 769,39 450,00 0,00 0,00 0,00 0,00 0,00 0,00 31/10/2020
1228 285500 CRISTIANE MAGALHAES LOURENCO ANALISTA DO MP BELO HORIZONTE - COMARCA; CENTRAL DE APOIO TECNICO-SETOR CONTABIL 1.100,00 0,00 450,00 0,00 0,00 0,00 0,00 0,00 0,00 31/10/2020
1229 536500 CRISTIANE MICHELE DE SOUZA ANALISTA DO MP BARÃO DE COCAIS - COMARCA; BARAO DE COCAIS-PJ-UNPJ 1.100,00 769,39 450,00 0,00 0,00 0,00 0,00 0,00 0,00 31/10/2020
1230 346600 CRISTIANE NOGUEIRA ANDRADE ANALISTA DO MP BELO HORIZONTE - COMARCA; CENTRAL DE APOIO TECNICO-SETOR CONTABIL 1.100,00 0,00 450,00 0,00 0,00 0,00 0,00 0,00 0,00 31/10/2020
1231 234000 CRISTIANE OLIVEIRA TOSTES OFICIAL DO MP JUIZ DE FORA - COMARCA; JUIZ DE FORA-PJ-08PJ 1.100,00 769,39 450,00 0,00 0,00 0,00 0,00 0,00 0,00 31/10/2020
1232 445800 CRISTIANE ORZIL COSTA OFICIAL DO MP SANTA LUZIA - COMARCA; SANTA LUZIA-PJ-05PJ 1.100,00 769,39 450,00 0,00 0,00 0,00 0,00 0,00 0,00 31/10/2020
1233 616100 CRISTIANE PAES RODRIGUES MARCICANO ANALISTA DO MP CATAGUASES - COMARCA; CATAGUASES-PJ-05PJ 1.100,00 1.538,78 450,00 0,00 0,00 0,00 0,00 0,00 0,00 31/10/2020
1234 1110700 CRISTIANE PIRES DAMASCENO ESTAGIARIO ITURAMA; ITURAMA-PJ-02PJ 0,00 0,00 0,00 189,00 0,00 0,00 0,00 0,00 0,00 31/10/2020
1235 612300 CRISTIANE RIBEIRO DOS REIS ARCANJO OFICIAL DO MP BELO HORIZONTE - COMARCA; DIRETORIA DE PAGAMENTO DE PESSOAL-DPAG
1236 257700 CRISTIANE RODRIGUES PAES NUNES ANALISTA DO MP BELO HORIZONTE - COMARCA; BH-22PJ PES COM DEF E IDOSOS-ORIENTACAO PSIC 1.100,00 769,39 450,00 0,00 0,00 0,00 0,00 0,00 0,00 31/10/2020
1237 510800 CRISTIANE SANTOS FERNANDES ORNELES ANALISTA DO MP BELO HORIZONTE - COMARCA; COORD ESTADUAL DAS PJS DE HAB. E URBANISMO 1.100,00 0,00 450,00 0,00 0,00 0,00 0,00 0,00 0,00 31/10/2020
1238 535701 CRISTIANE SANTOS MIRANDA ANALISTA DO MP BETIM - COMARCA; BETIM-PJ-12PJ 1.100,00 0,00 450,00 0,00 0,00 0,00 0,00 0,00 0,00 31/10/2020
1239 163400 CRISTIANO CASSIOLATO PROMOTOR 1A ENTRANCIA CARMO DO RIO CLARO - COMARCA; CARMO DO RIO CLARO-PJ-UNPJ 1.100,00 0,00 3.040,44 0,00 20.269,61 0,00 0,00 0,00 464,51 31/10/2020
1240 484000 CRISTIANO CESAR PIMENTA DAYRELL DA CUNHA PROMOT.ENTRANC.ESPECIAL SETE LAGOAS - COMARCA; SETE LAGOAS-PJ-01PJ 1.100,00 0,00 2.558,40 0,00 13.475,64 0,00 0,00 0,00 514,69 31/10/2020
1241 299901 CRISTIANO DA COSTA MATA PROMOT.ENTRANC.ESPECIAL IPATINGA - COMARCA; IPATINGA-PJ-11PJ 1.100,00 0,00 2.558,40 0,00 13.475,64 0,00 0,00 0,00 514,69 31/10/2020
1242 536200 CRISTIANO DE OLIVEIRA ANALISTA DO MP CONCEIÇÃO DO MATO DENTRO - COMARCA; CONCEICAO DO MATO DENTRO-PJ-UNPJ 1.100,00 769,39 450,00 0,00 0,00 0,00 0,00 0,00 0,00 31/10/2020
1243 440000 CRISTIANO MOREIRA SILVA PROMOTOR 2A ENTRANCIA CAPELINHA - COMARCA; CAPELINHA-PJ-02PJ 1.100,00 0,00 2.025,40 0,00 21.336,43 0,00 0,00 0,00 488,96 31/10/2020
1244 167400 CRISTIANO ROCHA GAZAL PROMOTOR 1A ENTRANCIA CAMBUQUIRA - COMARCA; CAMBUQUIRA-PJ-UNPJ 1.100,00 0,00 1.492,40 0,00 20.269,61 0,00 0,00 0,00 464,51 31/10/2020
1245 477400 CRISTIANO SOARES ELEUTERIO ANALISTA DO MP BELO HORIZONTE - COMARCA; BH-17PJ PATRIMONIO PUBLICO-SECRETARIA 1.100,00 0,00 450,00 0,00 0,00 0,00 0,00 0,00 0,00 31/10/2020
1246 449400 CRISTIANO TEIXEIRA RODRIGUES LANA ANALISTA DO MP BELO HORIZONTE - COMARCA; ASSESS TECNICO-JUR JUNTO AS PROC. DE JUST 1.100,00 0,00 450,00 0,00 0,00 0,00 0,00 0,00 0,00 31/10/2020
1247 106600 CRISTINA BECHARA KALLAS PROMOTOR 2A ENTRANCIA PASSOS - COMARCA; PASSOS-PJ-03PJ 1.100,00 0,00 2.153,32 0,00 12.801,86 0,00 0,00 0,00 488,96 31/10/2020
1248 239400 CRISTINA DE FATIMA CRUZ E SILVA OFICIAL DO MP MONTE SANTO DE MINAS - COMARCA; MONTE SANTO DE MINAS-PJ-SECRETARIA 1.100,00 0,00 450,00 0,00 0,00 0,00 0,00 0,00 0,00 31/10/2020
1249 544000 CRISTINA DE OLIVEIRA TERRA ANALISTA DO MP RIBEIRÃO DAS NEVES - COMARCA; RIBEIRAO DAS NEVES-PJ-09PJ 1.100,00 0,00 450,00 0,00 0,00 0,00 0,00 0,00 0,00 31/10/2020
1250 356800 CRISTINA DE PINHO BARROSO OFICIAL DO MP SABINÓPOLIS - COMARCA; SABINOPOLIS-PJ-UNPJ 1.100,00 769,39 450,00 0,00 0,00 0,00 0,00 0,00 0,00 31/10/2020
1251 649500 CRISTINA DO DIVINO ESPIRITO SANTOS OFICIAL DO MP DIVINÓPOLIS - COMARCA; DIVINOPOLIS-PJ-12PJ 1.100,00 0,00 450,00 0,00 0,00 0,00 0,00 0,00 0,00 31/10/2020
1252 218500 CRISTINA FAGUNDES SIQUEIRA PROMOTOR 2A ENTRANCIA ARAGUARI - COMARCA; ARAGUARI-PJ-04PJ 1.100,00 0,00 2.643,68 0,00 12.801,86 0,00 0,00 0,00 488,96 31/10/2020
1253 484500 CRISTINA FERREIRA LABARRERE NASCIMENTO PROMOTOR SUBSTITUTO CONTAGEM - COMARCA; CONTAGEM-PJ-11PJ 1.100,00 0,00 1.748,24 0,00 12.161,76 0,00 0,00 0,00 464,51 31/10/2020
1254 348201 CRISTINA MARIA DA SILVA ANALISTA DO MP UBERLÂNDIA - COMARCA; UBERLANDIA-PJ-20PJ 1.100,00 769,39 450,00 0,00 0,00 0,00 1.006,96 0,00 0,00 31/10/2020
1255 434900 CRISTINA MELO DE MADUREIRA ANALISTA DO MP BELO HORIZONTE - COMARCA; BH-07PJ 01 TRIBUNAL JURI-SECRETARIA 1.100,00 0,00 450,00 0,00 0,00 0,00 0,00 0,00 0,00 31/10/2020
1256 307700 CRISTINA TEIXEIRA MARQUES OFICIAL DO MP BELO HORIZONTE - COMARCA; CENTRAL DE APOIO TECNICO-SETOR CONTABIL 1.100,00 0,00 450,00 0,00 0,00 0,00 0,00 0,00 0,00 31/10/2020
1257 58700 CRISTOVAM JOAQUIM FERNANDES RAMOS FILHO PROCURADOR DE JUSTICA BELO HORIZONTE - COMARCA; PROC JUST ESP ACOES COMP ORIG CRIMINAL 0,00 0,00 1.279,20 0,00 0,00 0,00 0,00 0,00 0,00 31/10/2020
1258 265300 CRISTOVAO SANCHES DE MEDEIROS ANALISTA DO MP BELO HORIZONTE - COMARCA; DIRETORIA DE CONTABILIDADE 1.100,00 0,00 450,00 0,00 0,00 0,00 0,00 0,00 0,00 31/10/2020
1259 349800 CROZEIR LUIZ DA SILVA OFICIAL DO MP UNAÍ - COMARCA; UNAI-PJ-SECRETARIA 1.100,00 0,00 450,00 0,00 0,00 0,00 0,00 0,00 0,00 31/10/2020
1260 490500 CYNTHIA CRISTINA DE SOUZA OLIVEIRA VALENTE ANALISTA DO MP BELO HORIZONTE - COMARCA; BH-09PJ AUDITORIA MILITAR-SECRETARIA 1.100,00 0,00 450,00 0,00 0,00 0,00 0,00 0,00 0,00 31/10/2020
1261 344200 CYNTHIA DUARTE VILELA PROMOTOR 2A ENTRANCIA SABARÁ - COMARCA; SABARA-PJ-03PJ 1.100,00 0,00 3.131,24 0,00 12.801,86 0,00 0,00 0,00 488,96 31/10/2020
1262 389800 CYNTHIA GARIGLIO DOS SANTOS OFICIAL DO MP PERDIZES - COMARCA; PERDIZES-PJ-SECRETARIA 1.100,00 769,39 450,00 0,00 0,00 0,00 0,00 0,00 648,23 31/10/2020
1263 335101 CYNTHIA GONTIJO D ASSUNCAO ANALISTA DO MP BELO HORIZONTE - COMARCA; PROC. JUSTICA DIR. DIFUSOS E COLETIVOS-SEC 1.100,00 769,39 450,00 0,00 0,00 0,00 0,00 0,00 0,00 31/10/2020
1264 154000 CYNTHIA LOPES DOS SANTOS LAGES ASSESSOR BELO HORIZONTE - COMARCA; PROCURADOR-GERAL DE JUSTICA- GABINETE 1.100,00 0,00 450,00 0,00 0,00 0,00 0,00 0,00 0,00 31/10/2020
1265 223600 CYNTHIA MARIA DOS SANTOS SILVA JORGE PROMOT.ENTRANC.ESPECIAL BELO HORIZONTE - COMARCA; BH-13PJ JUIZO DE TOXICOS-GAB 011PJ 1.100,00 0,00 2.494,44 0,00 22.459,40 0,00 0,00 0,00 514,69 31/10/2020
1266 1029100 CYNTHIA SOUZA RAMOS ESTAGIARIO BELO HORIZONTE; DIRET DE FORMACAO, APERFEIC. E POS-GRADUACAO
1267 531200 CYNTIA CAMPOS GIRO PROMOTOR 2A ENTRANCIA PONTE NOVA - COMARCA; PONTE NOVA-PJ-05PJ 1.100,00 0,00 1.599,00 0,00 0,00 0,00 0,00 0,00 0,00 31/10/2020
1268 269700 CYNTIA ROCHA CAVALCANTI OFICIAL DO MP UBERLÂNDIA - COMARCA; UBERLANDIA-PJ-06PJ 1.100,00 769,39 450,00 0,00 0,00 0,00 0,00 0,00 0,00 31/10/2020
1269 1092800 DAIANA LUCIA DE ALMEIDA ESTAGIARIO JUIZ DE FORA; JUIZ DE FORA-PJ-10PJ
1270 850000 DAIANA MACHADO DA SILVA ESTAGIARIO RIBEIRAO DAS NEVES; RIBEIRAO DAS NEVES-PJ-01PJ
1271 1025100 DAIANE GONCALVES BORGES ESTAGIARIO ITUIUTABA; ITUIUTABA-PJ-05PJ 0,00 0,00 0,00 144,00 0,00 0,00 0,00 0,00 0,00 31/10/2020
1272 1044300 DAIANE ILMA FERREIRA ESTAGIARIO ITABIRA; ITABIRA-PJ-03PJ 0,00 0,00 0,00 54,00 603,33 0,00 0,00 0,00 0,00 31/10/2020
1273 278000 DAIRTON LOPES MARTINS FILHO COORDENADOR/ANALISTA BELO HORIZONTE - COMARCA; DIRETORIA DE SISTEMAS DE INFORMACAO 1.100,00 0,00 450,00 0,00 0,00 0,00 0,00 0,00 0,00 31/10/2020
1274 392700 DALIANA CHAVES IBRAIM MARINHO OFICIAL DO MP ITAÚNA - COMARCA; ITAUNA-PJ-04PJ 1.100,00 0,00 450,00 0,00 0,00 0,00 0,00 0,00 0,00 31/10/2020
1275 1107100 DALILA MAGALHAES CABRAL ESTAGIARIO CONTAGEM; CONTAGEM-PJ-06PJ 0,00 0,00 0,00 180,00 0,00 0,00 0,00 0,00 0,00 31/10/2020
1276 558101 DALLEY TASSIA SILVA ANALISTA DO MP MORADA NOVA DE MINAS - COMARCA; MORADA NOVA DE MINAS-PJ-UNPJ 1.100,00 1.538,78 450,00 0,00 0,00 0,00 0,00 0,00 0,00 31/10/2020
1277 476700 DALTON DAUD ANALISTA DO MP ARAGUARI - COMARCA; ARAGUARI-PJ-05PJ 1.100,00 0,00 450,00 0,00 0,00 0,00 0,00 0,00 0,00 31/10/2020
1278 1013200 DAMARIS DE ARAUJO NASCIMENTO ESTAGIARIO TRES CORACOES; TRES CORACOES-PJ-02PJ 0,00 0,00 0,00 126,00 0,00 0,00 0,00 0,00 0,00 31/10/2020
1279 426900 DANIEL ALVES DA SILVA OFICIAL DO MP BELO HORIZONTE - COMARCA; DIVISAO TRANSPORTES 1.100,00 0,00 450,00 0,00 0,00 0,00 0,00 0,00 0,00 31/10/2020
1280 343900 DANIEL ANGELO DE OLIVEIRA RANGEL PROMOTOR 1A ENTRANCIA RIO PRETO - COMARCA; RIO PRETO-PJ-UNPJ 1.100,00 0,00 2.174,64 0,00 12.161,76 0,00 0,00 0,00 464,51 31/10/2020
1281 122000 DANIEL ANTONIO VIEIRA OFICIAL DO MP ENTRE-RIOS DE MINAS - COMARCA; ENTRE RIOS DE MINAS-PJ-SECRETARIA 0,00 0,00 450,00 0,00 0,00 0,00 0,00 0,00 0,00 31/10/2020
1282 685900 DANIEL AUGUSTO DE CAMARGO LIMA CAMPOS PROMOTOR SUBSTITUTO BELO HORIZONTE - COMARCA; CENTRO DE ESTUDOS E APERFEICOAMENTO FUNCIONAL 1.100,00 0,00 1.157,47 0,00 0,00 0,00 0,00 0,00 0,00 31/10/2020
1283 311501 DANIEL BATISTA MENDES PROMOT.ENTRANC.ESPECIAL BELO HORIZONTE - COMARCA; BH-14PJ DEFESA CONSUMIDOR-GAB 110PJ 1.100,00 0,00 2.451,80 0,00 13.475,64 0,00 0,00 0,00 514,69 31/10/2020
1284 437801 DANIEL CASTRO E MELO PROMOTOR 2A ENTRANCIA JANAÚBA - COMARCA; JANAUBA-PJ-03PJ 1.100,00 0,00 0,00 0,00 8.534,57 0,00 0,00 0,00 0,00 31/10/2020
1285 313800 DANIEL DE OLIVEIRA MALARD PROMOT.ENTRANC.ESPECIAL BELO HORIZONTE - COMARCA; CAO-CRIMINAL 1.100,00 0,00 2.687,28 0,00 19.090,49 0,00 0,00 0,00 514,69 31/10/2020
1286 170200 DANIEL DE SA RODRIGUES PROMOT.ENTRANC.ESPECIAL BELO HORIZONTE - COMARCA; BH-11PJ COMB CRIME ORGANIZ-GAB 082PJ 1.100,00 0,00 3.368,91 0,00 13.475,64 0,00 0,00 0,00 514,69 31/10/2020
1287 456600 DANIEL DOS SANTOS RODRIGUES PROMOTOR 2A ENTRANCIA OURO PRETO - COMARCA; OURO PRETO-PJ-01PJ 1.100,00 0,00 0,00 0,00 0,00 0,00 0,00 0,00 0,00 31/10/2020
1288 996600 DANIEL FERREIRA CAMARA ESTAGIARIO BELO HORIZONTE; CAO-CRIMINAL-GABINETES 0,00 0,00 0,00 36,00 0,00 0,00 0,00 0,00 0,00 31/10/2020
1289 411000 DANIEL FERREIRA DA SILVA ANALISTA DO MP GOVERNADOR VALADARES - COMARCA; GOVERNADOR VALADARES-PJ-15PJ 1.100,00 1.538,78 450,00 0,00 0,00 0,00 0,00 0,00 906,60 31/10/2020
1290 309000 DANIEL GOMES DOS SANTOS ANALISTA DO MP POÇOS DE CALDAS - COMARCA; POCOS DE CALDAS-PJ-03PJ 1.100,00 0,00 450,00 0,00 0,00 0,00 0,00 0,00 725,38 31/10/2020
1291 554500 DANIEL GOMES PEREIRA OFICIAL DO MP NANUQUE - COMARCA; NANUQUE-PJ-02PJ 1.100,00 0,00 450,00 0,00 0,00 0,00 0,00 0,00 0,00 31/10/2020
1292 453000 DANIEL GONCALVES PEREIRA ANALISTA DO MP UNAÍ - COMARCA; UNAI-PJ-02PJ 1.100,00 1.922,93 450,00 0,00 0,00 0,00 0,00 0,00 0,00 31/10/2020
1293 495500 DANIEL GUIMARAES CABRAL OFICIAL DO MP BELO HORIZONTE - COMARCA; BH-17PJ PATRIMONIO PUBLICO-SECRETARIA 1.100,00 0,00 450,00 0,00 0,00 0,00 0,00 0,00 0,00 31/10/2020
1294 442900 DANIEL GUIMARAES GONCALVES ANALISTA DO MP UBERLÂNDIA - COMARCA; UBERLANDIA-PJ-03PJ 1.100,00 0,00 450,00 0,00 0,00 0,00 0,00 0,00 0,00 31/10/2020
1295 634800 DANIEL LESSA COSTA PROMOT.ENTRANC.ESPECIAL CARATINGA - COMARCA; CARATINGA-PJ-06PJ 1.100,00 0,00 1.918,80 0,00 13.475,64 0,00 0,00 0,00 514,69 31/10/2020
1296 655900 DANIEL LUIZ DA SILVA ASSESSOR BELO HORIZONTE - COMARCA; DIV FISCAL ADM CONT TERCEIRIZACAO 1.100,00 0,00 450,00 0,00 0,00 0,00 0,00 0,00 0,00 31/10/2020
1297 209600 DANIEL MAROTTA MARTINEZ PROMOT.ENTRANC.ESPECIAL UBERLÂNDIA - COMARCA; UBERLANDIA-PJ-17PJ 1.100,00 0,00 1.673,84 0,00 13.475,64 0,00 0,00 0,00 514,69 31/10/2020
1298 440300 DANIEL OLIVEIRA DE ORNELAS PROMOT.ENTRANC.ESPECIAL MONTES CLAROS - COMARCA; MONTES CLAROS-PJ-12PJ 1.100,00 0,00 2.798,40 0,00 22.459,40 0,00 0,00 0,00 514,69 31/10/2020
1299 464600 DANIEL PIACENTINI STIVANIN ANALISTA DO MP ANDRADAS - COMARCA; ANDRADAS-PJ-02PJ 1.100,00 0,00 450,00 0,00 0,00 0,00 0,00 0,00 0,00 31/10/2020
1300 533600 DANIEL PIOVANELLI ARDISSON PROMOTOR 2A ENTRANCIA MONTES CLAROS - COMARCA; COORD REG BACIA RIOS VERDE GRANDE E PARDO 1.100,00 0,00 1.492,40 0,00 12.801,86 0,00 0,00 0,00 488,96 31/10/2020
1301 417000 DANIEL QUEIROZ FERREIRA ANALISTA DO MP SÃO SEBASTIÃO DO PARAÍSO - COMARCA; SAO SEBASTIAO DO PARAISO-PJ-05PJ 1.100,00 0,00 450,00 0,00 0,00 0,00 0,00 0,00 0,00 31/10/2020
1302 483400 DANIEL RIBEIRO COSTA PROMOTOR 1A ENTRANCIA ELOI MENDES - COMARCA; ELOI MENDES-PJ-UNPJ 1.100,00 0,00 1.918,80 0,00 12.161,76 0,00 0,00 0,00 464,51 31/10/2020
1303 457600 DANIEL SALIBA DE FREITAS PROMOTOR 2A ENTRANCIA NOVA SERRANA - COMARCA; NOVA SERRANA-PJ-02PJ 1.100,00 0,00 2.558,40 0,00 0,00 0,00 0,00 0,00 0,00 31/10/2020
1304 396700 DANIEL SILVA CARNEVALLI DIRETOR/ANALISTA BELO HORIZONTE - COMARCA; SUPERINTENDENCIA DE TECNOLOGIA DA INFORMACAO 1.100,00 769,39 450,00 0,00 0,00 0,00 0,00 0,00 -54,14 31/10/2020
1305 489300 DANIEL TABOZA ROCHA ANALISTA DO MP IPATINGA - COMARCA; IPATINGA-PJ-08PJ 1.100,00 769,39 450,00 0,00 0,00 0,00 0,00 0,00 0,00 31/10/2020
1306 414100 DANIEL TARDELI VALADAO ANALISTA DO MP TRÊS CORACOES - COMARCA; TRES CORACOES-PJ-02PJ 1.100,00 1.538,78 450,00 0,00 0,00 0,00 0,00 0,00 0,00 31/10/2020
1307 446601 DANIEL VIEIRA BUENO ANALISTA DO MP SÃO DOMINGOS DO PRATA - COMARCA; SAO DOMINGOS DO PRATA-PJ-UNPJ 1.100,00 769,39 450,00 0,00 0,00 0,00 0,00 0,00 0,00 31/10/2020
1308 1185700 DANIELA ANTUNES TELLES ESTAGIARIO NOVA LIMA; NOVA LIMA-PJ-03PJ 0,00 0,00 0,00 45,00 0,00 0,00 0,00 0,00 0,00 31/10/2020
1309 1118300 DANIELA BARROS GOMES ESTAGIARIO IBIRITE; IBIRITE-PJ-03PJ 0,00 0,00 0,00 99,00 0,00 0,00 0,00 0,00 0,00 31/10/2020
1310 253200 DANIELA BATISTA LIMA BARBOSA ASSESSOR BELO HORIZONTE - COMARCA; CENTRAL DE APOIO TECN-SETOR DE MEIO AMBIENTE 1.100,00 0,00 450,00 0,00 0,00 0,00 0,00 0,00 0,00 31/10/2020
1311 505800 DANIELA BORGES DE MATTOS RESENDE ANALISTA DO MP JUIZ DE FORA - COMARCA; JUIZ DE FORA-PJ-20PJ 1.100,00 769,39 450,00 0,00 0,00 0,00 0,00 0,00 0,00 31/10/2020
1312 533700 DANIELA CAMPOS DE ABREU SERRA PROMOTOR 2A ENTRANCIA FRUTAL - COMARCA; FRUTAL-PJ-03PJ 1.100,00 0,00 1.748,24 0,00 21.336,43 0,00 0,00 0,00 488,96 31/10/2020
1313 478000 DANIELA CARVALHO SOARES ANALISTA DO MP SÃO JOÃO DEL REI - COMARCA; SAO JOAO DEL REI-PJ-01PJ 1.100,00 0,00 450,00 0,00 0,00 0,00 0,00 0,00 0,00 31/10/2020
1314 275900 DANIELA CHAGAS SODRE ANALISTA DO MP BELO HORIZONTE - COMARCA; CENTRAL DE APOIO TECNICO-SETOR CONTABIL 1.100,00 0,00 450,00 0,00 0,00 0,00 0,00 0,00 0,00 31/10/2020
1315 210100 DANIELA CRISTINA PEDROSA BITTENCOURT MARTINEZ PROMOT.ENTRANC.ESPECIAL UBERLÂNDIA - COMARCA; UBERLANDIA-PJ-15PJ 1.100,00 0,00 1.321,84 0,00 13.475,64 0,00 0,00 0,00 514,69 31/10/2020
1316 234301 DANIELA CRUZ SOARES ANALISTA DO MP BELO HORIZONTE - COMARCA; LABORATORIO TECNOLOGIA INTELIGENCIA 1.100,00 0,00 450,00 0,00 0,00 0,00 0,00 0,00 0,00 31/10/2020
1317 638000 DANIELA DE ALMEIDA BATISTA ANALISTA DO MP ANDRELÂNDIA - COMARCA; ANDRELANDIA-PJ-UNPJ 1.100,00 769,39 450,00 0,00 0,00 0,00 0,00 0,00 0,00 31/10/2020
1318 301000 DANIELA DE ALMEIDA E OLIVEIRA ANALISTA DO MP BELO HORIZONTE - COMARCA; DIRETORIA DE SISTEMAS DE INFORMACAO 1.100,00 0,00 450,00 0,00 0,00 0,00 0,00 0,00 0,00 31/10/2020
1319 296000 DANIELA DE AZEVEDO SILVA ANALISTA DO MP BRASÓPOLIS - COMARCA; BRASOPOLIS-PJ-UNPJ 1.100,00 0,00 450,00 0,00 0,00 0,00 0,00 0,00 1.092,26 31/10/2020
1320 453500 DANIELA DE CASTRO SOUSA BARBOSA ANALISTA DO MP BELO HORIZONTE - COMARCA; BH-08PJ JUIZADO ESPECIAL-SECRETARIA 1.100,00 0,00 450,00 0,00 0,00 0,00 0,00 0,00 971,93 31/10/2020
1321 506000 DANIELA DE OLIVEIRA CAVALIERI ANALISTA DO MP BELO HORIZONTE - COMARCA; BH-14PJ DEFESA CONSUMIDOR-GAB 005PJ 1.100,00 0,00